GFSSW_250_spd_000.txt.gz
Wind_Speed
77 78 79 83 88 93 99 100 98 93 89 86 81 78 72 73 69 62 53 53 54 49 48 39 39 41 39 32 34 41 51 53 47 42 37 37 30 31 34 34 32 29 26 17 20
88 87 86 86 84 86 91 94 98 98 96 91 87 83 80 74 69 62 60 59 53 53 45 42 40 41 39 42 38 38 47 51 44 40 36 35 27 31 33 31 29 27 20 19 22
95 95 96 94 90 86 86 86 87 90 93 91 90 89 86 77 67 58 65 62 57 52 50 44 37 38 35 36 37 39 45 48 43 39 40 29 28 30 30 28 25 23 19 20 27
78 88 96 98 98 95 88 84 81 82 83 86 88 89 87 79 65 68 70 65 60 55 50 45 42 39 35 32 33 38 41 44 42 42 39 29 28 29 27 22 24 23 18 21 30
51 59 68 81 95 98 95 90 84 81 81 82 84 87 84 77 70 73 73 68 65 63 51 43 39 46 36 35 35 39 37 45 43 42 39 30 27 27 24 20 24 20 19 21 31
29 31 41 52 66 89 96 93 87 86 83 82 83 83 81 73 78 76 76 68 66 61 56 44 35 39 38 36 34 36 38 46 43 42 37 30 26 25 17 22 21 17 20 23 29
13 11 19 30 44 62 81 97 94 88 88 85 84 81 77 77 79 77 76 70 69 61 57 51 40 40 39 36 34 36 42 45 42 41 34 27 24 22 14 22 16 16 20 22 20
12 4 3 15 26 39 56 73 94 93 90 89 86 82 78 82 79 77 72 69 68 66 62 54 51 45 40 38 36 37 41 43 40 39 32 25 22 20 25 21 16 17 21 19 19
20 10 7 10 18 27 38 51 69 89 90 87 87 84 83 81 76 77 74 71 70 66 57 53 49 46 42 39 38 41 41 42 35 37 32 25 22 23 26 22 25 24 23 22 22
40 30 20 15 13 18 26 35 45 62 83 86 85 87 87 84 81 79 76 72 69 64 59 52 56 45 44 39 39 42 44 38 36 35 34 27 23 24 28 31 27 29 30 26 25
47 44 39 35 29 24 19 24 33 43 58 80 84 86 88 86 83 82 79 76 73 69 61 54 52 41 49 46 34 37 41 38 37 37 31 29 25 29 33 30 30 31 30 31 29
47 39 42 38 36 34 33 27 28 36 48 59 73 87 87 80 83 83 79 75 68 63 62 52 49 52 50 41 36 42 49 39 39 36 31 29 27 30 32 32 32 32 34 34 33
48 43 45 44 54 53 49 41 39 38 37 44 55 64 72 82 86 83 77 72 71 69 62 55 56 46 49 44 44 49 46 40 40 37 33 26 26 28 27 30 35 36 35 33 31
39 45 53 52 49 53 56 54 57 54 56 50 45 48 58 65 73 83 87 86 81 73 70 64 56 53 48 50 50 55 42 42 38 37 32 26 28 28 25 24 29 31 27 25 26
31 37 39 49 52 43 48 55 54 49 58 60 62 61 62 53 56 56 68 80 84 78 68 62 60 57 52 53 58 51 48 43 40 37 32 28 29 26 25 30 31 28 28 27 27
28 28 39 52 55 50 41 43 48 50 57 63 67 60 56 51 45 42 40 43 55 63 62 60 56 56 56 58 56 52 47 43 42 34 35 31 30 30 27 29 31 29 28 29 29
29 27 37 45 48 53 41 38 41 41 53 57 55 52 49 48 44 40 41 45 46 54 59 63 60 59 57 56 54 49 46 43 40 35 35 34 31 31 29 28 30 30 31 31 30
28 31 40 43 46 44 44 42 42 47 52 48 50 43 43 43 44 42 43 50 54 59 59 59 56 56 54 54 51 48 47 43 40 38 39 38 35 33 30 29 32 32 33 33 35
32 30 33 39 39 36 37 49 52 45 48 43 45 40 40 43 42 43 46 49 48 52 48 51 55 54 54 52 51 50 48 43 43 41 42 41 39 35 36 35 34 34 36 38 38
33 36 33 33 34 35 34 55 49 53 48 47 43 35 38 33 40 44 48 50 51 51 49 55 56 55 53 52 50 51 47 45 44 43 43 43 41 38 39 39 40 40 40 41 43
18 32 35 33 31 34 29 34 51 51 49 41 41 35 40 37 40 46 50 49 50 50 41 48 54 52 52 51 51 50 48 45 44 44 43 43 44 42 41 43 44 44 45 46 50
21 20 26 37 38 35 34 36 36 48 48 42 38 36 36 36 31 47 53 51 52 47 42 42 49 52 51 51 50 49 48 44 42 43 44 45 49 47 46 47 47 46 48 51 57
25 16 27 28 41 39 38 38 38 39 41 42 38 41 37 35 44 46 45 52 52 48 49 45 43 49 50 49 51 51 49 47 46 46 49 48 52 51 53 53 53 56 56 60 65
31 20 27 30 33 41 37 37 36 38 42 40 42 41 43 39 47 47 50 49 53 52 51 50 49 47 43 43 44 48 50 51 49 50 48 53 52 57 59 57 61 64 65 68 71
31 28 29 27 23 41 37 32 30 36 38 37 41 42 47 44 46 41 49 51 51 49 48 48 48 48 48 49 50 50 51 51 50 54 51 59 57 65 64 67 70 72 73 74 76
30 30 29 30 26 34 36 32 24 31 35 39 42 41 42 47 40 41 40 47 54 52 53 50 50 49 50 51 53 56 57 55 54 56 57 59 64 65 66 71 76 77 78 80 82
21 29 31 30 32 30 33 34 30 29 32 41 47 45 45 47 47 46 44 44 49 51 52 51 51 50 52 53 52 56 57 59 60 61 61 65 69 72 74 77 80 83 85 87 88

GFSSW_250_spd_003.txt.gz
Wind_Speed
80 81 81 81 82 85 85 95 107 106 100 94 90 87 83 73 66 64 61 55 60 58 52 51 44 38 39 36 36 32 33 42 50 54 49 51 48 38 36 33 35 33 35 29 30
85 88 88 88 86 86 88 89 96 106 106 101 94 91 85 74 68 60 64 63 61 54 53 49 45 37 34 37 35 31 27 33 38 47 51 52 40 34 34 34 34 30 31 28 29
79 84 89 91 93 91 88 89 90 96 106 107 101 95 92 81 69 58 64 69 65 59 54 51 43 38 38 39 38 34 34 30 28 39 47 47 37 36 32 34 29 30 30 26 24
66 70 68 77 91 93 91 86 89 90 96 104 104 100 94 82 68 73 68 68 67 62 55 47 43 36 41 42 40 36 32 30 26 35 44 42 38 33 33 31 26 29 28 24 21
44 56 55 53 68 87 91 90 85 88 91 97 101 99 92 78 76 74 73 72 67 61 57 54 47 44 41 44 38 36 36 26 28 31 39 41 35 37 33 27 25 28 23 21 17
24 26 37 44 50 61 83 89 88 85 86 91 93 94 90 79 87 84 77 73 67 66 61 55 51 47 44 40 39 45 40 31 30 32 39 36 37 35 29 23 28 23 21 18 16
24 12 16 26 34 46 64 83 87 85 81 83 87 85 83 87 91 85 81 74 69 66 64 61 56 47 42 41 39 41 42 35 30 30 35 37 37 32 26 25 29 19 19 17 15
29 18 11 11 21 32 49 70 84 86 81 79 80 81 81 91 89 85 85 77 72 70 68 65 58 50 41 39 41 39 36 27 23 31 37 36 33 27 27 29 26 21 18 15 12
51 30 14 7 6 17 33 56 76 85 84 76 73 72 83 86 81 84 86 78 78 77 73 66 56 52 45 40 38 40 35 28 25 34 37 33 30 28 26 29 28 20 13 13 17
55 47 34 17 6 8 22 42 61 84 82 75 72 70 74 79 80 81 87 80 80 76 71 63 54 50 49 40 41 39 34 31 28 37 33 31 29 29 27 31 26 19 21 23 22
47 46 46 38 23 9 12 30 50 71 80 78 72 72 72 75 79 82 84 82 81 73 68 58 54 46 49 48 40 40 35 32 33 38 29 25 27 29 27 28 27 26 29 27 26
53 49 50 49 41 26 18 22 37 56 77 79 77 75 72 72 76 79 80 78 72 67 65 64 53 57 57 47 41 43 39 33 33 37 31 24 26 29 27 28 31 28 30 33 33
49 48 47 51 51 47 33 23 31 46 72 83 82 79 72 71 74 75 77 73 72 70 64 56 58 60 54 40 42 44 39 34 35 36 27 24 25 30 29 30 32 32 34 36 37
45 42 47 48 50 52 47 34 28 42 60 85 85 78 76 72 70 70 72 72 71 69 66 63 63 57 54 44 44 44 41 37 38 36 30 28 28 30 32 31 30 35 37 36 35
38 36 40 45 48 48 51 46 34 32 50 74 81 75 76 70 69 72 66 64 64 64 63 62 59 55 51 45 46 47 45 39 39 31 32 26 28 31 33 29 29 32 35 34 36
30 38 32 37 41 42 41 48 49 48 38 54 76 77 71 70 71 66 66 66 66 65 62 59 59 57 52 47 44 51 43 39 38 32 32 29 28 34 29 26 26 25 29 30 28
33 37 35 28 36 33 32 42 48 51 53 49 59 75 78 71 73 70 68 69 67 66 62 60 59 57 54 48 45 43 41 36 37 33 31 32 32 34 29 27 26 28 29 30 30
33 31 29 21 33 33 35 38 39 43 47 48 50 53 64 75 75 71 70 68 67 65 63 59 56 57 51 47 45 46 41 39 37 38 38 36 34 34 33 30 30 29 31 33 33
32 24 19 28 31 29 34 33 30 36 43 38 36 42 43 43 45 64 72 76 74 71 67 64 59 60 58 55 48 40 43 40 39 42 41 37 36 37 38 35 36 34 34 36 35
33 22 24 31 35 35 31 34 38 37 37 36 31 32 28 31 36 38 41 46 52 55 66 69 66 61 53 48 46 47 42 41 44 45 42 41 38 40 41 41 39 38 40 40 42
29 28 24 27 32 36 39 35 30 32 35 32 31 31 27 26 23 25 24 28 36 46 52 52 52 52 50 50 48 44 44 44 45 46 44 45 41 42 45 45 44 44 45 48 50
28 31 27 25 30 39 41 34 38 33 28 23 30 30 30 30 29 28 29 35 29 31 41 43 45 49 49 45 42 42 44 45 46 46 46 46 44 45 46 45 46 48 49 51 54
33 30 27 30 29 41 37 36 38 31 27 29 29 33 28 30 32 31 32 31 34 31 37 38 39 27 35 41 43 45 45 44 44 46 47 46 48 47 49 49 49 52 54 57 59
27 31 29 32 32 45 41 39 43 35 25 31 31 32 32 27 27 34 33 34 33 35 33 33 31 36 37 41 41 43 43 43 44 47 45 52 50 54 49 51 56 57 56 60 63
36 30 32 34 36 33 31 45 45 38 32 28 32 26 29 28 29 35 31 37 32 30 34 35 38 39 39 38 39 42 43 42 46 47 46 51 52 53 55 57 59 62 63 66 68
31 32 38 36 35 35 35 35 39 38 37 33 32 31 30 31 34 31 33 37 37 37 35 35 36 39 38 39 41 43 43 43 41 42 44 49 57 55 60 64 66 68 69 71 75
24 32 34 34 28 41 33 36 33 33 34 35 38 34 34 34 34 39 41 36 38 40 43 39 39 41 42 42 44 48 48 49 51 54 56 58 63 66 66 69 70 73 76 77 79

GFSSW_250_spd_006.txt.gz
Wind_Speed
78 85 86 86 85 87 90 89 92 103 103 99 91 89 82 78 71 62 52 55 56 49 47 41 39 38 35 31 29 35 34 40 47 47 49 55 60 60 57 55 49 44 40 37 40
63 83 85 85 87 88 89 91 91 94 104 104 99 95 91 86 78 67 62 64 61 55 51 49 46 41 38 36 34 33 31 31 31 35 40 46 51 52 52 51 45 41 35 38 38
56 57 73 79 73 87 89 90 92 93 97 106 106 100 97 92 82 72 72 71 68 61 58 53 48 47 43 39 37 33 30 28 23 24 29 35 44 45 50 45 39 38 38 39 36
56 53 49 56 68 69 84 87 89 94 93 100 107 108 99 94 87 85 77 75 70 67 59 56 49 45 46 38 35 35 34 28 25 27 30 31 34 44 45 42 40 34 38 39 34
56 48 35 39 45 48 63 84 88 87 92 94 100 107 106 93 90 88 82 79 72 65 60 56 52 49 46 41 37 39 36 32 27 27 28 31 32 37 40 37 38 37 39 35 30
57 44 32 27 34 37 45 70 85 90 90 94 95 98 104 96 98 93 88 83 72 65 61 55 56 53 48 43 36 40 37 35 28 30 28 29 29 36 33 38 40 35 36 32 28
57 46 30 22 25 31 36 57 77 90 89 87 92 90 95 105 99 94 90 85 76 70 63 61 57 57 51 39 41 39 39 38 34 34 31 31 31 32 36 39 34 34 33 29 25
51 48 33 21 20 23 28 43 66 83 85 84 89 85 91 109 99 95 90 85 74 71 66 65 61 60 51 42 43 44 41 38 36 32 32 32 28 33 38 39 32 32 30 27 27
49 51 41 25 14 11 18 35 57 74 87 87 83 85 90 93 96 99 95 83 80 75 70 65 64 59 53 46 47 41 42 36 35 30 31 30 28 32 35 33 30 31 30 28 30
46 56 52 34 20 8 8 26 51 69 86 88 81 80 85 86 98 98 98 88 82 81 73 69 64 59 53 48 47 48 38 38 34 36 34 32 32 28 30 28 25 29 29 30 28
46 56 57 42 30 16 2 18 39 61 81 80 75 76 84 86 93 98 97 91 89 80 72 68 62 57 53 53 56 43 40 38 37 37 30 33 35 31 30 25 26 28 29 30 28
44 48 57 61 43 25 11 12 34 54 77 81 78 79 79 80 87 95 97 92 84 75 74 67 58 57 57 57 52 48 44 39 40 38 34 32 35 28 31 26 25 27 30 31 32
38 44 53 59 58 33 16 15 30 51 74 76 75 71 70 75 83 92 92 89 86 81 74 67 61 63 61 59 51 50 47 45 41 37 33 34 37 27 28 29 26 27 31 32 35
36 40 52 54 54 53 24 18 31 52 73 74 72 67 66 74 81 86 91 88 86 80 77 72 71 65 64 58 53 53 49 46 42 40 38 33 31 28 26 29 26 28 33 35 38
29 35 45 49 48 53 41 23 29 53 73 77 73 70 67 67 72 79 85 85 83 78 73 70 67 65 61 60 56 58 50 48 44 43 38 33 30 26 29 30 29 29 33 36 37
22 31 33 34 42 46 44 29 25 50 70 74 72 68 62 62 67 73 77 79 82 79 77 71 69 64 65 60 58 56 52 50 46 44 39 30 31 29 31 33 29 29 31 32 34
15 26 26 27 32 39 38 39 20 41 67 67 64 64 59 58 62 67 71 75 76 73 72 69 66 63 63 60 59 57 51 49 49 47 43 37 31 32 33 33 28 30 32 32 33
13 24 21 23 31 36 39 43 37 38 62 67 60 59 57 55 57 60 64 67 68 69 70 68 62 62 62 61 62 58 54 51 48 49 46 42 33 32 33 35 30 35 35 31 31
12 22 13 22 27 30 36 39 42 39 45 67 60 56 55 54 51 54 55 58 61 61 63 64 63 65 65 64 62 54 47 48 47 49 47 40 35 36 35 35 35 37 38 36 35
12 19 16 15 22 28 34 33 43 43 39 45 65 60 54 52 51 50 51 54 55 57 60 62 66 64 62 60 59 56 50 45 48 48 46 40 38 41 36 36 39 41 41 40 42
15 20 23 20 20 32 32 32 38 38 37 40 42 45 67 60 55 52 53 54 55 56 56 60 61 60 60 58 57 57 52 44 50 45 48 42 42 43 38 39 40 43 46 47 48
21 22 27 25 20 27 34 31 26 27 22 38 44 46 45 58 64 59 58 56 53 56 59 61 61 59 61 59 56 56 51 45 45 48 46 44 45 44 43 43 43 45 48 51 52
31 25 29 30 28 24 22 29 28 17 20 20 35 39 42 45 51 57 60 64 65 68 64 61 57 58 56 54 56 55 53 47 48 47 47 45 45 45 47 46 48 50 52 52 53
31 30 33 31 33 28 15 27 26 22 23 23 20 24 24 27 34 44 43 42 46 52 58 61 64 66 66 67 63 58 52 47 46 45 44 46 43 48 45 50 54 54 54 55 57
35 32 31 36 38 33 28 24 18 30 23 32 28 20 20 24 23 26 28 25 31 31 29 36 40 42 43 46 47 47 46 47 45 37 40 41 47 43 46 50 54 56 58 61 62
38 35 29 26 43 39 31 37 27 23 26 30 30 28 22 23 31 27 26 30 31 33 38 36 41 36 39 43 33 33 38 39 38 39 44 44 48 46 49 52 51 54 58 61 65
36 41 36 30 34 41 39 37 37 28 23 27 29 30 25 26 23 22 30 34 27 29 28 29 38 41 37 40 41 37 38 40 41 42 43 45 47 49 54 56 58 61 64 67 70

GFSSW_250_spd_009.txt.gz
Wind_Speed
58 54 62 73 83 85 86 91 91 92 92 99 101 97 91 85 78 70 61 61 61 55 50 46 44 43 42 43 43 42 47 47 44 45 49 51 53 55 59 60 62 61 58 54 54
57 57 65 62 69 83 91 83 92 93 95 94 101 102 97 90 81 69 69 69 64 57 52 45 40 37 41 40 42 34 30 33 38 40 43 44 46 49 50 50 52 55 55 54 50
58 65 65 67 62 69 76 80 79 93 94 96 97 103 102 95 86 76 78 76 68 60 57 51 43 36 36 36 37 34 32 27 31 36 33 30 36 42 40 42 48 47 47 47 45
59 63 64 67 62 58 61 62 74 81 97 94 96 101 104 99 91 87 83 80 72 66 57 55 46 41 41 39 36 34 29 28 28 27 31 28 28 27 30 34 37 41 40 42 42
59 58 57 63 60 51 49 48 56 68 94 94 93 98 103 101 94 93 87 83 76 67 55 54 49 45 45 44 37 37 32 32 27 25 27 26 19 25 29 30 30 35 38 41 41
52 48 53 57 55 44 40 39 43 58 84 94 92 95 96 99 101 101 93 88 78 71 62 54 55 53 47 43 39 38 36 33 31 28 26 24 23 27 22 26 27 34 36 39 42
46 53 56 55 54 39 35 37 33 50 75 91 92 90 90 108 106 102 98 90 82 76 68 64 59 54 51 47 42 39 38 34 29 31 27 26 25 26 25 28 28 30 35 41 42
46 47 53 52 52 37 30 30 31 49 69 86 89 86 89 108 107 102 101 93 86 82 75 68 61 59 55 50 44 41 40 38 34 33 29 32 26 30 34 30 29 28 35 40 38
42 45 53 52 51 36 24 22 29 46 65 79 88 84 96 93 102 105 101 96 92 88 80 68 63 59 55 47 45 42 41 41 36 37 34 31 26 32 33 29 27 27 37 38 37
39 48 52 57 48 33 18 17 26 45 57 80 88 85 88 88 105 106 105 99 95 93 82 70 64 61 54 42 42 44 46 38 36 35 36 32 29 31 33 30 31 29 33 34 34
39 42 51 58 54 34 23 12 22 41 53 75 80 80 87 88 99 107 105 101 99 93 81 70 65 58 54 51 48 50 44 43 40 37 35 33 30 33 38 32 31 32 27 30 32
40 51 56 63 61 42 28 9 17 37 49 70 83 89 86 87 92 106 105 99 93 87 84 76 68 63 58 50 54 50 47 46 42 40 37 34 35 32 38 33 31 29 29 30 30
34 40 48 55 60 53 29 8 14 32 46 66 83 87 81 79 83 101 103 99 94 91 84 75 67 65 57 53 55 50 51 49 46 43 41 37 37 34 35 35 33 29 30 28 28
30 33 44 47 56 56 40 16 11 30 44 65 80 79 73 75 78 91 103 102 96 89 83 78 72 66 55 57 54 49 55 52 47 46 44 38 38 38 38 37 33 32 32 33 30
23 30 37 42 48 55 42 15 11 32 49 69 74 73 68 69 75 82 93 98 96 91 83 73 69 65 58 60 59 59 58 53 48 47 45 41 39 39 41 38 33 33 31 33 31
20 26 28 38 43 54 46 20 14 32 52 71 70 66 63 65 71 75 82 91 96 92 86 80 75 68 68 67 61 57 57 53 48 46 42 43 42 44 44 39 37 34 31 32 31
15 16 22 27 39 44 49 28 11 35 57 65 64 63 61 58 62 69 72 86 91 86 83 79 76 72 70 66 60 58 58 55 49 45 46 45 43 46 46 42 36 35 36 34 32
8 11 18 23 32 36 41 35 16 44 56 58 59 57 54 53 57 61 66 73 81 84 84 75 70 68 66 62 62 65 61 58 53 49 50 46 44 45 47 44 39 37 36 36 34
1 10 13 16 26 32 35 36 27 47 51 54 49 50 45 45 47 54 58 63 72 76 75 76 75 72 71 70 68 64 61 61 55 51 50 49 52 47 51 49 44 38 35 33 34
5 3 5 11 22 31 32 35 23 47 48 50 49 41 38 37 37 44 51 59 68 75 75 75 76 74 73 72 64 62 65 59 55 53 52 48 50 48 52 52 48 43 38 36 36
12 7 6 12 22 25 33 26 27 34 47 49 47 46 40 35 34 36 44 53 59 65 69 73 73 72 70 65 64 65 64 61 58 56 55 52 52 54 52 52 48 45 42 42 38
15 15 9 14 16 22 25 23 28 26 47 45 45 45 44 37 35 35 38 43 50 55 62 66 67 68 68 68 67 65 62 59 57 57 53 52 52 54 56 57 53 46 45 46 43
24 22 15 7 19 21 18 24 25 30 34 50 47 44 44 44 40 41 39 43 47 52 54 56 60 64 66 66 64 63 62 61 61 60 57 53 52 57 54 54 50 50 50 49 50
30 27 24 14 15 20 17 24 22 16 27 39 51 49 47 43 43 43 43 41 42 46 49 50 54 58 62 66 67 65 64 62 60 58 61 57 55 48 52 53 48 51 51 53 55
28 31 30 26 21 13 18 15 24 12 29 36 38 43 53 50 47 45 45 45 45 46 47 49 52 54 56 58 59 61 60 59 59 60 56 56 54 51 48 48 48 48 49 53 57
32 37 35 32 28 22 17 19 22 27 19 34 29 31 35 42 46 55 52 51 49 49 49 51 51 55 56 56 58 59 59 59 56 55 58 57 49 46 50 48 48 49 50 53 54
32 37 38 38 35 29 25 17 19 29 27 22 16 22 24 31 33 34 40 45 48 55 58 57 56 57 57 56 57 57 60 62 62 57 50 46 47 48 51 52 52 52 53 55 56

GFSSW_250_spd_012.txt.gz
Wind_Speed
58 63 67 67 59 56 59 68 78 86 89 92 89 89 97 98 92 83 76 75 72 69 58 59 59 57 55 53 54 52 54 54 53 52 53 55 57 56 57 58 60 60 60 59 60
61 67 68 59 53 58 58 63 69 80 94 96 95 94 94 100 97 86 84 81 78 71 62 59 62 58 53 52 50 48 49 49 48 47 48 48 49 50 50 50 53 52 54 53 54
64 70 55 52 55 52 60 64 71 75 83 91 94 98 97 96 99 92 89 87 83 74 65 59 55 54 48 49 48 44 47 42 43 43 46 44 42 43 46 47 44 44 43 44 45
69 56 48 51 50 53 60 63 68 73 73 77 84 93 95 95 96 99 95 92 86 76 66 59 53 50 49 48 49 45 45 40 34 32 34 38 41 38 35 30 29 36 37 38 40
58 46 48 47 52 55 59 61 69 66 59 59 68 82 94 95 92 103 100 96 87 76 67 59 54 50 51 49 46 43 42 41 33 30 29 32 31 29 27 18 33 36 37 38 39
48 43 50 46 49 49 57 59 64 57 48 49 58 75 88 91 97 106 106 100 87 79 73 61 57 58 52 46 43 41 41 35 35 32 27 26 26 33 19 30 31 34 34 38 33
46 45 45 44 47 48 51 55 57 49 43 45 53 67 82 94 97 103 108 101 88 83 76 68 65 59 53 48 45 38 35 33 35 29 26 27 28 27 25 29 31 31 31 34 26
44 45 46 48 46 48 50 52 49 42 39 41 47 61 79 93 99 101 110 102 92 87 81 75 68 62 57 50 45 38 35 34 33 30 27 27 22 29 30 32 32 33 31 30 22
46 44 49 51 47 50 50 48 45 38 36 37 45 59 81 97 96 100 112 103 96 90 84 77 70 60 56 51 44 38 38 37 31 30 30 28 21 29 30 28 29 30 28 26 23
42 42 50 46 51 59 48 47 42 33 30 33 39 56 86 96 97 99 111 105 99 94 87 77 71 60 55 48 42 47 45 40 35 32 32 31 26 30 29 31 30 26 28 23 26
42 42 45 45 50 61 58 50 39 26 23 27 35 65 87 93 94 97 109 107 101 95 83 74 69 56 56 59 56 48 43 42 38 34 33 29 29 29 31 30 30 28 27 26 25
40 42 44 42 55 60 60 59 39 23 16 24 44 65 86 93 94 96 106 105 100 89 85 78 68 67 67 58 51 48 47 44 40 37 38 31 31 30 32 30 30 30 27 28 24
37 42 37 45 51 58 61 53 36 17 13 26 49 62 85 89 90 91 102 103 98 94 84 76 71 71 63 58 53 51 45 41 42 39 40 34 33 32 32 32 32 30 27 29 27
34 35 38 41 49 56 62 49 30 11 12 24 46 65 79 83 84 85 100 104 98 91 86 79 78 72 62 61 57 55 50 44 43 42 42 35 37 34 34 34 35 35 29 33 30
31 31 33 38 44 54 58 51 28 9 8 21 47 67 78 80 81 79 94 103 99 91 86 80 78 75 64 63 63 62 51 50 47 44 43 39 36 38 37 38 38 38 31 31 32
27 27 24 33 41 49 55 51 28 11 5 22 48 67 71 73 77 79 85 101 100 92 89 87 85 77 72 71 69 59 52 50 47 44 41 42 38 43 38 41 42 41 37 34 34
25 24 20 26 33 38 49 49 26 10 10 31 55 64 65 66 67 71 76 96 99 90 87 86 82 79 77 70 65 57 53 51 47 44 46 43 38 46 43 42 44 44 41 38 39
27 20 13 20 27 35 42 43 18 3 16 39 56 58 59 55 59 62 69 88 94 89 88 84 77 76 69 67 65 60 57 51 48 46 47 45 44 49 47 44 45 45 45 39 43
24 15 7 12 20 30 33 37 13 9 28 45 52 52 50 50 54 57 60 73 86 87 83 82 83 80 77 75 69 63 58 58 50 48 48 48 49 53 51 47 48 49 49 45 45
20 11 6 6 12 21 27 32 13 24 36 44 46 43 38 37 40 46 49 55 74 86 86 85 83 81 79 75 69 64 63 55 52 54 54 52 53 54 52 51 51 51 53 50 49
18 11 7 3 7 14 21 22 19 27 32 39 40 36 33 32 31 33 41 48 56 73 84 87 84 82 79 73 71 68 63 61 60 58 56 57 57 57 55 54 54 54 53 54 52
18 12 10 6 2 6 16 18 18 26 30 31 32 32 34 30 28 30 37 45 49 59 74 84 86 81 77 74 72 70 65 62 61 60 61 60 61 58 58 56 55 54 54 56 59
16 15 11 9 6 2 11 14 10 27 30 30 30 31 29 27 28 30 32 39 46 52 62 73 78 79 76 72 69 68 65 64 65 66 63 61 64 60 58 56 57 55 57 58 59
16 20 16 16 10 7 11 15 10 20 28 30 31 30 27 26 26 28 27 31 38 46 54 62 68 70 71 72 75 73 72 70 68 63 64 61 62 59 56 55 58 59 58 55 56
16 28 23 14 18 9 10 13 12 11 26 31 33 32 31 30 28 27 29 30 33 39 46 53 60 65 68 69 69 68 67 66 64 65 61 64 60 58 57 59 63 60 63 64 61
18 30 32 24 17 17 13 10 15 16 16 32 31 33 34 32 30 29 28 30 33 35 39 44 49 57 62 65 65 67 65 63 64 64 62 63 61 58 57 60 61 64 63 62 57
19 32 36 32 27 19 19 13 17 20 20 17 30 34 32 34 34 34 31 31 32 32 34 37 41 46 51 54 55 54 56 56 59 59 59 58 59 58 59 61 64 65 63 61 63

GFSSW_250_spd_015.txt.gz
Wind_Speed
50 52 53 54 57 60 63 66 64 61 61 69 75 77 82 83 80 82 90 90 84 81 74 68 64 61 57 59 58 59 65 65 66 67 62 64 67 66 66 62 65 66 62 63 62
52 54 54 55 60 63 60 53 52 55 55 60 68 79 84 86 86 82 91 95 90 87 78 71 67 61 57 57 56 55 58 60 60 62 60 64 65 60 59 60 58 56 54 55 57
54 56 55 58 62 54 46 47 51 52 53 60 65 73 82 89 90 89 90 98 97 91 84 74 72 63 57 56 53 52 52 53 53 54 55 55 53 51 50 52 52 51 53 51 48
56 55 59 62 55 45 47 47 51 54 59 63 69 77 76 82 88 94 95 99 102 95 88 77 72 63 57 57 56 53 53 49 46 46 50 47 47 48 48 44 44 45 44 41 40
58 55 60 59 49 46 53 49 52 55 61 70 77 83 75 68 77 95 102 100 106 99 91 81 73 63 58 61 59 53 53 47 44 43 43 42 44 47 46 40 41 38 34 35 38
59 55 59 57 47 52 52 53 52 56 58 72 85 84 77 54 75 89 106 103 107 101 95 83 73 67 64 62 58 56 53 49 45 44 40 34 35 43 33 36 40 37 33 31 33
57 54 57 54 51 56 54 45 51 58 60 69 75 68 52 51 61 80 107 106 104 103 96 87 79 71 64 62 60 55 51 48 47 47 41 36 33 29 29 33 34 36 32 30 31
57 51 55 50 50 57 48 49 57 59 60 64 66 52 41 46 62 77 105 109 102 104 99 91 81 74 68 64 63 55 50 49 47 48 42 36 28 28 31 31 32 29 29 30 32
57 52 54 49 51 46 51 51 57 59 57 55 49 36 42 48 58 79 104 108 100 106 102 95 83 74 68 62 60 54 50 48 48 39 34 32 29 25 28 30 28 28 28 26 26
56 53 55 47 50 43 49 52 62 57 54 44 34 32 41 47 60 83 103 104 101 108 104 94 80 72 66 59 48 54 54 47 47 34 31 30 28 28 27 25 24 24 26 26 28
54 51 54 45 45 43 48 55 63 57 50 41 29 29 40 46 63 86 98 101 101 108 101 91 76 66 61 61 66 60 52 46 41 35 34 29 31 30 28 22 21 20 22 25 28
53 51 52 45 44 45 51 59 64 53 47 37 26 27 37 47 68 91 96 97 99 104 101 90 72 71 71 72 66 59 53 48 41 37 35 31 30 28 27 23 20 20 21 24 26
50 49 49 47 43 45 52 58 59 51 42 31 20 19 31 47 70 92 96 95 97 104 96 83 75 77 70 70 64 59 56 50 42 37 33 34 33 31 29 25 23 21 21 23 26
47 48 48 46 43 45 48 55 57 49 38 28 15 15 28 49 73 90 94 94 98 99 93 85 84 78 72 69 65 61 60 50 41 37 36 36 36 35 31 27 25 27 25 24 27
43 46 44 37 41 42 49 52 54 49 31 21 11 12 28 55 76 86 89 89 97 97 91 86 83 77 72 72 68 65 58 48 41 37 37 39 38 36 30 28 30 31 31 32 32
41 42 41 31 34 39 48 48 53 49 33 22 7 15 36 62 79 82 85 87 96 98 92 88 81 79 79 76 71 66 53 49 44 40 38 35 37 35 33 32 32 34 32 33 35
40 39 40 25 30 36 41 45 51 43 26 21 4 21 44 63 73 76 80 87 97 97 93 91 87 81 79 76 68 58 54 50 46 43 43 37 37 39 35 35 37 36 34 35 38
37 35 36 20 28 35 38 41 42 31 21 10 15 28 47 60 67 71 78 82 91 90 91 84 83 80 74 71 65 61 56 52 49 47 44 39 39 41 38 37 39 40 38 38 40
34 32 30 17 24 32 34 34 29 21 10 8 24 36 47 50 57 65 67 70 85 89 85 83 80 74 70 70 70 59 51 57 54 49 47 43 43 43 42 41 40 42 41 41 42
31 29 25 14 18 25 31 27 21 15 10 18 29 36 39 41 44 55 55 62 81 86 83 81 79 76 72 71 60 60 59 54 52 52 50 47 47 45 43 43 44 45 46 47 45
26 24 20 11 15 20 24 18 13 14 18 24 29 30 32 34 33 41 47 55 73 83 81 78 77 76 74 68 66 68 62 59 58 54 52 52 54 51 48 46 47 48 50 51 52
23 23 18 10 11 12 19 14 8 14 21 25 29 29 31 28 30 35 45 49 63 78 81 79 76 74 72 72 71 70 68 63 59 56 58 58 58 57 52 50 51 53 55 56 56
20 19 17 11 9 9 9 10 8 14 20 23 22 22 24 29 32 36 40 44 52 70 81 81 78 75 73 70 67 65 67 67 68 68 66 62 64 60 57 56 55 56 58 60 59
17 17 16 14 12 3 5 9 10 13 17 21 22 21 20 20 21 26 33 38 43 54 75 83 81 77 73 74 77 75 74 73 70 63 67 63 67 63 60 58 59 61 59 60 59
16 16 14 16 15 6 3 5 4 15 15 18 20 22 23 22 22 22 27 34 39 44 54 70 79 80 79 78 75 75 74 71 67 68 64 70 66 66 63 62 64 63 61 60 60
15 14 14 21 19 13 7 5 1 13 20 18 21 22 22 21 21 24 28 30 36 43 45 51 63 76 80 81 79 78 75 71 69 68 68 71 70 67 64 65 65 62 62 61 61
15 13 15 28 25 20 14 9 7 4 14 23 19 21 21 19 18 17 21 27 32 37 42 46 51 60 68 75 77 75 76 75 74 71 70 68 71 65 65 64 64 62 62 63 65

GFSSW_250_spd_018.txt.gz
Wind_Speed
48 46 46 48 50 49 47 49 52 58 61 61 63 65 66 67 67 70 73 76 82 85 86 79 74 68 65 63 59 58 61 68 80 76 73 70 67 68 70 67 65 61 61 62 62
48 48 46 48 51 51 49 50 59 54 52 54 55 56 58 61 66 70 77 80 80 86 89 86 80 73 67 65 62 58 59 67 66 70 75 73 74 73 70 65 64 62 62 65 64
48 48 49 48 53 51 50 53 53 40 41 45 47 51 52 55 60 66 79 82 85 83 92 89 85 78 70 68 61 57 59 63 58 54 65 70 69 70 70 67 60 61 61 61 61
47 49 50 50 54 53 53 56 46 40 42 43 45 51 53 57 63 66 77 85 88 88 90 92 90 83 73 67 65 62 63 60 57 53 55 61 63 63 64 63 65 62 59 53 53
48 48 50 50 53 54 54 54 42 43 44 47 50 54 59 63 74 73 77 83 91 93 91 95 94 88 78 70 68 64 62 60 55 48 50 50 53 55 59 58 53 51 50 48 48
49 47 52 51 53 53 55 51 42 44 45 49 55 59 64 74 80 79 77 84 88 97 97 96 94 93 85 76 70 66 63 59 52 48 48 46 44 50 51 43 49 47 46 45 44
49 47 52 51 54 52 55 48 40 44 48 55 60 64 67 80 84 86 83 83 88 97 102 100 99 97 89 78 73 67 61 56 51 49 48 42 43 41 37 42 43 43 42 42 39
50 47 51 50 54 53 55 49 42 45 53 58 64 68 67 78 80 84 75 72 85 94 105 107 102 100 91 81 78 68 61 55 53 51 48 42 40 32 36 38 39 40 38 38 36
49 47 51 52 54 52 55 49 44 52 58 65 69 66 59 66 68 69 62 71 87 95 107 111 103 100 95 84 77 68 58 59 57 54 49 47 41 38 35 35 36 35 35 33 32
49 46 50 52 54 51 55 50 47 55 63 66 70 61 53 52 56 53 52 63 85 100 106 112 103 101 96 84 66 62 59 65 62 56 50 45 42 37 34 31 32 32 30 29 30
46 45 49 52 56 52 55 49 50 58 65 70 65 53 45 44 45 45 47 58 71 81 95 107 101 100 88 76 73 68 71 65 62 58 48 45 47 36 34 30 28 28 26 22 20
45 44 48 53 56 51 55 47 55 61 65 70 60 46 39 38 39 39 45 51 59 73 93 106 95 96 88 80 75 75 69 65 57 55 49 45 47 36 34 29 26 26 22 20 16
44 43 46 51 55 51 53 49 56 62 69 68 55 41 31 30 32 36 43 49 61 80 96 98 92 96 88 80 75 70 68 66 59 56 50 46 43 36 34 29 27 27 24 22 15
43 42 44 49 53 53 48 49 58 65 68 61 47 38 27 26 28 34 39 51 65 83 96 91 97 95 87 79 74 71 69 62 58 56 50 46 39 35 33 29 29 30 24 23 21
42 40 42 48 48 52 45 51 56 64 66 52 40 28 22 25 28 34 39 50 66 82 92 91 95 92 82 77 76 76 70 58 59 54 51 46 42 37 34 31 31 29 26 25 26
40 37 39 46 44 44 43 49 56 60 60 48 37 22 13 19 29 33 43 58 79 90 89 94 93 87 84 82 80 75 66 59 60 54 52 47 45 35 34 33 32 30 32 28 27
37 33 37 44 41 39 41 47 55 56 50 44 31 15 7 16 28 38 53 71 86 91 93 100 99 92 87 83 78 71 65 62 58 53 53 46 44 37 36 34 33 32 34 32 31
34 30 34 38 38 35 37 45 48 47 40 33 24 12 8 18 31 47 61 78 86 91 98 98 94 90 84 77 70 68 66 62 56 55 52 46 46 37 33 32 32 33 34 35 34
30 28 31 34 32 32 34 40 41 38 29 23 18 13 19 27 40 53 73 83 85 89 95 96 91 92 83 76 72 69 64 59 59 58 54 49 46 41 36 32 33 34 36 36 37
27 24 28 31 27 29 29 36 31 27 20 16 16 17 27 32 46 60 71 76 79 87 93 94 89 80 79 77 72 70 65 61 59 59 55 51 48 44 41 36 35 36 38 39 40
24 21 25 27 22 24 25 28 21 18 16 16 20 23 29 41 50 57 61 65 71 81 88 87 84 80 79 75 70 67 63 61 60 57 54 53 50 47 44 42 40 39 38 40 43
20 19 22 22 17 18 20 16 13 13 18 21 24 28 31 39 42 45 53 58 64 74 80 81 78 77 76 72 72 70 68 65 58 57 58 60 53 48 47 46 45 46 46 46 48
19 18 19 18 15 15 12 10 6 13 20 23 27 31 31 36 37 47 51 55 62 71 78 78 76 73 70 69 67 63 62 63 64 66 62 59 61 56 52 50 49 49 51 52 53
20 19 17 17 14 10 5 4 6 13 18 19 20 22 25 25 35 41 46 51 60 71 78 79 77 72 70 70 68 65 68 71 70 63 65 63 65 58 55 53 53 56 56 57 58
20 19 17 13 16 12 7 2 12 14 16 19 20 20 25 25 25 30 39 44 51 64 73 75 75 73 71 71 71 70 65 64 61 67 61 67 62 64 60 62 62 62 63 63 64
22 20 17 10 19 18 13 6 15 16 17 18 17 19 20 21 25 32 36 41 45 56 67 74 75 73 71 70 69 68 66 63 63 65 64 68 69 72 66 66 65 65 67 68 68
25 20 17 12 21 19 15 9 9 18 19 19 19 18 17 18 19 21 27 35 40 44 56 70 74 73 72 71 68 65 67 69 68 67 69 67 75 68 68 68 69 69 69 70 71

GFSSW_250_spd_021.txt.gz
Wind_Speed
48 47 49 48 44 46 45 47 49 49 48 50 48 54 59 60 63 63 65 66 65 66 71 75 80 80 77 70 64 65 59 63 61 71 79 76 77 77 76 77 75 74 67 63 64
49 48 50 48 47 47 47 48 49 49 49 50 52 54 56 58 62 64 69 69 67 68 72 72 79 82 80 76 69 67 63 61 68 64 74 76 80 79 77 74 74 70 65 66 66
49 51 50 49 49 47 48 47 50 51 50 50 51 48 46 49 51 51 60 67 72 74 77 78 77 83 83 81 75 70 64 68 64 64 60 65 79 83 80 76 70 68 65 61 61
52 53 52 47 50 48 50 48 50 51 50 49 49 48 45 44 43 41 53 58 64 71 79 82 82 80 85 84 81 73 69 70 66 61 58 59 59 71 77 76 70 67 62 63 67
53 54 54 50 52 49 52 51 51 52 52 51 52 48 42 40 44 43 50 57 60 64 71 83 86 85 83 86 86 78 73 72 69 59 57 58 57 55 62 71 69 68 69 70 68
53 53 53 55 53 53 54 53 52 53 52 51 53 48 44 46 54 53 58 61 65 69 70 74 87 91 87 87 87 83 79 74 69 59 56 57 55 50 54 55 57 61 61 65 61
55 54 55 57 54 55 53 55 53 54 54 54 53 49 46 57 58 60 63 69 74 80 81 79 80 96 92 89 88 87 83 76 68 59 56 56 52 55 48 50 49 52 55 55 56
54 55 56 56 55 55 54 55 54 56 56 57 57 53 50 61 64 71 72 75 81 89 90 85 85 92 95 92 91 89 87 77 67 60 57 53 51 52 39 44 45 45 43 45 47
56 58 56 56 55 54 52 56 55 57 57 58 62 57 58 70 71 73 75 77 80 86 90 86 85 87 101 97 94 94 84 74 69 60 58 52 54 49 39 43 44 42 40 39 39
61 56 53 57 54 53 52 56 56 59 59 64 63 62 65 71 78 81 77 74 80 87 81 72 81 87 103 103 93 87 81 75 70 61 60 56 55 46 40 43 41 39 36 38 36
60 60 58 59 54 54 51 56 57 60 62 67 61 68 70 76 76 75 70 72 79 73 67 70 83 89 97 100 90 91 86 80 74 68 60 58 55 45 44 43 38 36 34 34 34
59 56 56 57 55 55 51 57 58 62 62 64 63 69 75 75 70 65 63 68 65 58 61 70 78 80 98 99 95 92 87 80 77 64 60 61 56 49 46 44 37 34 34 32 31
58 58 56 53 56 54 52 57 60 66 65 59 67 69 74 68 59 61 60 59 53 46 50 59 58 82 98 102 98 94 87 84 73 63 64 60 58 52 47 45 41 36 32 31 28
62 58 53 51 58 53 53 56 62 66 60 58 66 68 70 66 56 48 45 41 39 38 42 41 61 77 93 99 94 91 86 82 72 64 68 62 61 54 46 47 42 38 35 31 27
63 57 53 53 56 53 51 56 60 67 57 60 65 69 66 56 46 40 31 30 31 37 33 49 62 72 93 100 94 90 86 81 71 64 67 64 61 56 50 47 42 41 34 31 28
58 56 51 53 52 48 49 56 59 58 59 63 65 64 54 41 36 30 26 28 31 32 43 51 64 79 93 94 91 91 87 81 71 65 66 66 61 58 51 43 41 38 34 31 31
58 53 49 51 46 44 47 50 57 53 58 61 61 55 43 30 24 20 24 27 28 36 50 59 68 91 99 99 99 95 85 78 65 65 67 63 60 59 48 44 41 37 35 34 35
56 51 47 46 41 40 45 49 47 49 54 55 52 47 33 14 9 16 21 24 33 48 57 68 84 97 95 96 91 84 76 66 60 64 63 64 59 57 49 45 40 37 35 35 33
51 46 47 44 37 37 40 44 39 44 45 46 42 35 22 4 11 15 23 36 45 57 72 86 94 94 94 91 87 80 74 63 64 63 60 61 60 58 49 46 41 38 36 33 33
49 43 45 38 32 33 36 31 32 36 36 35 33 23 10 8 19 23 37 52 62 73 84 85 86 91 98 94 84 75 72 66 67 64 63 64 61 54 49 45 41 38 34 32 33
47 43 40 34 28 29 31 22 25 26 27 25 24 17 8 19 33 43 52 72 81 85 88 88 87 84 80 78 75 70 65 68 66 62 64 66 60 53 48 45 41 39 36 36 35
42 41 34 27 23 25 22 16 17 18 17 18 19 14 13 19 40 56 72 81 85 85 87 92 91 88 84 77 74 72 72 71 69 65 64 64 57 54 49 47 45 44 40 39 40
43 39 32 25 21 21 14 11 8 10 10 13 17 17 19 28 41 58 69 72 77 82 85 87 89 88 81 75 72 68 68 68 66 63 64 63 57 55 53 49 47 43 42 43 45
41 36 30 22 20 19 11 8 2 3 9 13 14 15 24 31 34 42 50 54 62 70 73 77 79 81 80 77 74 72 72 71 68 66 63 60 55 55 52 48 45 45 48 49 51
39 36 27 22 18 16 12 8 4 7 12 12 13 13 17 24 28 38 43 47 53 58 64 70 73 72 70 70 73 74 72 66 62 65 59 60 56 56 50 49 52 53 55 56 58
40 35 27 22 19 16 17 13 9 14 15 15 14 13 18 21 30 37 40 47 54 58 62 68 70 70 70 68 67 66 64 58 59 59 60 62 61 63 61 61 58 60 61 64 65
41 33 27 23 19 19 21 18 14 19 18 18 17 16 17 18 23 26 35 42 49 58 63 68 69 70 70 66 64 63 62 62 64 62 63 63 69 64 62 62 63 65 66 67 68

GFSSW_250_spd_024.txt.gz
Wind_Speed
60 59 56 53 53 50 52 52 51 47 47 47 48 48 48 47 48 50 55 58 61 62 64 64 66 68 75 77 79 75 70 65 63 65 62 77 82 80 79 80 75 74 74 65 70
61 60 59 55 55 53 53 52 56 48 47 47 46 49 49 50 49 51 62 62 67 65 67 67 67 69 70 76 80 79 73 70 70 67 63 62 68 79 81 81 80 77 75 68 72
63 61 59 55 54 56 57 53 55 50 47 45 48 49 51 50 49 48 54 57 62 68 70 69 70 70 69 70 79 82 75 76 73 70 65 56 58 74 77 80 81 78 73 72 73
64 64 62 58 55 58 58 57 55 55 47 48 48 51 53 51 49 50 52 55 56 61 67 72 73 72 72 72 74 81 81 79 76 72 64 58 59 58 66 79 78 78 76 69 71
70 66 62 62 60 57 59 58 57 55 52 51 50 52 54 51 60 49 50 52 55 57 60 65 72 75 77 76 76 76 82 82 80 74 66 62 57 60 59 63 73 75 74 72 70
74 71 70 65 63 59 59 59 57 57 56 53 54 54 54 54 57 52 53 53 52 49 52 55 60 73 77 80 78 76 80 84 83 76 70 62 59 58 61 58 60 70 75 80 79
78 79 78 71 67 64 61 62 58 59 59 55 56 55 54 62 58 58 53 58 54 53 51 52 54 61 73 81 84 82 80 85 82 77 71 65 58 57 62 55 50 47 55 69 73
82 80 74 74 70 66 62 61 61 62 61 56 58 57 54 63 59 63 62 57 58 59 59 62 63 64 64 76 84 88 85 80 80 80 72 67 59 63 60 50 47 46 47 46 51
80 81 76 72 68 64 61 62 61 63 63 58 59 59 57 64 65 65 65 61 61 63 66 69 72 72 72 70 79 90 83 77 83 80 75 68 62 64 59 47 47 46 48 45 47
85 82 79 75 71 63 62 65 59 66 67 61 62 61 62 66 67 70 66 64 66 69 73 77 81 83 82 79 74 79 88 83 82 81 78 71 64 64 57 46 48 48 47 43 41
85 84 79 76 75 68 64 60 64 63 63 62 63 66 65 71 72 70 66 67 72 75 81 86 88 81 82 82 77 84 94 91 85 83 82 73 68 65 56 47 47 47 43 39 36
68 79 81 76 73 70 62 63 64 64 60 62 69 67 73 71 70 69 72 74 79 79 83 83 75 71 81 77 71 82 93 96 87 84 86 77 68 63 56 49 49 46 40 36 36
58 64 73 68 71 68 65 62 66 66 60 58 70 71 76 72 69 75 77 76 78 75 76 78 67 69 67 66 69 77 90 94 86 90 85 75 67 64 56 53 49 45 40 36 35
60 60 67 66 67 64 63 62 64 66 61 61 67 73 76 72 70 77 74 74 72 71 76 62 59 60 59 61 67 79 86 94 89 91 81 74 68 67 54 53 46 44 40 38 35
64 59 65 67 63 59 61 60 61 67 62 62 66 73 71 72 71 69 70 69 67 61 55 52 53 49 55 54 64 79 86 94 91 90 85 74 68 66 55 54 51 46 43 39 36
68 60 63 64 60 56 59 54 62 64 63 61 68 66 67 68 66 62 60 61 53 44 41 41 40 41 46 60 73 84 85 90 89 88 82 70 67 69 56 57 55 48 45 42 39
66 60 60 58 54 57 52 54 60 61 59 62 64 61 65 65 60 54 50 41 32 31 29 28 33 39 48 67 86 87 91 95 99 91 77 73 71 67 60 57 54 50 44 43 41
63 57 54 51 51 49 45 52 56 55 56 59 56 59 61 60 50 40 29 19 18 18 19 24 31 40 54 68 84 94 99 100 84 82 73 68 67 63 58 57 52 48 45 44 44
56 51 51 48 49 44 43 51 49 51 52 49 49 52 54 47 36 21 12 11 15 17 22 30 42 54 70 80 79 83 91 88 84 82 76 70 71 66 62 58 50 47 46 46 42
51 50 51 45 43 42 43 45 43 44 42 39 42 44 45 34 20 12 11 14 17 22 31 44 61 74 81 83 81 85 83 79 78 76 70 70 70 66 63 57 53 51 47 45 42
50 48 49 42 37 38 40 39 36 36 32 30 34 38 36 26 12 9 21 25 27 39 50 60 75 78 79 77 75 84 85 80 80 73 72 68 68 64 61 58 55 53 49 46 40
48 52 48 39 36 35 33 32 29 25 21 21 29 30 26 16 6 22 32 39 50 60 65 68 77 78 82 82 81 87 82 81 76 72 70 67 62 63 60 58 56 53 50 43 38
54 54 44 38 35 32 29 24 21 16 13 15 22 22 16 6 13 38 45 50 61 66 69 70 69 74 80 83 80 78 78 77 71 71 69 62 59 60 58 57 55 53 48 43 41
56 48 41 37 33 28 24 20 15 10 5 10 15 16 10 5 21 40 54 55 62 68 72 70 72 74 78 78 78 79 76 69 66 66 64 61 57 59 57 56 54 52 49 45 44
52 48 43 37 32 26 21 18 12 8 2 5 11 13 8 9 17 37 52 57 59 62 68 67 68 74 75 69 71 72 69 66 64 65 60 58 57 57 57 54 53 51 49 47 48
54 49 44 36 31 26 20 19 12 11 8 7 7 12 7 10 20 21 41 57 60 62 69 70 71 71 70 72 69 66 63 62 62 61 60 55 53 53 55 56 57 49 50 52 54
55 51 43 36 29 26 20 21 16 15 13 11 10 11 13 11 14 25 28 35 47 53 58 57 57 69 71 71 70 66 64 64 64 60 60 56 58 50 52 54 54 54 55 56 56

GFSSW_250_spd_027.txt.gz
Wind_Speed
76 73 70 69 62 55 50 53 51 50 51 52 51 49 50 49 51 49 52 45 46 51 52 53 55 58 59 65 69 73 71 71 72 71 74 64 70 69 80 83 81 83 80 73 72
79 75 74 70 65 59 53 54 55 52 51 54 53 51 50 49 48 51 52 47 45 48 53 56 56 58 62 65 65 68 71 74 80 76 72 67 63 66 68 78 83 82 83 72 75
80 78 75 71 67 62 57 58 55 54 53 55 54 52 51 50 47 52 54 47 44 49 52 56 61 64 67 66 66 67 66 76 80 80 77 69 59 64 66 68 76 81 80 76 75
80 78 77 73 67 62 61 59 59 59 58 58 57 57 53 53 53 52 53 50 47 49 49 53 54 59 64 70 69 68 68 73 80 81 79 71 66 61 64 64 67 78 79 75 79
80 79 78 71 68 63 63 60 60 59 57 58 60 59 55 54 56 50 55 56 50 49 50 51 51 51 56 65 73 69 71 70 75 80 81 76 68 69 62 65 62 68 70 77 79
77 78 76 72 69 69 69 66 67 65 65 61 58 58 60 61 52 51 56 58 55 54 52 50 52 50 51 57 64 74 73 71 71 76 80 77 73 70 65 64 59 59 59 67 80
72 74 74 72 70 67 67 68 70 67 70 68 60 57 65 62 58 58 54 58 57 57 56 54 53 52 51 52 57 63 72 72 71 72 78 80 73 69 71 63 61 55 47 48 61
72 72 73 71 71 70 73 73 70 71 69 67 58 55 66 64 60 60 57 61 60 59 61 58 57 54 49 50 52 56 64 71 74 75 75 82 72 74 74 64 60 54 50 49 51
70 72 73 71 72 73 75 75 75 75 72 62 58 58 61 64 64 63 62 62 62 62 63 65 60 53 49 47 47 48 50 65 73 77 78 80 75 78 77 67 61 54 49 46 48
57 67 74 75 76 76 76 76 72 67 66 63 59 58 65 69 67 64 63 66 65 65 67 69 60 54 53 52 51 60 61 68 69 78 84 78 75 80 80 69 61 55 52 45 44
44 51 62 65 68 75 76 76 73 72 67 66 64 63 67 70 68 68 67 69 71 70 73 71 57 51 64 66 68 68 66 66 66 75 86 78 77 80 82 71 64 56 52 45 44
49 50 49 49 52 71 82 84 77 76 70 66 64 63 72 67 70 73 73 74 75 76 78 68 52 68 76 77 76 76 73 67 69 75 89 85 79 84 82 70 65 56 52 45 45
57 55 56 54 54 56 57 61 75 75 67 61 69 70 73 72 67 77 76 79 80 82 81 73 69 81 83 85 82 80 73 73 70 79 89 88 83 85 78 69 66 57 54 43 45
65 63 60 60 56 56 57 55 58 67 63 58 65 71 73 71 69 75 77 82 84 86 86 82 86 87 88 84 84 81 80 81 74 79 88 94 83 83 76 73 65 57 50 42 45
72 71 66 63 60 60 55 56 54 56 52 54 61 65 68 71 70 77 82 87 92 88 91 87 86 88 85 77 83 73 79 77 76 77 87 93 83 81 80 72 60 58 48 46 44
78 75 73 67 64 61 57 56 50 49 50 51 56 60 66 69 74 79 86 88 87 87 84 79 77 76 75 73 69 66 69 71 74 79 90 90 80 83 77 68 61 58 47 46 47
83 79 75 71 68 61 57 54 43 47 52 49 53 57 64 69 78 83 79 80 74 69 62 54 51 48 48 50 52 51 64 64 69 78 76 85 81 82 77 68 63 56 50 49 50
85 81 76 71 64 61 55 45 40 49 46 45 48 56 64 70 76 72 70 63 51 40 36 31 31 34 36 40 43 52 66 61 60 72 80 83 82 80 75 68 61 55 51 51 51
71 75 70 67 62 57 47 35 42 39 41 43 48 56 62 66 62 62 54 42 30 27 22 20 22 23 25 27 33 44 49 64 72 80 86 82 79 84 73 66 61 56 55 55 53
58 62 57 60 54 45 34 35 36 33 36 40 49 53 55 53 53 50 36 27 23 18 14 13 15 19 24 32 45 55 61 69 75 78 80 79 83 79 71 65 61 58 58 55 52
53 49 48 51 43 35 32 38 30 32 32 38 46 45 42 47 42 32 23 15 10 9 7 11 17 29 39 44 52 56 67 71 71 69 79 79 78 74 67 64 62 60 59 55 51
45 44 48 43 36 37 36 31 30 26 30 36 35 32 37 40 31 22 6 9 16 28 47 47 48 60 61 62 57 66 59 53 60 72 78 75 77 70 66 64 61 60 58 54 50
42 45 43 41 43 38 34 30 23 24 28 28 22 25 30 29 21 10 16 27 37 48 58 58 59 62 69 65 56 51 49 53 74 76 74 74 73 69 64 62 60 59 56 51 49
42 43 44 49 45 39 32 25 22 23 23 15 15 18 23 20 18 12 24 38 49 52 55 57 59 50 43 53 48 33 47 60 66 73 71 72 70 67 63 62 60 58 56 52 51
42 44 53 51 47 38 31 25 21 21 14 9 10 13 17 21 15 7 28 41 51 53 55 54 56 45 43 52 57 51 58 69 68 72 72 69 67 64 62 60 58 56 56 54 54
48 55 57 51 43 37 31 24 21 16 12 6 4 11 18 19 16 8 8 29 49 51 54 55 54 54 53 52 53 59 67 70 71 72 71 70 65 60 57 56 55 54 54 53 54
56 59 56 49 43 35 28 23 20 16 15 10 3 8 13 11 7 3 18 26 42 47 53 56 56 53 53 57 60 62 67 67 68 65 60 60 60 56 53 51 50 51 51 54 56

GFSSW_250_spd_030.txt.gz
Wind_Speed
80 87 88 88 82 77 75 69 61 57 53 49 47 46 47 47 47 49 46 47 49 52 52 52 50 48 46 51 51 54 54 63 72 77 82 72 69 65 67 72 79 80 81 84 80
69 76 85 85 83 79 76 71 64 61 53 49 49 45 49 49 52 51 48 45 48 52 52 53 50 46 47 50 49 51 50 58 70 75 80 74 68 67 69 69 76 78 76 82 79
63 70 79 79 83 80 76 74 67 65 57 52 51 49 50 52 53 56 48 47 48 53 52 53 51 47 47 48 50 49 49 59 64 71 76 77 73 71 70 72 68 74 75 77 79
60 70 76 76 80 79 77 74 71 68 61 56 53 52 55 54 52 54 54 53 48 51 53 52 52 50 46 47 52 50 55 60 66 67 71 75 74 74 74 75 71 68 70 73 74
59 68 72 76 77 79 79 76 74 71 64 57 55 55 57 55 50 55 58 54 51 48 54 57 54 52 47 46 48 47 53 61 70 68 68 73 73 75 76 78 72 68 64 66 69
55 66 69 71 75 78 78 76 73 73 68 62 56 56 61 62 59 57 60 61 56 52 52 53 55 52 48 46 45 46 45 54 65 72 71 71 72 74 78 82 75 70 64 61 62
53 58 70 68 69 71 75 76 74 73 72 63 61 61 65 63 63 61 61 64 63 55 53 53 52 51 50 50 46 46 45 50 59 71 74 74 68 70 81 84 79 72 69 59 57
49 57 61 67 67 70 73 75 76 75 72 68 63 61 65 64 66 63 62 66 61 59 57 54 53 53 51 51 49 47 48 49 51 61 74 75 64 70 78 82 79 76 70 64 56
40 53 59 65 66 70 69 69 71 72 69 65 62 62 69 71 70 66 62 64 66 61 58 57 54 56 56 54 53 51 51 50 51 57 67 78 70 72 73 80 80 79 73 65 57
36 42 56 64 67 70 72 69 69 67 65 64 65 66 68 68 71 66 63 63 64 63 62 60 57 57 58 62 59 60 56 56 55 62 65 72 71 76 75 78 81 79 75 64 60
44 40 42 54 65 69 71 73 73 68 67 66 66 69 70 73 72 72 69 66 66 66 66 66 60 61 67 69 66 65 62 56 58 61 65 63 69 75 77 75 77 77 75 67 62
51 49 46 44 47 57 65 68 68 68 69 71 74 74 76 71 74 77 70 67 68 69 69 68 65 69 73 73 70 69 67 57 63 66 67 67 64 74 77 76 76 77 74 69 63
58 56 53 50 47 49 50 52 54 53 59 63 71 71 76 78 78 81 77 74 72 70 72 72 71 74 76 77 76 74 73 65 65 72 67 70 68 74 76 80 75 74 73 68 63
60 62 59 55 53 55 54 49 48 48 48 50 57 62 69 78 82 81 77 76 72 73 75 71 77 80 81 78 84 81 79 75 76 76 70 74 67 74 78 81 75 75 75 68 62
61 65 63 61 57 57 56 54 51 52 46 53 58 62 65 65 71 77 75 73 74 76 75 76 80 85 84 89 97 87 89 85 84 83 81 73 72 69 76 79 74 74 75 66 61
62 69 66 62 65 64 61 58 55 54 49 52 57 56 58 59 64 65 68 70 74 76 76 81 86 88 90 95 94 91 93 92 90 89 78 69 66 63 77 76 78 76 75 67 61
74 73 68 67 71 66 62 59 56 53 56 54 53 53 52 54 57 60 63 70 73 77 82 83 84 85 85 85 83 83 86 88 90 81 39 71 63 50 72 81 81 76 77 69 62
80 78 75 74 74 71 66 61 51 55 59 54 48 49 49 50 53 56 62 65 71 76 78 81 77 61 54 56 59 63 65 67 66 50 53 73 51 46 70 85 82 76 77 70 61
75 70 82 76 76 74 70 58 55 56 58 45 44 41 45 45 49 55 59 67 69 74 70 54 44 42 39 37 39 43 45 56 51 58 66 63 46 65 78 82 81 74 73 66 61
60 60 71 79 75 75 70 58 55 56 48 40 38 35 39 41 48 53 59 63 66 49 33 27 29 26 25 25 27 30 32 35 39 47 49 47 64 70 80 79 76 73 73 67 61
50 55 62 64 62 62 56 57 57 52 36 36 31 32 33 40 48 50 55 50 32 22 13 11 9 2 6 10 15 21 23 29 42 54 52 53 60 75 73 82 77 77 72 65 59
50 51 48 42 40 47 52 56 53 36 34 31 25 26 31 41 39 44 36 21 15 11 16 22 38 32 26 20 15 17 26 39 48 47 48 53 66 69 75 77 76 76 70 63 57
41 42 38 36 38 46 52 55 39 35 33 22 24 23 30 29 29 28 24 17 21 31 36 44 46 37 37 42 32 36 34 35 45 56 56 58 68 70 73 73 73 70 64 59 57
38 37 33 35 41 48 53 41 40 35 24 23 18 21 20 19 13 18 19 23 41 40 45 40 45 41 45 50 44 35 38 38 43 52 58 64 73 73 70 73 71 65 60 57 54
33 34 37 41 48 51 45 44 37 26 22 15 17 12 15 10 8 14 18 31 44 47 40 30 42 43 46 48 41 42 47 46 41 51 57 64 70 70 72 72 66 61 58 56 55
35 42 47 50 48 49 48 39 30 26 18 16 12 10 9 11 13 13 21 39 48 46 32 35 46 36 42 47 37 32 36 26 25 49 57 63 66 68 69 67 63 60 58 57 55
46 52 51 52 56 53 44 36 31 23 17 18 13 9 8 9 10 4 15 32 47 49 36 24 38 34 35 28 44 42 39 44 22 47 58 64 66 68 67 63 58 55 54 53 52

GFSSW_250_spd_033.txt.gz
Wind_Speed
80 76 76 76 75 75 76 77 81 81 75 72 67 59 55 56 54 53 50 46 49 47 45 44 45 46 46 49 48 47 45 50 57 63 72 71 69 70 68 67 67 68 74 81 81
71 80 80 78 79 82 86 85 84 84 80 73 72 64 57 55 53 53 49 50 46 49 46 46 44 45 46 48 48 47 45 51 58 61 68 65 64 71 71 71 69 66 67 72 80
65 76 77 77 84 91 93 97 89 86 82 77 76 68 61 58 54 53 50 49 46 47 46 45 45 43 45 47 49 47 45 52 57 59 63 63 61 67 74 77 78 72 66 65 68
62 62 68 70 72 76 79 86 95 90 81 80 78 72 64 61 59 54 52 52 50 49 43 45 47 47 46 47 49 46 50 52 56 58 60 62 62 64 71 80 83 76 69 66 66
60 58 59 60 64 67 73 75 78 87 87 82 79 75 67 67 58 58 57 55 51 51 51 48 45 46 47 47 51 47 53 54 56 57 58 60 60 63 66 76 82 82 71 69 68
56 54 51 53 58 63 68 71 74 77 79 80 79 77 71 68 65 60 59 60 55 56 57 56 54 48 46 48 50 52 52 54 54 58 59 59 61 61 65 72 78 82 78 73 69
52 51 47 49 56 64 67 69 72 75 77 78 77 76 73 70 71 67 63 59 59 61 59 59 57 54 49 52 50 50 54 55 53 55 56 58 56 59 70 72 73 79 79 77 73
49 49 44 47 55 64 68 70 70 71 73 76 75 76 76 72 71 72 67 64 62 63 63 62 60 58 53 52 51 52 52 54 56 56 55 59 39 57 71 73 70 74 77 76 74
49 47 43 44 54 65 69 70 70 72 71 72 72 77 78 75 71 73 72 69 67 65 65 65 63 62 60 57 53 52 52 56 57 59 59 55 41 55 66 74 72 72 74 77 73
51 47 45 40 51 62 67 71 70 69 68 69 72 74 73 74 73 71 72 70 69 67 67 67 66 63 61 62 60 61 57 57 57 59 60 53 47 50 56 68 74 73 70 73 73
53 52 47 44 44 56 65 68 71 68 63 63 64 70 71 72 72 71 71 70 71 73 74 74 68 66 67 69 66 63 61 58 60 61 64 56 51 50 53 59 72 74 69 68 72
53 56 54 49 45 45 58 65 71 70 68 66 67 70 70 69 69 70 72 74 74 74 75 76 71 71 72 71 70 68 66 64 65 68 67 65 52 52 53 57 64 72 70 65 68
51 54 58 56 52 44 46 58 62 67 68 68 68 68 70 67 70 75 74 76 80 81 83 84 76 76 75 75 75 73 71 72 71 75 72 67 56 53 54 60 61 67 72 66 63
55 54 58 63 54 51 51 47 47 56 59 65 66 67 70 68 68 72 71 75 74 77 83 82 83 83 82 80 82 78 78 79 78 78 76 71 57 54 52 59 60 61 69 69 63
61 58 59 59 59 59 65 47 45 46 39 49 54 58 62 61 61 63 63 65 70 73 74 77 85 89 85 85 87 81 84 83 83 82 82 73 68 51 49 58 61 61 66 71 66
69 65 62 59 58 66 64 56 53 51 42 45 50 53 53 52 54 60 65 66 69 68 66 70 77 83 84 87 87 87 88 89 89 89 85 77 67 47 49 53 63 66 68 73 69
68 75 62 60 61 66 64 60 58 48 47 50 53 54 53 53 55 58 62 65 65 63 64 65 72 73 74 79 84 86 90 94 98 97 75 84 77 42 52 57 60 63 68 72 70
62 64 71 69 67 64 63 59 53 51 52 54 54 52 53 54 55 59 61 63 60 60 60 62 67 73 78 84 86 90 94 94 96 93 83 97 77 48 61 69 67 61 63 67 69
56 61 73 69 68 71 63 60 57 59 59 59 54 49 51 52 55 57 57 53 52 53 57 66 74 76 74 70 64 62 60 65 63 65 75 77 62 60 66 75 68 61 59 65 71
52 55 60 69 69 73 67 60 60 60 60 56 49 47 50 49 53 52 46 43 48 56 64 67 69 64 51 43 43 40 40 45 47 51 45 43 52 51 66 74 68 62 59 67 73
45 47 56 69 59 67 65 65 66 66 61 51 48 46 45 49 48 38 38 40 54 40 42 56 48 41 35 22 23 22 25 29 30 32 35 47 54 66 69 74 65 66 67 73 77
38 45 48 61 56 60 63 73 71 67 60 52 47 42 44 45 32 30 38 43 40 49 45 42 33 16 23 20 13 8 8 11 18 25 43 54 68 66 61 63 63 67 69 73 76
36 39 38 51 53 56 65 73 71 67 59 52 44 41 38 27 24 32 40 38 34 29 24 15 8 23 28 31 25 21 13 6 3 12 33 62 68 56 59 64 63 66 65 70 73
33 34 39 40 42 37 44 58 66 61 54 46 41 34 24 16 23 34 35 28 23 19 18 25 31 26 30 27 30 27 25 15 12 17 35 53 60 65 60 53 62 64 66 70 72
30 29 30 30 33 36 43 46 53 52 42 38 34 25 18 13 28 23 21 26 22 20 28 34 35 31 40 40 38 24 31 28 29 28 34 41 45 46 49 54 59 64 68 67 68
27 31 35 42 43 42 44 41 41 42 41 38 29 18 18 24 18 6 23 22 28 29 36 34 26 32 43 36 32 29 22 18 28 29 19 30 35 43 47 51 59 62 66 69 68
37 39 36 33 33 37 40 44 46 46 41 32 22 22 15 20 15 13 30 23 14 23 35 23 33 31 38 35 32 27 11 17 17 15 22 24 37 43 47 53 59 63 65 66 63

GFSSW_250_spd_036.txt.gz
Wind_Speed
70 72 74 74 82 85 81 80 77 79 82 79 77 74 72 71 70 63 60 53 56 55 51 49 49 50 50 51 52 52 47 49 54 57 63 61 61 64 66 66 64 63 65 67 75
66 68 69 71 71 79 86 81 76 74 74 79 83 79 76 74 73 71 57 57 57 56 51 50 49 49 49 50 48 46 45 51 56 57 58 56 53 58 63 67 69 68 67 65 65
62 63 61 64 68 72 82 84 81 77 72 74 75 77 77 81 76 73 65 57 57 55 54 50 48 48 50 51 50 45 44 51 55 58 58 55 51 50 58 63 70 72 68 67 66
58 59 58 61 62 67 75 83 81 78 78 76 73 75 76 76 79 75 70 63 59 56 54 51 47 47 47 48 49 46 45 51 52 55 55 55 52 49 55 62 67 69 71 71 71
53 52 54 55 58 62 67 76 79 79 79 80 83 81 83 79 79 78 76 70 62 60 55 52 50 48 48 45 45 48 52 50 52 54 55 55 53 51 51 62 65 67 68 72 74
48 48 51 52 56 60 63 67 73 79 82 84 85 87 88 83 81 80 75 75 66 62 60 56 54 52 52 54 51 47 51 53 53 55 56 54 55 49 54 57 63 66 67 70 73
43 45 49 51 56 58 60 62 68 78 86 90 92 92 92 87 84 80 77 78 71 66 65 60 57 58 57 58 56 56 50 52 55 57 58 61 51 51 60 56 57 63 65 68 70
41 44 48 51 54 55 58 59 59 68 74 77 80 84 83 85 88 83 78 78 75 70 67 65 60 59 60 62 60 58 55 56 60 61 60 62 50 59 59 58 55 59 62 67 70
41 44 49 50 52 52 52 51 53 62 68 71 75 78 78 80 84 86 84 79 78 74 71 69 67 64 63 64 66 67 63 60 58 62 63 59 51 60 61 57 54 55 58 63 67
39 45 49 51 51 50 48 45 50 58 65 69 75 76 74 75 75 75 78 77 76 74 71 71 70 68 69 73 71 71 67 64 62 65 65 61 53 57 61 58 53 53 50 58 64
43 43 49 52 54 51 46 43 46 56 66 71 73 73 73 72 73 74 74 74 74 73 75 74 72 71 77 77 76 73 72 71 69 68 68 66 59 55 59 57 54 51 47 51 58
47 47 48 52 55 53 48 41 44 57 66 70 72 73 71 71 71 72 74 73 72 74 74 74 73 76 80 80 79 79 78 78 75 75 74 71 60 58 57 55 54 49 46 47 54
55 52 52 52 56 54 51 47 40 53 66 69 72 72 71 69 68 69 69 68 69 70 74 76 78 77 78 78 81 84 87 85 83 82 79 75 63 64 59 56 55 50 48 48 48
64 61 56 57 55 54 55 51 46 46 56 66 71 71 69 67 65 67 63 64 66 70 74 74 76 79 82 84 90 90 93 92 89 85 82 83 64 63 60 56 52 51 51 48 48
62 67 65 65 54 52 61 60 51 45 42 60 62 67 67 66 65 67 67 67 69 73 73 73 77 82 81 82 84 83 85 88 89 88 87 80 72 57 63 59 53 53 51 49 50
52 60 69 68 58 55 66 62 53 50 38 42 55 64 66 65 67 67 66 64 66 68 67 67 66 69 75 81 82 83 83 84 85 85 77 79 77 56 62 64 61 59 54 53 54
43 50 62 70 61 61 66 64 59 51 43 37 43 52 54 56 57 57 56 55 55 54 56 60 66 71 76 79 76 69 71 72 75 79 65 76 83 53 64 64 68 63 57 53 56
38 44 56 63 66 67 64 64 57 51 49 44 42 41 40 40 41 44 45 49 52 56 59 61 67 72 65 65 68 67 70 74 77 75 67 79 70 53 68 72 73 70 61 55 55
35 41 47 54 68 70 68 61 55 55 56 52 48 44 40 41 42 44 48 50 53 55 59 61 60 55 62 71 73 71 67 72 74 74 74 77 68 63 68 70 77 78 68 56 57
31 38 45 53 65 75 68 58 56 58 60 57 53 46 43 42 43 43 47 51 50 53 56 53 51 58 61 53 58 61 58 57 54 51 57 53 49 57 74 85 85 84 71 66 59
28 37 43 52 60 65 62 60 57 58 58 52 48 47 44 42 41 44 49 48 52 47 49 50 55 50 46 56 54 50 42 45 48 47 44 42 39 52 74 89 93 88 74 64 62
23 33 39 46 51 57 67 64 62 59 55 53 48 43 42 38 42 44 46 49 45 39 46 48 45 40 48 50 27 17 21 27 31 31 30 29 45 61 71 81 90 90 78 65 60
22 30 35 43 46 52 59 67 65 59 56 48 44 42 40 40 43 43 45 38 38 39 33 27 21 21 12 11 18 19 22 16 11 14 20 31 41 54 67 78 85 83 71 63 64
19 25 29 33 36 41 51 65 65 62 56 50 46 45 42 42 40 44 35 32 36 25 23 25 14 5 9 9 20 32 27 23 11 4 7 11 28 46 62 72 78 70 63 61 58
18 23 27 30 31 34 41 51 61 57 54 48 47 45 42 42 41 35 26 34 21 22 23 16 9 13 25 26 27 32 29 24 24 17 9 11 20 42 60 67 62 57 49 47 54
19 21 26 29 30 33 39 47 55 57 56 52 49 44 43 41 33 27 28 24 21 20 20 17 19 17 19 21 17 26 27 29 27 18 11 7 10 31 40 41 46 45 46 51 55
17 22 26 25 27 29 33 37 42 51 57 55 49 43 42 32 32 26 25 22 25 24 19 27 24 18 15 16 25 16 20 26 26 29 17 13 19 24 28 32 36 42 49 52 53

GFSSW_250_spd_039.txt.gz
Wind_Speed
67 68 70 72 74 77 77 82 85 84 83 82 83 80 80 75 73 74 71 69 70 67 65 67 64 61 58 59 58 56 51 54 59 60 61 60 60 60 62 64 64 66 68 68 69
63 68 70 72 73 76 78 78 84 88 86 85 84 85 82 78 75 74 72 70 69 70 65 63 63 61 55 55 52 51 49 54 57 58 59 58 58 58 57 60 63 67 70 70 70
60 64 68 69 72 75 76 79 79 84 89 86 85 83 86 82 78 79 72 71 70 68 65 62 58 57 56 53 49 48 50 51 53 54 55 58 58 55 53 52 58 61 67 70 72
54 59 64 64 67 70 73 76 76 77 81 90 86 82 79 82 83 80 75 74 73 69 68 62 58 54 55 50 47 47 52 52 54 54 55 57 58 55 53 55 56 56 59 64 71
46 50 57 61 63 63 66 68 70 72 75 78 88 83 80 78 77 82 83 80 76 75 75 67 63 57 56 54 49 44 48 49 52 55 56 57 55 56 51 55 57 56 54 58 63
42 42 46 52 55 58 59 63 66 68 72 74 81 87 83 78 76 77 78 77 80 76 74 74 71 62 58 56 50 49 48 48 50 51 52 55 56 49 55 59 58 57 54 54 57
41 40 40 45 50 55 58 60 62 66 69 71 75 83 85 81 79 78 78 75 75 75 72 72 72 69 62 62 56 52 51 53 56 59 52 53 50 50 60 56 56 56 57 54 54
43 42 38 39 46 52 56 56 57 57 56 61 67 79 84 81 80 80 81 81 79 77 76 73 73 72 69 63 62 60 57 58 61 61 58 54 45 56 59 55 54 57 54 53 51
43 43 42 37 42 50 52 52 53 54 54 54 58 70 79 81 80 82 82 83 84 83 80 79 78 74 71 68 67 64 59 59 63 66 65 59 48 55 59 58 55 53 54 55 55
46 46 46 42 40 47 50 52 52 52 52 54 61 65 68 76 81 84 86 87 87 87 86 84 77 73 74 74 69 68 69 65 65 69 71 69 56 58 59 58 57 55 54 56 58
49 50 50 50 45 46 49 52 53 52 55 57 62 66 75 83 88 90 91 92 92 89 86 82 78 75 75 76 76 76 73 69 70 74 74 74 66 60 61 59 59 58 56 55 58
64 55 56 56 52 48 49 55 58 54 54 53 57 60 66 72 80 84 86 87 86 83 78 77 79 80 81 81 80 78 76 76 77 81 80 75 67 69 68 62 60 63 60 57 58
54 56 59 62 58 51 48 60 58 56 52 49 50 50 56 62 68 74 77 78 77 74 74 74 76 77 78 78 77 80 82 84 84 85 84 84 73 75 74 70 69 64 64 62 59
46 48 52 64 62 57 51 59 61 57 52 46 44 46 51 59 65 71 72 73 72 71 71 70 72 71 72 74 81 82 84 87 88 89 88 91 78 76 78 77 72 69 69 66 62
41 42 48 55 66 60 54 59 60 61 51 46 38 45 53 58 65 68 67 63 63 65 67 67 67 68 71 78 81 82 84 89 93 96 94 90 93 78 82 80 79 75 75 72 68
36 37 42 48 64 63 58 59 57 55 50 40 36 42 51 58 64 63 64 63 65 65 64 65 67 69 74 77 80 82 86 88 90 93 83 86 90 65 77 79 82 79 78 74 71
30 33 38 43 61 64 64 63 53 48 48 42 35 39 49 56 61 61 61 61 63 63 63 63 65 68 73 75 74 69 74 81 84 87 79 86 87 67 75 77 81 83 80 76 73
24 28 35 45 53 65 67 63 51 50 50 46 39 34 41 50 57 59 61 62 62 60 60 61 65 68 61 60 66 72 78 85 79 77 72 79 72 65 67 73 79 83 86 82 78
19 24 35 44 50 62 68 60 49 53 54 51 44 36 32 40 47 51 54 54 53 51 49 50 50 54 57 63 67 72 71 76 77 75 71 68 69 70 70 72 74 82 90 83 76
16 24 35 42 47 59 65 58 52 57 57 53 48 40 33 29 31 34 38 43 39 40 42 41 46 55 57 63 59 62 59 59 68 63 64 53 52 63 67 70 74 87 87 86 78
14 21 31 41 44 48 54 56 57 59 57 54 50 45 38 32 30 31 35 32 34 39 38 39 49 55 53 54 50 45 51 56 56 51 54 46 39 56 55 64 79 81 85 87 79
9 17 29 33 33 40 48 61 61 58 56 54 52 47 40 37 34 35 35 32 37 37 37 40 49 47 47 38 36 36 39 44 46 45 38 42 43 38 45 55 74 81 84 86 77
6 16 26 32 35 39 50 63 61 57 56 54 50 46 42 40 40 38 37 36 39 36 37 42 39 33 27 27 31 27 29 38 37 42 39 38 36 30 33 44 56 78 83 83 73
4 14 22 27 33 39 48 62 60 54 52 49 47 46 43 42 40 40 37 36 37 36 37 36 24 14 17 10 17 25 29 37 46 26 17 29 27 19 18 30 40 60 82 77 71
7 17 23 25 32 38 47 60 64 57 54 49 46 44 42 40 41 37 35 34 36 34 31 23 10 13 7 6 9 24 34 39 46 43 26 9 11 14 9 18 32 47 69 74 68
5 16 22 24 28 32 41 51 59 54 52 49 46 41 40 40 36 34 32 35 33 29 23 8 21 20 11 9 16 20 33 32 38 38 35 34 27 11 10 5 23 35 54 71 66
9 16 22 27 28 32 33 39 54 56 51 49 46 44 42 36 37 36 33 34 29 26 14 21 23 7 6 12 11 20 26 30 34 37 34 30 27 25 18 8 7 24 42 55 56

GFSSW_250_spd_042.txt.gz
Wind_Speed
46 53 58 62 67 72 74 75 75 78 83 83 81 83 76 72 72 71 72 68 64 64 66 66 67 68 63 63 60 62 59 63 68 68 68 64 59 62 63 66 65 67 70 72 73
42 47 52 59 64 69 72 72 75 76 81 86 84 83 83 79 76 75 72 69 70 69 71 71 73 69 65 66 63 61 59 65 70 67 66 66 63 61 57 58 60 64 65 67 69
40 42 47 54 61 64 70 70 74 76 81 83 87 86 84 85 83 82 78 76 74 73 71 72 74 72 68 65 63 60 59 61 63 64 64 65 63 60 57 56 60 60 60 64 68
39 41 42 47 55 63 66 71 73 74 83 85 87 90 88 85 88 89 82 79 77 73 72 72 74 73 72 64 63 60 61 59 58 59 61 61 61 57 53 54 54 57 59 62 65
39 42 41 43 48 58 64 71 74 72 78 82 84 87 90 89 87 90 88 83 80 76 75 73 70 69 69 68 58 56 59 57 56 57 57 57 56 56 50 55 54 56 58 61 62
36 41 43 43 43 50 60 68 73 75 77 74 80 83 87 92 91 88 89 89 84 79 79 75 73 73 71 68 62 58 58 56 56 56 54 54 56 49 56 61 55 52 54 58 61
38 37 42 43 42 44 52 58 65 69 72 75 76 80 84 88 94 91 87 86 87 87 82 80 78 75 74 71 65 64 62 58 60 56 53 52 47 47 55 55 55 54 52 53 58
42 37 40 44 43 43 46 52 55 62 67 67 72 74 76 82 87 94 89 86 84 86 86 86 81 79 78 75 72 69 67 65 63 59 55 53 51 51 56 56 51 51 51 54 54
46 44 42 43 45 44 43 48 51 56 60 62 66 69 70 75 81 86 93 88 83 82 81 81 82 81 80 80 79 73 66 67 67 65 63 58 51 57 59 58 56 51 50 50 53
54 53 51 48 47 47 46 45 48 51 54 58 61 64 63 69 75 79 84 87 86 82 79 78 77 77 80 78 75 71 67 69 70 69 68 65 57 61 61 62 61 59 54 51 53
62 57 58 54 54 51 49 42 45 46 50 58 60 59 60 67 71 76 79 83 86 85 82 80 79 82 80 78 74 73 72 71 74 76 72 70 64 64 64 65 65 65 63 59 53
54 50 52 54 57 55 50 38 49 54 54 54 55 52 54 54 57 65 74 79 84 85 82 81 81 82 83 82 80 78 77 77 78 80 76 74 67 70 68 66 68 69 67 66 62
50 47 47 51 50 59 52 45 54 53 53 53 55 53 53 52 52 55 63 73 80 81 82 80 81 83 83 82 81 81 80 83 80 80 79 78 71 76 72 73 75 77 75 74 71
44 42 43 47 48 54 56 53 55 54 55 55 56 55 51 53 55 56 59 64 73 80 80 82 83 84 84 85 85 84 83 82 82 85 84 83 78 76 79 81 82 83 82 82 81
42 38 36 42 44 48 60 62 59 57 56 57 56 52 51 51 54 60 65 70 75 79 81 83 85 86 87 88 85 83 78 77 78 78 77 81 87 75 84 84 89 89 91 88 85
39 32 30 36 41 49 59 69 63 57 53 55 54 51 50 48 52 54 57 59 64 70 75 81 83 82 81 79 76 73 72 76 75 77 78 85 92 79 92 92 94 96 99 98 93
36 29 23 33 44 50 64 71 68 49 52 56 53 52 48 45 45 46 47 49 53 56 60 63 65 66 67 64 65 68 72 73 77 79 79 84 87 84 88 86 89 92 97 95 91
33 23 22 31 40 48 59 71 55 48 51 57 55 51 46 39 39 41 43 47 51 52 52 52 53 56 60 62 63 67 69 75 72 76 76 76 80 85 91 91 88 88 92 93 94
28 16 17 27 40 44 55 56 48 50 53 57 56 50 43 36 37 40 46 50 48 48 47 50 54 57 58 61 62 62 64 65 67 73 75 79 81 81 89 94 83 76 85 89 92
23 13 13 26 32 36 45 51 50 53 51 54 54 51 41 34 34 38 42 43 42 44 46 49 52 54 53 52 48 50 57 65 70 72 73 75 71 69 81 84 80 71 79 84 83
21 13 11 19 26 33 41 52 58 57 51 54 54 49 39 30 26 29 32 35 37 40 42 44 44 50 42 39 45 52 59 65 66 64 64 63 59 78 72 75 60 57 70 78 80
22 9 6 16 26 34 43 59 62 59 52 52 51 47 39 29 25 25 26 29 31 32 33 32 36 36 36 41 48 53 57 56 52 54 53 49 43 59 51 52 55 49 54 65 77
19 6 8 17 25 34 45 58 62 55 47 50 50 46 41 34 29 27 26 25 27 27 28 26 31 34 37 46 47 48 42 40 46 38 41 39 41 52 35 29 38 41 48 56 68
14 3 14 20 28 37 46 58 56 50 45 48 48 46 42 37 33 30 26 26 27 25 24 25 29 35 41 41 33 22 18 27 38 36 34 24 20 37 26 17 23 31 37 40 54
11 1 14 24 32 37 45 57 57 51 46 47 50 47 43 39 35 31 28 29 26 22 23 25 29 33 33 13 20 23 15 26 34 33 32 24 12 13 19 18 18 22 28 29 46
8 1 15 22 34 42 48 58 57 53 46 44 45 44 42 40 36 31 31 29 24 24 24 24 26 23 14 18 16 12 19 22 30 35 32 29 15 11 6 7 11 17 19 30 48
5 6 16 23 33 42 49 59 58 50 45 42 44 45 44 39 35 32 30 29 25 23 23 23 18 12 7 8 3 12 18 23 31 36 31 30 26 26 25 22 17 14 20 38 46

GFSSW_250_spd_045.txt.gz
Wind_Speed
37 39 43 48 53 59 63 66 75 79 83 84 85 86 84 83 76 77 77 74 71 71 69 70 70 69 68 67 69 71 68 67 70 74 72 67 65 61 58 62 62 63 66 65 70
37 37 39 44 50 57 62 65 70 79 81 85 85 86 86 85 83 76 75 75 75 75 72 70 70 67 68 67 68 67 64 64 69 70 66 62 61 61 58 64 63 66 67 66 67
40 39 37 41 46 52 60 66 68 71 78 81 84 86 85 88 85 84 79 75 77 75 74 71 70 69 67 67 68 66 65 69 68 68 64 61 63 62 61 64 67 65 65 66 67
42 41 40 40 44 48 54 63 67 72 75 82 84 87 87 86 88 88 86 78 76 75 76 75 75 71 68 68 71 66 68 69 67 68 63 65 66 65 65 65 65 63 63 66 66
45 41 42 42 42 47 50 59 63 70 72 78 84 83 84 85 85 90 89 86 78 77 78 79 77 73 70 72 71 71 73 70 72 70 70 68 69 68 63 65 66 65 64 67 66
46 44 39 42 43 45 48 53 59 65 71 75 81 83 79 82 85 89 92 88 88 83 82 82 77 72 75 74 71 73 76 73 70 71 69 65 66 61 61 68 64 61 61 63 62
53 44 41 40 43 45 46 49 55 63 71 74 78 82 82 83 87 88 92 91 89 90 84 84 80 79 78 76 72 71 73 75 72 70 64 62 60 55 64 62 59 60 57 58 59
61 52 43 40 42 45 46 49 50 57 66 72 75 78 83 81 88 90 90 93 92 90 92 87 85 85 82 78 78 74 73 73 73 73 67 64 58 57 59 60 56 55 53 52 52
60 59 55 46 43 47 46 48 51 52 59 68 73 79 81 84 84 84 91 89 92 91 91 94 88 85 81 82 79 76 75 74 72 71 69 66 61 63 61 59 57 57 55 53 55
59 60 65 63 55 48 50 49 51 53 55 59 66 72 77 84 85 85 80 86 92 95 93 92 92 91 87 83 83 79 77 77 76 75 74 70 67 68 64 65 61 61 60 56 57
63 61 62 63 58 55 53 55 53 43 46 56 65 67 75 79 82 82 81 84 90 93 92 91 91 91 92 90 87 86 83 81 81 80 79 76 72 68 68 68 68 67 66 64 61
64 58 56 53 51 54 48 56 48 46 57 61 64 62 66 68 70 70 73 78 83 89 89 92 90 90 88 87 85 87 87 86 88 87 84 82 71 69 68 69 71 75 75 75 72
63 55 51 46 44 49 49 53 52 56 59 49 55 56 57 59 59 60 63 66 73 78 86 90 90 88 87 85 84 85 85 85 82 80 78 76 67 73 70 71 77 81 80 80 79
60 53 43 35 38 44 47 53 58 59 55 50 49 51 52 52 53 54 55 57 63 71 77 82 87 86 86 85 85 83 83 82 80 80 79 79 73 73 74 77 82 83 84 83 86
57 45 36 28 29 36 44 54 61 61 58 52 46 45 48 49 47 48 49 52 57 61 70 76 77 79 83 86 85 84 84 84 84 82 80 80 81 66 78 83 86 88 90 90 91
51 41 33 26 23 31 44 58 63 67 53 46 44 46 47 45 47 47 47 48 50 56 62 71 76 78 80 81 83 83 84 85 84 83 80 81 85 73 83 86 87 89 94 94 94
46 39 29 20 19 31 43 55 66 63 41 46 45 48 49 49 47 46 45 47 49 51 53 61 69 73 75 78 80 81 83 84 84 82 80 85 88 79 80 87 83 86 89 92 94
44 35 24 13 16 25 37 54 62 48 44 45 47 50 50 48 47 45 45 45 47 52 58 58 61 66 72 76 79 80 81 84 82 85 85 78 70 76 80 84 83 87 93 96 98
42 31 18 11 13 22 35 46 52 50 47 46 49 51 50 46 46 44 45 48 47 49 55 59 62 67 71 74 76 76 78 73 68 67 65 66 72 75 80 88 88 88 89 91 92
38 24 12 6 9 21 31 42 47 52 51 47 48 52 49 49 47 45 43 41 43 44 44 46 46 45 46 47 46 44 50 54 57 57 63 65 67 74 81 87 91 96 99 92 86
35 19 8 3 8 21 34 42 53 56 49 46 47 50 49 47 43 38 35 36 37 36 36 35 34 38 40 34 36 40 49 50 50 53 61 64 70 80 84 84 89 94 92 84 77
30 18 7 9 17 28 37 45 55 54 48 43 42 47 45 41 36 33 31 30 31 31 33 34 35 35 26 29 33 40 39 43 49 56 61 65 51 71 72 77 81 70 70 60 60
26 13 2 13 24 30 39 48 54 51 47 41 41 45 44 39 30 26 25 26 28 28 29 30 28 24 21 22 29 35 39 46 49 47 45 50 42 61 57 64 64 53 45 48 50
21 13 5 17 25 34 42 49 52 49 45 40 41 42 42 38 28 24 24 25 25 26 25 20 18 17 19 24 31 35 39 33 29 25 27 45 40 53 49 49 47 37 33 38 38
19 10 8 21 28 33 39 47 52 48 46 42 41 42 43 37 28 25 24 24 23 20 17 16 15 18 20 25 30 27 20 10 23 30 34 33 32 34 36 34 33 29 23 22 24
18 8 7 18 26 29 34 44 45 45 40 38 39 40 41 38 32 27 26 24 20 18 16 15 14 18 23 23 16 9 4 10 25 32 39 19 27 28 16 13 13 12 9 5 10
18 6 10 15 26 32 38 49 48 44 40 38 41 43 42 38 33 30 27 23 21 18 15 13 18 21 21 10 2 4 8 18 25 32 30 19 21 27 26 24 17 13 10 7 10

GFSSW_250_spd_048.txt.gz
Wind_Speed
50 42 38 41 44 47 53 60 64 69 71 77 85 88 88 89 85 81 76 78 74 79 75 78 77 75 76 75 75 75 73 72 70 78 81 83 77 71 77 75 74 71 77 75 75
54 48 39 38 41 46 50 57 63 70 70 72 81 86 88 88 87 83 82 79 77 79 77 75 75 74 75 76 75 75 70 68 72 78 77 76 75 74 74 68 73 69 72 68 69
59 52 45 38 40 43 48 55 62 69 73 75 75 82 87 87 88 90 87 84 79 79 78 76 72 70 72 73 71 70 64 70 70 70 71 73 72 71 71 66 68 68 69 63 61
63 56 50 43 39 43 47 52 59 67 74 76 78 79 84 87 88 91 92 88 83 81 81 77 74 74 72 71 72 69 66 69 69 68 69 68 66 65 63 64 64 62 65 60 66
68 61 52 51 43 42 46 50 56 64 72 77 80 80 82 87 86 87 91 91 88 82 79 78 78 78 75 74 74 70 68 69 67 65 69 66 63 62 59 58 64 62 64 63 67
73 64 57 50 50 44 45 50 54 58 68 74 77 81 81 84 85 87 89 90 89 86 83 80 79 79 78 77 76 71 71 69 68 69 69 65 68 63 59 66 66 64 65 67 67
74 67 63 58 47 49 46 49 52 56 62 70 75 78 79 83 89 91 87 86 89 90 87 84 79 77 80 79 77 75 77 72 68 71 69 70 67 65 68 66 65 65 67 68 66
75 65 66 62 55 48 52 48 52 55 58 65 71 75 78 79 87 91 90 88 87 89 91 88 85 79 74 77 80 81 77 73 74 74 72 71 68 70 68 70 68 64 65 65 66
80 70 58 60 67 59 53 54 53 55 59 62 66 70 77 84 83 90 87 90 88 87 87 91 90 84 77 78 80 80 79 79 78 75 73 73 70 71 69 73 67 66 64 61 60
81 70 63 60 59 67 56 54 58 57 60 63 64 65 71 80 79 82 90 90 85 84 85 89 90 90 85 82 80 82 82 79 78 76 77 74 68 70 68 68 69 68 65 60 60
83 72 65 59 54 54 58 51 57 62 60 56 51 61 68 75 82 78 86 87 83 84 79 83 87 91 92 89 86 79 81 83 84 82 82 77 73 71 70 66 73 70 68 68 67
78 69 63 57 49 44 47 51 50 59 59 51 56 53 59 68 75 78 81 84 86 86 84 82 83 92 92 89 88 85 83 84 84 84 80 78 73 71 73 71 72 73 74 75 75
77 68 60 51 41 36 37 44 45 56 60 54 56 55 58 58 66 76 81 80 86 86 86 88 82 85 88 91 89 90 89 89 85 82 82 79 74 75 73 75 78 80 82 83 79
73 66 55 44 38 33 32 35 42 53 61 59 60 48 49 47 57 67 74 78 80 85 83 78 80 86 83 90 92 89 89 89 90 87 86 85 81 80 82 83 83 85 84 82 80
71 62 50 43 35 30 26 31 40 47 54 56 53 47 47 45 50 56 64 69 74 79 79 79 79 82 89 88 88 90 89 89 90 91 89 88 87 76 83 82 81 79 79 83 83
69 57 49 39 30 24 24 30 35 44 55 57 47 43 39 37 43 48 52 57 60 63 63 67 74 79 85 86 86 87 89 88 88 88 86 85 84 71 78 78 81 85 84 86 88
65 54 46 35 24 18 20 23 31 43 50 50 43 43 38 40 42 43 44 47 47 50 54 58 63 66 71 76 81 83 83 84 86 84 80 82 81 77 78 80 85 90 92 91 94
60 50 42 30 17 10 9 17 26 39 44 43 43 42 37 41 41 41 41 40 41 41 44 48 50 53 60 64 70 76 78 81 81 82 82 82 77 77 81 84 92 93 96 99 101
55 46 35 20 8 4 13 21 33 40 47 46 41 35 34 38 39 38 38 38 38 40 41 40 45 47 51 57 63 69 70 73 72 74 74 74 77 79 85 88 95 98 99 102 103
51 40 27 13 2 11 20 26 35 44 47 43 40 36 37 41 39 38 39 38 37 36 35 37 39 40 44 48 51 56 62 65 67 68 71 72 76 82 84 89 87 88 88 90 92
47 37 22 10 5 14 21 31 38 43 41 38 34 33 40 45 44 42 38 35 34 33 35 35 39 44 46 46 48 53 57 59 61 64 65 62 59 63 70 72 76 83 87 90 90
43 35 20 7 9 15 25 30 36 45 42 35 31 30 33 37 37 35 33 32 31 30 33 35 39 43 43 44 43 41 42 39 35 35 41 43 43 62 70 79 79 83 84 85 83
40 32 19 6 12 21 30 35 41 42 40 33 27 27 34 35 32 31 30 29 29 28 30 33 35 33 26 23 21 22 22 23 26 33 44 47 50 62 65 69 69 71 73 73 66
35 28 17 3 12 23 34 40 46 42 37 30 27 26 31 32 29 28 26 25 25 26 26 25 22 17 16 16 19 18 18 24 29 34 24 39 35 40 50 55 60 55 46 41 36
31 24 15 1 12 24 34 39 47 43 38 32 28 28 33 31 27 24 21 21 23 24 23 21 17 18 16 14 16 17 22 26 16 14 15 31 29 27 45 34 34 36 35 33 30
29 23 15 1 8 19 27 37 40 38 35 30 27 29 32 32 27 20 18 19 20 22 22 21 19 15 13 15 14 20 15 11 8 13 22 27 27 21 25 19 24 21 17 17 14
27 20 12 2 9 12 14 31 40 38 35 31 27 31 32 32 28 21 20 21 23 22 20 17 13 13 10 11 13 11 11 10 10 17 22 23 10 21 16 23 29 31 29 25 19

GFSSW_250_spd_051.txt.gz
Wind_Speed
73 64 57 53 47 43 42 44 48 57 66 72 76 80 83 86 91 92 86 89 86 88 94 93 92 91 93 95 93 91 86 81 80 82 85 89 83 78 74 77 78 74 73 72 72
78 72 62 56 53 46 41 42 47 53 63 70 76 79 81 83 87 90 97 88 85 88 88 89 89 91 88 90 88 87 83 77 80 86 89 87 81 76 75 77 80 76 79 76 73
81 74 69 62 56 50 44 42 45 51 60 70 76 80 81 84 81 92 92 93 87 86 86 85 86 87 85 87 84 81 77 79 81 84 85 84 84 77 75 79 75 77 81 79 75
85 78 69 66 59 53 45 43 45 50 57 65 74 80 81 82 83 85 90 93 92 87 84 85 82 85 86 84 83 81 81 78 80 82 80 76 78 78 74 70 73 78 80 78 77
88 80 74 68 64 54 49 43 45 50 56 63 71 78 81 82 80 83 88 93 96 92 86 85 83 82 83 85 81 77 79 78 78 77 74 74 76 72 68 67 73 73 73 69 67
91 83 77 72 67 60 49 46 44 48 55 61 69 77 81 83 83 81 83 92 96 94 92 88 85 83 81 81 79 78 77 74 73 75 72 75 74 65 62 68 69 66 65 62 63
93 83 77 69 70 64 58 46 45 47 55 59 67 73 80 86 87 86 85 85 91 95 93 93 87 85 81 81 77 74 75 74 75 77 74 75 67 60 66 64 64 64 62 62 58
93 84 79 73 64 65 58 56 48 47 53 58 63 69 75 84 89 92 87 83 85 91 97 95 92 85 84 81 78 76 75 73 77 75 72 72 65 67 64 62 62 62 62 62 64
92 88 84 78 70 60 59 54 51 52 50 57 61 63 75 80 85 90 87 84 82 86 90 97 94 89 84 79 79 81 78 77 78 76 74 70 68 70 64 63 64 66 65 65 67
92 89 83 78 69 59 52 54 51 46 55 52 58 59 69 76 81 88 89 87 85 82 86 89 93 91 89 84 80 84 81 77 77 76 74 72 70 72 68 67 68 67 68 67 68
95 90 82 73 63 54 45 44 45 49 49 51 45 52 66 74 75 81 88 88 89 85 81 82 82 88 95 92 89 84 81 78 78 78 76 77 74 75 72 67 70 69 68 66 68
96 89 79 68 56 46 37 34 35 40 45 48 43 54 66 70 72 74 79 85 87 84 85 81 82 86 85 88 87 84 81 79 79 76 71 75 74 77 77 72 73 75 74 72 72
95 85 75 60 49 40 33 29 27 29 42 49 48 54 64 64 68 69 72 79 85 84 84 85 85 82 82 84 89 89 86 83 77 77 75 73 70 75 77 78 80 81 79 78 77
93 84 70 55 47 38 30 23 21 25 40 50 51 54 53 56 62 62 66 72 79 81 83 82 80 79 80 82 82 85 88 87 85 81 78 77 72 73 77 80 81 82 80 80 78
90 79 64 56 44 33 23 18 17 28 42 48 46 51 50 55 56 56 57 65 73 77 77 85 81 76 78 75 74 79 83 90 88 86 83 82 78 76 78 78 79 79 81 82 82
86 74 62 53 41 27 16 9 13 28 39 40 46 48 46 49 50 48 46 58 66 72 74 73 84 80 76 73 75 74 77 82 87 89 85 86 82 77 79 83 86 87 88 89 91
81 68 61 51 38 21 6 4 15 29 33 40 42 43 44 46 42 41 44 50 59 68 73 73 75 82 80 76 79 77 75 74 78 82 84 86 85 78 81 84 88 90 93 94 95
75 64 58 46 34 16 2 14 21 27 37 45 45 43 43 42 37 38 41 44 51 60 70 72 72 72 76 78 77 75 77 82 80 78 78 80 80 81 85 88 88 90 92 94 95
70 59 51 40 29 13 4 17 25 32 43 45 44 42 41 33 32 32 35 40 43 49 56 60 62 67 67 69 71 70 71 72 76 80 79 77 74 76 80 86 91 93 94 96 98
66 54 45 35 25 8 9 24 33 34 37 41 35 36 33 30 28 29 34 35 37 39 40 45 48 49 51 54 57 59 60 62 63 62 66 72 73 76 81 83 85 86 88 92 96
61 49 40 31 17 5 12 27 35 38 40 37 39 37 32 30 30 32 34 33 33 32 34 33 33 37 39 38 39 41 44 45 47 50 53 60 65 74 76 75 80 84 89 94 95
56 43 36 26 12 7 17 30 35 39 38 34 29 24 24 27 28 31 32 30 28 27 26 27 26 27 25 29 31 33 33 35 38 41 47 47 58 65 68 71 76 81 87 87 88
53 40 31 25 11 6 18 26 34 39 38 32 28 25 27 24 27 25 26 26 25 23 25 26 25 25 28 30 32 32 33 35 38 40 44 43 49 52 52 60 64 65 71 78 82
49 37 31 27 16 5 17 31 38 41 35 30 25 23 25 31 32 30 27 26 25 25 24 26 26 26 27 29 30 30 28 26 28 26 27 32 38 45 51 55 54 51 51 55 64
46 34 29 24 17 2 13 30 39 39 34 28 25 27 28 28 27 26 24 24 23 23 24 23 22 22 24 23 23 19 18 16 18 21 25 29 34 38 38 36 32 28 32 37 48
46 33 27 23 15 4 14 33 39 38 33 27 24 32 33 33 30 29 25 23 22 22 21 20 26 27 25 22 18 15 13 17 18 13 18 24 33 20 21 31 20 15 20 26 29
44 31 24 19 11 13 9 28 37 34 27 24 25 30 30 28 25 22 19 17 17 17 23 27 27 26 21 16 12 13 17 16 16 10 13 12 14 16 22 20 17 12 17 20 26

GFSSW_250_spd_054.txt.gz
Wind_Speed
89 76 67 56 46 42 36 35 35 38 44 52 63 73 81 86 88 90 96 99 99 102 102 102 105 105 103 99 97 95 88 85 83 84 88 89 84 78 74 74 72 69 69 69 69
91 79 69 62 52 47 43 39 36 39 43 50 60 70 79 85 88 83 98 100 97 98 102 105 107 107 106 102 102 96 90 85 84 89 91 92 83 79 75 75 76 76 75 72 73
90 80 72 66 59 53 49 43 41 39 44 49 57 66 74 83 85 90 91 98 101 98 98 97 101 100 101 101 99 97 92 89 90 92 92 87 83 81 76 77 80 80 78 76 75
93 82 75 70 64 61 55 53 43 44 43 49 55 63 72 80 85 89 89 94 101 102 96 94 93 95 99 99 98 95 93 92 95 96 91 88 85 84 82 79 83 85 80 77 77
92 84 81 74 72 69 65 56 53 43 45 51 55 63 69 78 86 89 91 91 96 103 101 96 92 92 94 97 97 93 92 93 94 95 90 89 87 85 80 79 81 86 82 80 79
91 85 83 80 75 73 70 62 52 48 47 51 58 61 68 76 86 89 89 90 91 97 102 101 94 93 91 89 92 91 91 90 88 88 85 84 83 83 80 79 80 83 82 80 74
91 87 84 81 77 71 63 63 59 50 46 53 58 61 66 77 84 89 91 91 92 91 96 101 99 92 91 89 86 88 91 90 89 90 90 89 84 77 79 88 79 77 76 74 74
93 89 87 83 78 68 59 54 56 54 46 51 57 58 64 75 82 89 94 92 92 90 89 96 100 95 91 88 87 85 85 83 87 89 86 83 77 78 81 76 72 74 74 72 71
94 91 88 83 74 64 55 49 51 51 46 50 55 55 64 72 80 85 92 93 94 90 88 92 96 98 93 89 88 84 80 80 86 85 83 78 72 77 77 71 70 72 73 71 71
95 93 90 83 71 59 49 43 42 42 44 49 53 53 61 68 77 81 87 89 92 92 85 86 94 95 97 91 85 85 85 81 79 77 78 76 71 72 70 69 69 70 72 70 70
96 94 90 79 67 53 44 37 34 34 36 45 48 51 63 65 70 78 84 88 91 91 87 82 78 84 90 94 95 86 83 80 80 78 72 72 69 75 78 71 69 71 72 70 68
97 95 87 74 62 51 41 32 28 27 31 40 46 53 64 64 71 77 79 84 87 89 86 84 78 79 89 93 93 88 83 83 83 78 74 74 70 75 74 70 70 74 75 74 71
97 93 83 68 58 49 36 27 24 25 28 39 50 56 62 60 66 71 77 83 87 87 87 88 84 82 82 89 91 90 89 86 82 79 78 77 74 75 76 73 73 76 76 76 75
95 87 77 65 56 44 30 20 17 24 25 35 49 59 61 58 60 66 73 77 82 88 89 84 84 76 71 80 83 86 90 86 83 81 77 77 73 78 76 75 77 77 77 81 81
93 84 73 63 54 37 27 16 12 22 30 38 48 56 56 53 51 55 64 68 71 79 84 79 80 77 71 72 79 79 83 90 86 84 80 78 75 78 77 78 78 79 78 81 82
91 82 70 62 49 34 26 15 13 21 28 37 51 56 56 49 49 51 58 61 63 67 76 80 81 80 79 72 69 73 76 80 89 89 82 82 77 77 80 79 80 81 82 82 83
87 77 66 58 45 34 26 15 9 17 23 33 50 51 46 42 39 43 48 49 54 57 62 75 82 79 76 74 74 72 70 71 73 75 78 85 83 85 83 83 83 86 87 87 88
84 72 64 53 41 33 24 11 6 16 23 34 46 48 42 40 44 47 44 44 50 56 60 66 69 75 76 72 70 73 72 70 66 69 73 75 75 83 87 89 89 89 90 90 92
80 68 60 48 41 34 19 6 13 25 35 43 45 45 42 41 40 39 42 44 45 48 52 52 58 66 71 71 73 71 68 68 67 66 65 68 69 76 81 89 90 89 91 94 96
77 67 54 44 40 30 18 1 16 27 35 38 38 36 38 35 34 34 36 37 39 39 44 50 57 58 60 68 68 73 72 71 70 67 66 69 72 74 76 79 85 88 90 93 96
72 62 50 42 37 27 15 8 23 32 37 37 39 37 36 35 33 34 32 34 33 35 38 43 48 56 59 62 61 59 67 76 73 69 70 68 69 72 74 76 78 82 85 88 91
69 58 46 38 34 25 10 16 30 37 38 36 33 35 35 29 27 28 27 27 28 31 34 37 42 51 56 58 58 57 56 55 53 59 63 64 72 69 64 64 65 65 72 79 86
66 54 41 35 33 19 6 17 28 35 34 32 30 26 22 20 20 22 24 23 25 26 28 28 28 31 37 42 46 43 42 43 43 45 46 48 48 46 46 50 54 60 66 67 74
63 51 38 32 33 17 4 15 31 37 39 35 31 27 25 24 24 24 25 26 26 25 25 26 27 27 28 29 30 29 31 32 35 32 35 34 43 37 43 47 54 54 55 59 65
61 47 35 28 23 12 4 15 32 35 36 33 27 26 30 33 31 30 28 27 27 27 26 25 26 26 26 27 28 29 30 31 30 29 34 30 34 36 37 42 41 43 45 44 49
55 43 32 23 19 11 11 23 32 31 32 28 29 32 32 33 32 31 28 27 26 25 22 23 23 25 28 27 26 26 26 23 23 25 25 24 27 30 31 34 35 28 26 32 40
51 42 30 18 13 9 20 26 29 30 28 29 31 31 33 31 28 28 27 26 23 22 22 23 24 25 25 25 22 24 22 20 20 19 18 17 14 21 26 19 16 16 11 25 30

GFSSW_250_spd_057.txt.gz
Wind_Speed
92 89 79 68 59 52 44 35 30 35 37 43 49 53 60 72 82 90 100 115 115 112 108 104 103 105 104 104 103 103 97 90 88 87 91 89 83 78 73 75 72 68 67 66 66
96 93 83 72 64 59 52 45 36 34 37 41 48 54 59 67 78 84 103 109 109 113 110 111 108 105 104 104 103 101 96 93 92 92 95 91 85 80 76 73 70 69 69 68 68
100 95 85 76 70 64 58 53 49 42 39 42 48 54 59 65 74 87 94 103 108 111 113 112 112 107 103 102 102 102 96 95 95 98 98 95 90 85 81 77 76 75 75 71 71
100 94 85 77 74 71 67 61 55 52 46 45 49 55 59 63 72 83 91 100 106 109 111 114 113 109 104 101 100 98 98 98 98 100 99 97 91 86 82 81 78 80 77 77 75
102 94 84 79 76 73 72 69 64 56 53 47 52 56 60 62 74 83 89 97 103 105 106 109 108 106 106 107 103 101 97 97 98 100 99 96 93 87 83 84 81 82 81 80 76
102 94 86 83 81 76 73 68 68 64 55 51 51 56 57 64 76 80 86 93 100 103 103 105 106 106 105 103 105 103 98 99 100 99 97 95 94 91 85 86 82 83 84 81 79
101 94 88 85 82 77 73 66 61 66 60 53 53 53 54 64 70 77 84 88 95 100 101 102 108 105 106 104 101 99 99 98 97 97 95 95 92 87 89 88 88 86 83 79 78
101 94 89 89 84 76 68 60 55 57 57 53 50 50 50 65 72 75 82 86 92 97 102 103 105 108 105 103 100 97 97 96 97 97 96 96 87 88 89 93 87 88 86 82 79
101 95 92 91 85 74 64 52 46 49 49 50 45 47 52 69 68 74 80 86 91 94 98 101 103 106 106 102 100 95 90 90 93 95 96 91 84 89 88 88 81 81 83 84 80
101 96 94 92 83 71 58 48 42 41 39 38 38 46 53 66 72 72 76 82 87 96 96 97 97 100 103 104 94 92 93 88 87 90 91 88 81 86 86 83 80 80 79 81 81
100 96 93 88 78 67 55 43 37 34 33 30 33 51 61 72 67 70 74 79 85 93 94 89 91 91 92 98 103 96 91 89 85 84 83 81 81 85 87 83 81 79 80 79 80
99 95 92 84 71 61 52 41 32 28 28 28 35 54 64 64 66 69 71 74 80 89 91 86 85 92 89 89 98 100 92 89 89 84 77 77 72 75 80 80 79 76 75 77 77
99 94 90 81 67 59 49 36 26 22 21 27 39 55 63 60 62 67 70 73 79 83 89 86 85 87 88 86 90 91 97 94 91 86 82 78 74 74 75 75 77 78 76 73 73
99 95 89 77 63 57 43 29 20 15 17 29 41 55 62 61 59 65 69 72 77 78 87 91 92 88 85 81 79 83 91 95 92 87 81 82 76 78 75 76 77 77 77 77 77
96 92 85 72 61 52 38 25 16 13 18 30 38 47 57 56 55 59 61 64 69 72 76 83 91 86 84 79 76 74 81 87 89 87 82 81 78 83 79 79 79 80 78 76 76
93 89 80 67 58 45 34 22 14 7 20 27 33 48 51 50 50 54 54 57 64 65 68 70 81 82 78 79 73 69 68 74 85 87 85 84 78 84 84 82 82 82 80 79 79
89 85 75 64 52 41 36 25 11 5 18 24 34 44 48 45 42 44 45 52 56 59 62 67 73 75 77 76 75 74 74 71 74 81 84 86 82 86 84 85 85 82 82 82 83
83 81 72 61 49 40 36 27 13 2 11 18 29 41 43 40 42 42 43 45 50 55 60 69 69 67 69 71 76 76 70 65 66 68 72 80 85 85 84 85 86 87 86 86 85
82 78 69 58 46 38 34 25 7 11 13 21 36 44 42 40 39 38 42 44 50 52 54 55 64 66 71 70 72 68 60 59 59 62 68 71 73 81 84 85 86 86 87 87 87
80 76 67 56 46 38 33 18 8 13 17 24 33 39 39 36 35 36 35 39 41 41 40 45 55 67 75 75 72 69 65 67 64 58 61 63 68 71 74 79 81 84 85 88 95
77 73 65 51 42 38 29 13 11 23 29 35 39 37 37 35 33 34 35 35 33 30 33 39 48 57 62 71 72 68 67 66 64 65 65 65 68 69 69 72 75 79 84 87 88
74 70 62 49 39 34 23 17 11 22 26 29 33 37 34 30 29 29 28 27 28 29 29 32 39 45 50 51 55 63 70 70 66 61 61 65 67 66 67 66 68 72 71 72 75
70 65 56 44 35 30 19 10 10 22 26 26 27 24 24 25 25 27 27 27 29 30 31 33 36 43 48 49 50 53 58 60 60 66 67 68 66 66 62 66 65 64 66 70 74
64 61 53 45 33 26 12 8 17 23 27 27 29 27 26 25 23 21 23 25 24 25 25 28 30 33 38 44 48 49 49 52 58 57 56 57 56 51 55 54 52 51 51 52 52
59 56 47 38 27 19 4 6 16 23 27 30 29 26 24 24 24 24 24 24 25 25 25 24 25 27 30 34 37 40 42 45 47 48 48 43 39 35 36 37 38 39 40 43 44
56 51 43 33 21 10 7 9 16 20 21 21 20 22 22 24 25 25 23 23 24 26 26 27 26 25 26 26 26 27 28 31 32 33 28 30 28 29 30 32 33 34 34 37 37
51 47 41 30 19 7 7 13 16 18 20 22 23 24 27 27 25 25 26 25 24 26 27 27 27 27 26 26 26 28 28 27 27 30 28 25 24 26 26 23 23 26 29 24 24

GFSSW_250_spd_060.txt.gz
Wind_Speed
92 94 93 83 76 66 54 45 39 37 34 37 45 50 59 65 72 78 86 101 107 114 115 113 116 114 113 110 107 103 99 92 89 88 89 94 92 86 82 80 78 74 71 70 66
93 97 96 86 77 68 61 55 48 42 42 39 43 52 57 63 71 75 91 97 103 111 116 117 111 113 113 113 108 105 96 93 96 95 93 97 91 86 82 79 78 74 71 70 68
95 98 96 86 79 71 67 64 57 52 48 47 45 51 58 62 67 77 83 93 100 106 113 121 120 112 112 113 109 104 98 96 98 101 99 99 93 86 81 79 78 73 71 70 69
97 100 94 85 79 74 69 66 65 61 57 52 49 52 57 63 66 77 80 90 97 103 110 120 119 115 111 109 106 106 100 99 101 102 101 100 96 90 86 84 82 78 75 75 73
100 102 93 85 79 75 72 70 66 64 64 57 53 54 58 62 65 74 82 87 93 100 106 115 121 113 114 109 107 104 104 102 102 105 103 101 98 93 88 87 83 82 79 78 77
103 102 93 86 81 76 75 72 70 65 63 61 54 53 53 57 68 76 81 84 88 98 104 108 120 117 114 115 110 106 101 101 103 103 102 102 100 97 90 88 87 84 84 82 79
107 100 92 86 82 79 76 70 63 60 57 58 52 48 48 56 70 72 77 83 84 94 99 107 118 122 109 109 110 103 104 100 99 101 100 100 98 92 96 93 88 85 85 84 83
108 99 92 87 82 82 79 67 59 53 52 50 45 38 47 61 73 73 76 82 82 90 97 103 111 124 119 110 104 105 103 101 101 97 97 98 93 91 95 92 91 88 87 84 81
106 98 91 86 84 82 75 62 53 47 46 43 35 28 50 65 68 73 77 80 81 88 93 99 109 112 123 113 103 97 94 98 101 100 98 95 91 91 92 92 90 87 86 85 84
104 97 91 85 82 76 66 57 51 42 38 36 29 31 49 65 74 72 77 78 80 86 92 96 103 110 111 117 108 96 87 92 98 100 98 94 87 90 88 88 87 85 86 88 88
102 96 91 85 82 72 60 56 48 38 29 27 29 41 56 69 74 73 74 75 77 84 88 91 98 104 103 101 102 102 99 91 94 96 93 92 89 92 92 87 88 86 85 83 85
101 96 91 88 82 68 59 54 43 32 24 22 32 46 57 63 70 71 72 71 71 79 82 88 91 96 101 102 99 98 97 96 92 91 89 89 87 86 89 88 86 86 86 85 84
99 95 90 87 78 64 60 49 39 27 18 21 29 46 52 59 68 68 64 65 70 77 78 84 89 90 93 98 99 97 95 96 96 92 85 81 83 87 87 86 86 87 86 83 82
95 92 87 82 71 62 55 43 31 21 13 18 31 43 48 55 63 62 62 65 70 74 77 82 88 91 93 96 103 101 96 96 96 94 88 82 74 79 81 84 83 82 81 82 82
92 86 82 76 66 60 48 38 26 16 6 15 25 34 42 49 55 58 61 63 68 72 72 78 85 89 86 86 93 100 94 94 95 93 90 87 79 81 78 80 78 75 75 77 77
90 83 79 73 65 52 42 34 26 18 7 5 15 28 38 47 53 54 53 56 63 66 65 76 77 88 84 81 82 85 86 89 90 91 92 89 84 85 82 78 76 77 77 75 74
88 83 79 72 62 47 38 37 26 17 9 2 11 24 31 41 46 45 46 50 56 57 53 64 66 80 85 82 76 71 76 77 77 79 83 91 93 88 87 84 81 78 78 77 78
89 84 77 70 61 46 41 37 28 16 13 6 11 20 33 38 40 39 41 48 55 54 52 57 61 74 82 79 73 69 67 68 69 68 71 79 83 94 92 88 86 83 83 81 81
87 82 79 72 61 48 42 39 28 15 13 10 18 26 33 36 35 37 43 47 51 50 47 49 57 64 75 78 74 67 65 65 66 67 64 61 67 78 86 92 91 87 84 83 83
84 79 77 72 61 48 43 38 24 15 18 22 27 32 33 34 35 36 37 39 37 40 38 40 47 52 56 69 73 71 70 65 66 65 63 65 66 68 72 79 84 90 89 88 87
79 75 74 69 61 47 41 35 24 13 16 25 33 34 35 36 35 37 36 35 36 37 36 36 45 53 53 54 57 62 68 68 63 64 69 68 65 63 63 64 69 77 83 87 90
75 70 71 66 57 46 37 29 23 17 12 19 21 28 29 31 33 30 31 31 30 32 32 33 38 48 54 54 55 55 56 61 63 67 69 68 67 63 58 59 60 65 71 74 78
71 67 65 62 55 44 36 30 19 17 14 16 19 20 22 21 23 27 24 26 26 26 26 28 33 40 49 57 58 56 56 59 60 61 63 61 61 60 58 57 57 60 62 65 67
67 63 62 58 51 41 31 24 14 12 16 18 18 20 20 21 23 23 25 25 24 25 24 24 30 37 45 50 55 58 62 63 65 63 60 60 62 58 54 56 55 55 58 61 63
62 58 56 53 44 35 29 20 10 6 9 14 15 18 19 19 19 21 20 19 20 21 22 23 26 31 37 42 46 50 56 62 60 56 59 62 59 56 57 55 52 54 55 53 51
58 55 52 48 43 34 27 19 8 2 8 13 15 14 16 18 18 17 15 15 16 18 22 24 25 26 29 35 40 42 42 42 43 46 44 47 46 49 47 45 45 42 36 36 38
56 52 49 45 38 30 25 18 12 4 6 9 11 13 13 15 16 17 19 19 18 20 21 21 22 24 26 28 31 34 36 36 38 38 37 33 32 37 33 32 32 31 29 31 33

GFSSW_250_spd_063.txt.gz
Wind_Speed
86 84 83 84 81 74 64 57 48 44 38 35 37 45 49 52 56 62 75 93 99 106 114 119 122 120 116 112 109 106 101 95 89 87 92 96 95 90 85 82 79 77 76 75 73
88 89 88 87 81 73 65 58 54 49 44 43 40 44 50 54 57 63 78 85 95 102 107 115 121 124 121 117 113 109 100 94 95 93 91 97 97 94 89 85 82 80 79 78 76
92 94 91 88 82 74 68 62 56 53 53 51 48 46 52 56 61 69 73 81 90 98 105 113 119 125 125 121 115 110 104 100 98 99 96 98 95 94 92 88 86 85 84 82 79
96 94 91 88 83 76 70 65 61 58 57 59 58 52 52 58 61 67 71 77 85 94 102 110 117 121 125 123 119 113 107 105 104 102 100 99 96 91 90 91 90 86 86 86 84
98 97 93 88 82 77 72 67 63 62 61 61 61 59 51 57 62 71 74 75 82 89 100 106 113 118 124 123 120 117 112 109 108 107 103 103 99 95 89 89 87 86 84 87 87
101 97 91 88 84 78 74 69 67 66 62 60 57 57 48 52 69 75 78 76 80 87 96 103 109 116 121 126 122 118 117 114 112 111 108 104 101 96 92 89 88 86 83 82 82
102 96 91 88 83 78 74 71 67 63 56 52 49 48 40 53 74 78 81 79 81 86 92 98 107 112 115 125 126 121 117 119 114 113 110 107 104 95 96 94 90 90 88 86 85
100 93 90 88 81 77 75 69 61 54 48 46 43 40 43 57 70 75 80 81 81 85 90 95 102 109 113 120 126 120 118 114 116 114 110 109 102 98 97 93 91 92 90 88 87
96 92 91 87 81 79 76 68 56 49 43 40 36 36 46 51 58 77 81 82 82 84 87 92 99 104 112 114 123 122 115 111 110 113 110 105 102 100 98 96 94 92 90 89 88
94 92 92 87 82 80 74 62 52 43 39 35 31 36 45 54 65 72 82 81 81 83 86 91 96 101 107 110 112 116 107 109 108 110 110 106 101 101 98 98 96 94 94 92 91
91 91 91 85 83 78 68 55 48 46 40 32 28 31 43 53 58 66 77 78 79 81 82 88 91 93 96 101 106 116 112 104 112 110 107 102 100 98 95 95 95 96 93 91 90
90 89 86 82 81 73 64 57 54 45 35 25 22 26 40 49 51 63 71 75 75 77 80 85 87 88 91 96 99 105 117 101 95 99 98 99 96 98 99 98 96 93 94 93 89
88 87 83 82 79 70 61 54 46 39 30 21 18 24 35 42 48 57 65 69 70 72 77 79 80 81 84 88 95 102 108 109 96 86 90 90 94 97 97 95 93 89 87 85 85
91 89 84 81 76 67 59 50 40 30 22 12 10 19 27 36 44 53 63 65 65 70 73 75 74 78 81 87 90 95 100 114 103 91 79 80 82 90 90 89 89 86 85 84 82
90 89 83 81 74 66 55 41 34 22 15 10 4 8 19 32 37 49 60 61 63 66 68 70 71 74 83 85 90 89 96 102 114 102 89 77 77 84 83 84 84 84 83 81 79
89 89 84 78 72 62 48 39 35 25 19 15 10 10 17 27 37 47 57 57 59 64 64 65 67 69 75 78 84 89 93 97 99 105 96 88 81 78 76 78 81 81 81 81 79
90 87 83 79 73 61 48 40 36 23 17 16 11 10 14 22 34 45 50 51 54 59 61 62 64 68 75 77 76 79 85 85 88 90 94 95 90 88 83 79 72 73 75 77 79
87 85 80 76 71 61 48 40 40 25 20 16 12 13 19 28 38 43 47 48 52 58 56 59 59 63 70 74 69 74 76 76 79 82 84 88 90 93 96 92 84 76 72 73 74
83 81 77 74 70 60 50 42 40 31 18 17 18 21 22 30 37 42 44 47 51 48 48 49 52 56 62 64 61 61 68 70 73 75 78 83 88 92 95 95 93 90 85 81 78
79 77 74 71 68 58 51 44 39 33 21 20 20 27 31 32 35 37 39 43 44 43 45 46 48 52 58 61 60 57 56 62 64 66 71 77 84 85 84 84 89 94 92 89 86
76 73 69 68 64 56 49 43 38 33 24 14 18 28 34 33 33 34 36 33 32 34 36 36 43 45 52 56 58 60 59 62 60 61 62 66 70 70 67 68 71 74 81 90 94
72 69 66 65 61 54 46 42 37 29 23 18 12 13 22 28 29 29 29 33 33 33 31 33 35 40 44 49 45 47 51 61 61 61 59 59 62 63 65 66 65 64 65 66 71
70 65 63 61 58 51 43 40 34 25 16 14 11 13 15 15 19 22 25 25 25 28 28 32 35 39 43 45 49 50 54 60 60 64 62 63 62 59 60 60 60 62 61 59 58
67 62 58 56 54 48 39 36 31 24 14 9 9 10 10 15 17 16 19 21 23 25 27 27 31 35 41 44 44 42 40 43 50 60 64 62 59 58 53 60 61 59 59 61 60
64 59 54 52 51 45 37 30 31 22 14 7 7 7 10 13 15 16 17 17 17 19 21 22 26 30 35 40 43 43 43 45 47 47 48 49 55 58 60 58 56 54 56 53 53
61 58 52 47 47 43 36 27 24 25 17 11 5 4 7 10 13 15 17 17 16 16 18 20 21 27 32 37 44 49 51 50 48 46 44 47 46 52 51 51 50 51 48 48 49
58 54 50 46 43 39 33 25 21 21 22 15 9 2 3 8 10 12 14 16 17 18 20 20 20 23 28 34 39 44 48 49 50 48 47 45 44 47 50 45 44 44 43 40 42

GFSSW_250_spd_066.txt.gz
Wind_Speed
83 82 82 84 80 74 68 60 54 49 44 40 37 43 51 54 55 58 64 80 83 89 97 110 120 124 123 119 114 114 110 101 96 97 98 100 98 93 88 85 81 78 77 75 73
86 86 87 84 79 75 68 61 56 52 48 44 41 43 50 56 60 63 73 75 80 88 92 106 119 125 127 123 119 115 111 101 98 97 100 101 102 98 93 89 85 83 81 78 77
88 90 88 82 78 72 68 64 59 54 51 49 46 45 49 54 61 70 71 74 78 87 92 99 114 126 128 126 121 118 108 106 102 102 103 102 103 100 97 92 89 87 84 83 81
90 91 86 82 77 73 71 66 60 56 53 52 50 51 51 54 62 71 74 75 75 85 92 95 107 119 125 126 124 120 117 111 109 105 105 105 100 100 100 96 92 90 88 86 85
91 89 85 81 77 75 72 67 63 60 58 57 57 57 55 54 63 73 79 80 78 83 92 96 101 111 120 127 126 124 121 115 113 109 107 105 103 98 97 100 95 92 90 89 87
92 88 85 82 79 77 72 68 65 63 61 58 57 57 57 55 71 75 82 83 81 82 90 94 97 103 118 122 127 126 124 119 116 113 109 107 104 100 98 98 96 95 93 92 90
89 86 84 82 81 78 74 72 68 63 57 53 51 51 49 59 71 73 84 85 83 85 87 93 97 101 108 120 123 130 126 126 121 116 113 110 106 97 99 100 96 91 89 90 89
90 85 84 83 82 78 75 71 65 57 47 44 44 43 50 54 58 58 78 84 86 88 88 92 95 99 104 113 120 127 129 128 124 120 115 114 105 103 101 98 92 92 90 86 85
90 86 83 82 78 77 74 69 59 48 41 36 33 38 47 51 53 56 73 83 86 89 90 90 94 97 100 107 115 123 127 125 126 122 117 113 108 106 103 101 96 92 93 92 89
89 87 86 84 79 76 74 66 53 44 38 32 29 36 37 44 51 52 69 80 85 91 90 87 92 95 98 103 107 110 123 123 125 125 119 115 112 110 107 105 102 98 95 92 90
90 86 86 85 83 80 72 61 54 48 44 31 25 25 30 39 46 53 64 74 83 88 87 84 89 91 94 97 106 108 118 124 123 126 124 120 116 114 110 107 105 103 98 95 92
91 86 85 82 80 78 70 60 53 48 38 28 17 17 25 33 39 51 61 68 77 83 83 83 85 89 90 93 98 103 111 122 128 125 124 122 118 115 112 111 109 105 102 98 94
92 88 87 82 80 76 67 56 47 40 32 21 8 7 16 25 35 50 60 65 72 78 77 79 83 87 86 87 93 99 106 114 123 126 121 120 121 118 115 111 110 108 105 103 100
93 90 88 83 81 76 64 52 42 37 30 16 2 2 11 22 34 44 57 62 68 70 73 77 79 82 79 80 86 93 99 108 116 123 123 119 118 118 116 113 110 106 104 103 101
92 87 86 81 80 75 64 52 43 36 26 13 3 8 10 22 32 46 51 58 64 67 67 72 76 74 75 76 82 89 93 102 109 115 121 118 115 113 115 112 110 106 105 103 97
91 87 85 80 77 72 61 50 41 35 21 16 11 15 16 24 32 39 50 57 62 63 67 69 68 73 75 75 76 83 87 94 104 107 113 113 110 107 108 109 107 105 101 102 100
87 87 85 80 77 72 61 48 43 37 24 15 18 19 21 23 27 36 44 50 55 59 64 67 67 70 68 70 74 79 82 87 95 100 106 110 104 95 97 96 100 100 99 99 96
84 83 81 77 75 71 62 52 45 39 29 18 18 21 18 20 27 33 42 47 50 53 55 58 62 61 64 68 70 72 75 78 83 89 96 104 105 90 82 85 85 86 85 85 84
80 79 77 74 73 69 61 53 46 39 37 21 18 20 22 23 25 32 40 45 47 47 51 56 55 59 59 60 62 64 66 71 74 82 86 94 96 97 86 73 73 77 76 75 73
77 76 74 70 68 64 59 50 46 42 35 33 18 21 24 22 30 35 39 42 43 44 45 47 50 49 49 51 52 52 56 62 66 71 77 82 90 90 95 89 80 75 73 73 74
75 73 71 67 63 60 53 47 44 41 35 31 28 17 23 24 27 34 35 35 35 35 37 38 40 42 44 46 46 45 48 53 58 65 68 72 76 85 89 94 90 87 85 82 83
72 69 67 63 58 56 49 43 38 38 33 25 20 14 10 16 24 25 28 27 27 30 32 34 35 38 40 40 38 39 41 46 51 55 60 65 68 74 82 87 89 90 91 90 91
69 66 62 59 55 52 46 38 35 33 31 23 16 11 9 10 14 15 18 21 25 26 28 29 31 35 36 37 37 38 42 43 46 51 53 59 64 64 65 67 74 82 82 81 81
65 63 58 55 51 48 43 34 29 29 27 21 16 10 7 8 12 14 15 17 21 24 25 27 30 32 37 38 36 38 39 41 42 48 52 54 58 58 58 61 63 63 62 63 67
64 59 54 51 47 45 41 33 24 25 24 22 17 10 5 7 10 12 14 16 18 20 23 26 28 30 33 37 36 37 40 40 42 43 41 51 55 58 57 56 55 56 58 60 60
63 58 53 48 45 41 38 33 22 17 20 21 18 13 6 2 6 12 15 17 19 21 22 23 25 29 31 34 38 40 41 40 39 37 37 41 50 58 58 59 59 57 56 57 58
62 56 51 45 42 38 35 31 23 16 13 15 17 15 9 2 4 8 12 14 16 18 21 23 24 26 29 31 37 38 39 38 36 33 34 33 37 44 50 55 54 56 55 56 56

GFSSW_250_spd_069.txt.gz
Wind_Speed
81 81 81 78 73 69 65 60 56 53 52 49 44 42 46 51 56 58 61 70 76 80 88 94 98 106 115 120 120 117 115 108 103 102 101 102 99 94 90 87 79 82 78 71 74
83 82 82 78 73 69 65 61 58 56 53 51 47 42 45 51 58 62 67 70 73 79 84 91 96 106 115 120 122 122 116 109 106 106 108 106 101 100 94 93 88 85 80 79 76
83 85 82 77 74 68 65 62 59 57 55 52 51 47 46 51 59 69 70 72 71 78 82 88 93 101 111 118 123 124 116 116 113 112 109 106 104 104 100 95 92 91 86 80 78
84 85 81 77 74 69 66 65 61 58 56 54 53 51 50 52 62 68 75 76 72 76 82 85 91 98 106 114 122 126 121 120 120 112 109 110 109 106 103 100 98 92 85 88 84
85 84 79 77 74 69 70 67 66 61 59 56 54 55 53 53 67 74 77 78 76 79 83 84 89 97 102 112 121 125 127 123 120 115 113 111 109 106 107 101 99 95 95 91 89
86 84 80 78 72 68 65 63 65 62 59 56 54 54 53 63 68 72 78 80 81 81 81 84 89 97 102 109 119 126 129 126 123 120 119 113 110 109 108 105 104 99 96 94 91
87 83 79 78 74 73 67 65 62 57 52 49 48 49 50 63 63 70 79 86 84 82 82 84 91 94 98 105 114 125 128 129 126 123 122 119 111 104 108 107 105 103 99 97 94
87 83 79 78 76 75 69 66 63 55 47 42 42 42 49 50 57 64 79 86 87 84 85 85 89 93 97 101 110 120 128 130 129 126 124 121 111 112 108 107 106 104 99 95 92
87 82 79 77 75 73 70 66 60 51 44 38 34 36 44 46 52 59 66 82 89 87 86 87 90 91 94 99 105 114 122 127 130 127 126 123 117 114 109 106 105 102 103 98 94
88 84 82 81 78 75 72 68 58 49 41 36 31 32 38 43 48 51 60 73 86 87 90 89 88 88 92 96 101 105 116 128 130 128 128 123 121 117 110 108 106 102 100 97 97
90 85 84 83 81 77 75 68 58 51 44 34 25 24 28 37 44 47 55 72 86 89 87 89 89 83 88 94 101 103 111 125 133 129 128 126 123 118 114 111 108 105 102 97 94
90 87 84 84 82 78 76 68 60 52 41 32 26 21 24 33 38 46 57 67 65 79 85 89 80 84 88 91 95 99 103 113 128 130 129 129 126 122 117 114 111 109 105 99 95
90 89 84 83 81 79 77 71 60 49 40 32 23 16 14 23 34 46 56 63 69 75 80 84 82 84 86 90 91 95 98 105 113 127 131 128 127 123 120 115 112 110 109 103 99
91 91 87 83 80 78 75 67 55 46 39 31 19 8 10 19 31 43 52 60 69 80 81 82 80 80 83 88 88 90 95 100 106 116 126 128 128 127 124 118 115 112 108 105 101
92 92 88 86 81 76 73 65 52 44 37 28 15 1 10 16 26 38 44 52 64 69 70 74 73 76 83 83 84 84 89 91 99 111 116 125 128 126 124 122 117 113 110 107 103
89 91 88 86 84 80 77 69 58 50 37 26 13 4 11 19 25 34 46 53 60 64 68 67 69 74 78 78 78 78 82 87 93 101 111 117 127 126 126 122 119 117 114 111 107
87 88 87 84 82 79 76 69 58 45 39 25 14 16 14 17 23 33 42 49 54 58 59 61 66 72 72 72 73 74 78 83 88 95 101 106 118 123 122 123 121 118 117 113 111
84 86 84 80 77 76 73 67 56 45 38 26 19 19 18 16 22 27 38 47 55 57 59 62 64 68 65 66 68 71 73 78 81 84 91 99 108 116 115 116 117 118 118 117 116
83 84 81 78 73 72 70 65 54 46 40 33 19 19 18 17 19 27 34 40 43 47 57 60 62 62 61 63 65 66 68 70 74 79 82 91 96 107 112 114 109 110 114 114 113
82 82 79 74 70 67 64 60 50 46 41 36 28 16 19 18 20 21 27 31 35 36 43 50 53 55 56 56 57 59 60 63 67 72 75 81 88 96 103 109 108 103 98 100 105
81 80 78 72 67 62 59 58 46 39 38 35 30 25 15 17 20 25 25 28 31 37 40 41 43 44 43 45 46 48 49 54 58 61 66 74 80 85 95 100 101 100 97 94 89
83 79 78 71 65 60 56 53 47 35 33 32 28 21 17 11 13 17 20 23 25 29 29 31 32 34 34 37 38 40 41 43 48 53 57 63 70 75 83 90 94 92 89 85 78
78 75 75 69 63 56 51 48 42 34 28 27 23 18 12 8 6 10 13 15 17 20 24 26 27 29 30 31 32 34 37 39 42 46 53 58 61 65 72 79 87 91 89 78 69
79 72 70 67 60 54 48 42 39 32 24 22 20 17 12 6 9 11 13 15 18 19 21 23 26 27 28 30 30 32 35 37 39 43 46 51 57 61 65 70 75 80 87 88 86
79 68 65 62 58 52 46 40 35 29 21 16 16 15 10 6 3 9 14 16 19 20 21 24 26 28 28 28 31 31 33 35 39 42 45 47 50 55 61 65 66 68 69 78 82
86 68 62 58 54 50 44 38 33 29 19 13 12 13 11 6 1 4 11 15 17 18 21 23 24 25 27 30 32 33 34 33 33 36 40 42 46 51 58 60 61 63 65 66 68
83 68 60 55 51 47 43 36 31 27 21 13 9 7 8 6 4 2 7 10 14 17 20 23 26 27 28 30 31 34 34 34 34 34 34 38 42 52 53 56 62 65 64 62 61

GFSSW_250_spd_072.txt.gz
Wind_Speed
88 83 78 74 72 68 63 61 58 54 52 52 51 47 46 48 53 57 57 62 65 72 78 86 95 101 105 111 117 121 114 107 101 96 92 93 95 89 91 86 83 78 75 68 71
89 84 81 73 70 66 62 60 56 54 55 53 52 50 48 48 52 56 63 65 67 70 76 83 93 100 106 113 117 116 112 105 102 101 100 102 103 97 93 89 85 85 77 73 79
87 84 79 74 70 67 64 61 56 53 51 51 52 52 51 48 51 62 63 67 68 69 74 80 89 97 106 114 116 115 112 114 110 109 109 108 102 98 97 91 91 89 80 83 83
89 84 79 72 71 70 67 62 60 59 55 52 51 53 52 48 52 61 64 69 69 66 72 79 83 93 103 109 116 115 115 118 118 118 114 109 102 99 104 97 98 95 86 83 82
89 84 78 71 69 67 66 62 59 58 57 57 55 53 55 52 60 63 67 70 71 71 73 77 81 90 100 107 115 117 118 118 121 117 113 108 104 106 108 103 97 93 88 86 87
92 86 79 72 70 70 68 65 59 56 53 52 50 49 51 57 66 60 66 73 74 72 74 76 81 88 99 106 111 115 119 120 123 119 117 112 110 112 105 105 99 96 95 96 90
94 87 82 75 70 69 67 64 60 57 51 44 42 40 45 53 60 61 71 76 78 77 76 76 82 87 93 104 109 112 115 120 122 124 120 117 116 111 110 110 103 101 101 99 96
95 90 86 79 73 71 69 64 59 52 46 39 35 34 39 41 50 58 71 79 79 79 78 78 83 86 89 98 106 108 112 116 121 127 126 123 117 114 115 112 108 107 104 101 98
97 94 87 83 78 75 72 66 60 48 42 37 32 33 34 37 43 49 65 77 81 83 80 82 83 85 89 91 101 108 109 112 120 125 127 125 121 120 118 112 111 109 107 102 102
96 94 90 86 79 77 76 70 62 52 46 37 30 28 30 32 42 47 58 73 83 87 83 85 84 85 87 88 89 98 102 109 115 124 125 127 128 126 118 114 109 110 110 106 101
97 94 89 88 82 79 78 73 67 59 48 36 26 25 25 28 37 44 55 69 82 89 85 86 86 81 81 88 91 95 101 106 112 123 124 128 130 128 122 116 113 111 108 107 102
99 93 91 89 83 81 80 74 68 58 44 34 26 19 18 19 29 38 48 63 75 81 84 86 82 81 84 83 88 90 97 100 105 116 123 130 129 130 125 118 115 114 110 106 103
100 95 92 90 83 82 80 75 69 56 42 37 29 20 12 11 23 36 47 57 65 78 82 79 80 84 82 82 85 87 88 93 101 108 114 124 130 129 126 123 118 114 112 106 103
101 97 93 91 86 82 78 74 69 59 49 40 32 26 12 9 20 32 44 54 64 72 77 78 83 83 81 81 81 84 85 87 94 100 107 121 128 129 128 126 123 117 113 112 105
103 96 97 92 88 85 83 77 71 65 51 43 33 23 10 3 15 27 38 49 59 67 71 75 79 82 78 77 77 81 82 83 90 93 105 115 122 126 127 126 125 120 115 109 108
102 101 94 91 88 85 85 80 76 67 50 43 33 21 8 6 10 18 33 43 52 59 64 63 72 73 72 76 77 79 81 81 84 86 97 104 112 123 125 125 125 122 118 114 108
103 100 94 88 85 82 83 79 75 67 54 43 33 22 15 8 17 21 26 35 46 55 61 65 67 69 71 72 73 75 76 79 79 79 87 95 102 107 124 123 123 121 121 117 112
100 101 95 88 82 79 80 77 72 66 54 41 34 25 17 13 11 24 31 31 37 44 52 56 59 63 65 65 68 68 69 69 71 72 81 87 90 97 112 122 124 121 119 118 116
100 101 98 88 79 75 74 73 68 64 53 41 34 27 16 13 10 12 19 28 33 36 40 47 54 58 62 63 61 59 59 63 63 69 74 80 82 89 96 113 122 120 119 117 115
99 100 98 90 78 72 69 68 64 58 49 40 32 30 23 13 11 8 9 18 28 35 40 46 52 54 51 51 50 54 56 57 59 62 67 72 77 80 89 98 110 121 122 119 119
93 96 94 88 78 70 65 63 60 55 48 37 32 27 24 18 12 12 10 14 18 26 33 41 43 45 43 44 48 51 51 51 52 55 61 67 68 73 81 92 98 104 111 117 121
86 94 95 85 76 68 62 59 58 54 46 36 29 26 22 20 14 11 8 9 16 18 24 27 29 33 36 40 41 43 44 45 45 48 53 58 62 68 74 81 88 94 99 104 109
89 95 93 83 75 68 60 55 51 49 44 36 24 21 19 14 12 9 8 8 12 15 18 18 20 22 26 27 31 34 35 36 38 42 47 52 57 60 65 71 78 84 90 95 98
87 100 90 83 72 65 59 52 47 44 40 34 25 16 13 12 7 4 4 8 10 10 12 15 17 19 23 25 25 28 30 32 35 38 41 45 51 54 59 65 70 77 83 90 92
99 97 88 84 68 63 56 51 46 40 36 31 22 14 9 7 4 1 5 9 13 14 16 17 19 21 23 24 26 28 30 32 34 35 36 41 45 49 53 59 64 69 76 81 83
112 107 84 89 67 57 53 48 44 37 34 29 23 14 6 4 2 1 5 8 12 15 18 20 22 24 26 28 29 29 31 32 32 34 38 38 40 44 49 54 59 63 67 71 77
104 108 80 90 68 53 48 45 41 37 32 28 22 16 10 4 2 2 5 7 10 14 17 20 22 24 26 27 29 31 33 34 36 37 38 41 43 45 48 50 52 56 60 63 67

GFSSW_250_spd_075.txt.gz
Wind_Speed
97 97 88 80 71 64 60 59 55 52 51 50 48 48 49 49 50 54 59 63 63 65 69 74 83 88 90 95 99 101 108 111 105 101 98 97 95 93 88 86 88 82 77 76 73
98 99 91 81 72 64 61 58 54 50 48 50 49 51 52 51 50 55 65 64 64 64 65 72 82 87 89 97 102 104 105 107 108 107 102 103 103 97 90 89 89 76 74 77 75
101 97 99 81 73 67 64 61 58 53 50 49 50 51 52 50 50 60 62 64 65 67 65 71 79 84 88 96 104 105 100 111 113 112 109 110 105 102 96 90 89 81 80 82 81
104 103 98 81 73 68 65 61 59 57 56 52 49 50 53 50 55 60 59 64 67 67 65 69 74 79 84 92 104 101 106 112 118 120 118 114 108 102 99 92 91 86 83 84 81
106 108 96 80 74 69 66 60 56 54 53 54 55 51 51 53 63 64 62 67 69 68 66 68 73 78 83 91 102 104 109 114 123 118 116 112 108 105 99 96 93 88 89 85 84
111 106 99 82 77 70 67 62 55 51 50 49 50 49 45 52 61 65 66 67 70 70 69 68 72 77 84 90 97 109 112 117 120 113 118 116 112 107 102 100 98 93 92 89 86
112 111 103 86 79 74 71 66 58 53 49 42 39 37 40 42 53 62 65 70 72 72 71 71 75 78 84 88 94 107 114 120 118 116 115 116 114 107 107 107 102 97 92 92 92
116 110 106 93 81 78 76 71 62 55 50 41 37 33 32 40 48 56 61 68 75 75 73 74 73 75 80 86 93 101 114 120 120 117 113 117 113 113 113 111 105 101 97 96 97
120 116 106 98 82 79 80 75 65 61 53 44 37 30 30 34 42 50 59 65 76 78 75 75 74 77 83 87 91 97 107 116 121 116 112 115 119 118 118 112 107 105 102 100 99
119 115 108 98 84 78 78 74 67 63 54 43 35 26 25 31 36 46 54 60 74 80 76 76 76 78 82 82 82 89 98 110 115 115 116 115 121 123 119 114 109 107 105 102 100
116 118 111 100 89 78 77 73 66 63 50 41 29 20 19 27 31 39 50 57 68 79 77 76 78 74 73 84 87 90 96 104 113 113 115 116 121 123 122 118 114 110 109 107 103
116 116 111 104 90 81 79 77 69 64 53 47 34 22 14 18 27 36 44 55 67 76 78 75 75 76 80 83 85 88 91 96 105 112 113 120 119 122 124 121 117 115 113 111 108
111 112 114 105 92 87 82 79 73 66 63 56 43 30 14 8 19 32 42 53 64 71 74 74 75 80 78 79 82 84 88 93 99 106 111 117 118 117 120 122 121 119 116 113 109
108 110 111 105 97 90 83 82 77 73 72 59 45 35 21 8 9 27 37 49 60 66 72 75 75 76 75 75 78 82 87 90 93 99 105 115 116 117 117 120 121 120 118 114 112
105 106 104 103 100 90 84 82 78 73 67 58 48 39 28 13 0 19 31 44 55 61 67 74 73 73 73 74 75 78 80 82 86 92 99 102 109 114 118 118 120 123 122 118 113
103 102 97 101 100 93 85 82 81 75 68 62 53 41 30 13 5 11 26 38 48 49 58 67 71 71 71 74 74 76 76 78 82 85 86 93 102 112 116 113 118 122 125 121 116
104 103 96 99 97 88 86 80 78 72 69 64 54 40 32 22 6 6 17 29 39 45 52 59 64 65 68 70 73 72 72 72 73 71 76 85 95 101 108 113 114 120 121 124 120
104 102 100 91 95 92 82 79 77 70 65 61 54 42 31 25 15 5 12 16 30 44 55 60 61 63 67 66 67 68 68 64 64 68 74 79 83 91 101 104 107 112 116 121 121
105 98 95 85 86 87 77 74 71 69 63 60 52 43 29 22 18 10 5 17 20 31 39 45 50 56 59 62 64 64 61 61 61 64 66 70 76 82 90 93 96 104 110 115 118
103 99 92 86 83 83 74 68 65 63 61 54 48 38 27 20 16 16 10 14 20 25 32 39 41 43 48 54 58 58 58 55 56 56 60 63 67 74 80 86 90 97 101 109 113
109 97 89 84 84 79 71 63 60 57 54 51 47 37 28 20 15 15 13 9 12 19 25 31 38 42 48 52 51 52 51 50 53 51 55 57 63 67 74 78 83 89 95 101 107
108 97 87 88 86 82 69 60 56 52 49 47 42 36 26 20 15 13 12 11 9 10 15 21 29 35 39 40 41 42 42 44 45 47 49 51 56 61 65 73 77 82 84 92 100
103 96 95 90 86 81 82 65 54 49 46 43 41 34 25 18 14 10 10 10 9 8 9 10 14 22 28 34 35 34 35 37 38 39 40 43 49 54 61 65 70 73 78 81 88
103 98 93 91 88 83 77 65 54 47 43 37 36 33 25 17 11 8 5 7 9 10 10 12 12 14 17 22 25 28 28 30 32 33 35 37 42 48 53 58 62 67 71 74 80
108 98 96 89 86 80 72 60 52 45 40 37 29 29 25 16 9 4 2 3 8 11 13 15 17 18 20 22 23 26 28 29 31 30 32 37 40 43 48 53 57 62 67 70 74
106 104 94 96 81 78 68 59 50 44 37 35 30 24 21 17 10 4 3 3 6 12 15 17 19 20 22 26 27 27 28 30 31 33 35 37 39 42 46 51 55 58 63 66 69
109 108 99 93 89 77 68 55 50 43 37 31 29 24 20 16 12 9 7 8 11 12 14 16 18 20 23 25 29 31 31 31 32 33 33 34 37 39 44 49 52 55 59 62 65

GFSSW_250_spd_078.txt.gz
Wind_Speed
93 94 94 89 84 79 67 57 51 48 47 46 46 47 49 50 52 55 60 65 67 72 75 77 84 92 96 94 91 88 91 93 92 98 103 102 100 94 89 89 86 82 77 77 72
95 98 100 94 86 76 63 56 53 48 45 47 48 49 50 51 53 56 62 64 67 69 72 74 80 87 95 97 96 92 88 88 95 101 107 110 105 98 91 90 87 83 79 76 74
103 104 101 99 84 79 65 56 54 52 50 47 47 51 51 52 55 62 63 66 69 68 72 72 75 79 90 96 94 90 87 95 103 106 110 114 106 103 98 93 89 84 83 80 73
107 104 103 90 88 80 65 56 51 51 52 52 51 48 50 53 59 63 64 68 70 70 72 72 71 72 82 88 90 90 90 99 109 107 108 113 112 106 102 98 94 90 87 81 79
108 108 107 100 89 81 69 59 51 48 50 52 53 52 51 57 63 63 61 65 70 72 73 73 70 70 78 83 86 88 90 103 106 107 108 115 114 110 105 106 100 95 88 86 82
111 112 109 102 91 80 72 66 59 54 49 44 45 47 50 55 55 60 65 69 69 70 72 71 69 70 76 81 83 88 92 105 106 107 110 117 117 115 110 109 101 97 91 88 86
116 117 116 109 91 80 73 64 61 59 53 47 40 36 40 45 49 56 62 67 70 72 71 71 72 70 72 79 82 88 94 103 105 107 113 116 121 116 114 112 106 103 95 92 91
119 119 119 112 100 86 70 64 61 58 57 51 42 36 31 33 44 52 59 64 70 75 72 71 72 72 73 76 81 87 91 97 104 107 113 113 118 121 119 116 111 102 97 94 92
119 118 117 113 104 90 78 66 62 59 54 44 38 32 28 27 34 46 55 62 68 75 72 73 73 72 73 76 80 83 84 93 104 107 112 112 120 123 122 118 112 105 100 96 94
116 118 119 115 108 100 82 73 65 61 53 44 39 30 28 24 27 39 50 57 64 70 73 75 75 74 73 72 71 79 85 92 103 110 111 115 118 122 123 119 116 108 102 99 95
112 112 115 114 111 99 91 75 66 64 58 52 44 31 24 22 24 32 42 51 59 65 70 76 76 71 67 72 78 84 87 92 100 109 114 117 117 120 122 120 120 113 106 104 101
107 112 107 110 110 99 91 86 74 67 63 59 50 34 20 16 18 25 35 44 55 61 67 71 72 72 73 74 78 83 86 92 101 108 116 119 118 120 119 117 117 117 113 109 107
105 106 108 107 109 105 103 91 76 68 65 63 53 39 27 16 10 16 27 37 49 57 62 65 72 73 74 74 75 80 84 90 96 103 110 116 117 116 113 115 115 117 115 112 108
101 103 105 104 107 105 104 93 78 69 67 61 55 47 31 22 7 11 19 31 43 51 58 61 68 73 73 74 76 79 83 87 92 98 101 112 112 113 114 112 114 114 116 115 111
100 104 104 104 103 104 102 94 88 73 66 62 58 52 36 25 11 5 18 29 38 46 52 57 64 71 72 73 74 76 79 81 88 93 98 101 107 111 114 113 110 113 115 117 115
97 103 104 105 104 105 101 97 91 77 68 65 58 54 42 28 15 4 13 24 31 42 51 54 61 68 69 70 71 73 75 79 85 88 90 95 97 105 111 111 114 114 116 116 116
99 102 102 100 100 101 99 99 91 77 68 62 61 55 47 30 22 9 3 15 27 40 48 50 56 62 64 66 68 68 70 73 77 80 83 87 90 92 100 106 110 112 114 114 114
99 104 103 100 97 98 98 98 90 76 69 63 60 55 49 34 21 12 7 12 24 33 39 44 48 55 58 60 64 66 64 68 73 76 81 83 80 86 94 97 104 109 111 111 110
99 104 105 100 100 98 97 92 85 73 67 61 55 52 46 37 22 15 8 9 19 30 37 40 43 44 50 58 61 60 59 62 65 69 72 70 75 82 86 90 95 101 105 106 109
101 106 110 106 98 101 94 89 80 73 63 55 53 48 43 36 24 13 8 9 12 22 31 40 44 44 46 51 54 57 61 61 59 55 57 61 68 74 81 83 88 93 99 102 103
100 103 107 108 109 97 91 89 85 76 61 51 46 44 41 34 25 13 6 9 12 16 20 30 38 36 41 44 50 54 56 55 51 48 52 55 61 65 71 76 82 87 93 97 99
102 108 110 115 109 101 92 92 85 76 63 50 42 39 37 32 25 17 5 7 13 16 22 27 28 35 36 38 43 49 49 49 47 48 47 53 58 60 63 68 75 78 82 88 89
100 108 111 111 108 104 94 95 90 78 67 52 41 34 32 30 23 17 9 3 13 15 16 23 30 35 36 37 39 43 47 46 44 43 44 50 53 55 58 60 67 71 74 81 84
99 105 109 107 110 108 97 98 92 81 71 55 41 31 28 26 22 15 8 2 5 15 20 18 18 24 29 31 35 36 34 36 35 37 41 43 47 48 52 56 59 66 70 71 73
103 108 110 114 111 108 104 98 93 81 72 53 39 32 26 21 20 16 8 1 3 8 15 20 20 21 23 27 30 31 30 29 32 34 35 40 42 44 45 49 53 58 63 66 69
103 108 113 113 112 109 117 102 91 77 70 52 38 29 24 20 17 17 11 6 7 11 14 17 21 23 25 26 26 28 29 30 29 31 34 34 36 39 40 43 49 52 56 60 62
99 106 109 109 112 108 110 104 94 84 68 54 38 27 22 20 17 16 13 12 11 14 17 19 23 25 27 30 31 31 30 30 30 32 32 34 35 34 37 42 45 50 53 55 58

GFSSW_250_spd_081.txt.gz
Wind_Speed
99 96 97 98 85 88 71 66 57 48 41 43 43 42 43 45 49 54 60 66 67 72 74 80 85 87 87 85 84 84 84 84 87 91 97 98 102 100 96 90 82 76 72 69 70
101 103 100 101 96 85 80 72 57 49 47 45 42 46 45 46 49 55 63 67 69 73 74 80 83 86 89 89 87 83 81 81 88 94 102 97 99 105 101 93 86 82 75 71 73
103 105 106 106 99 90 80 68 58 47 46 48 49 42 45 48 51 58 61 66 68 71 73 80 82 84 86 90 88 86 82 87 88 95 102 102 102 103 98 96 91 88 83 72 74
108 108 107 106 100 92 74 71 58 50 44 48 48 49 44 49 53 58 61 66 70 70 75 77 80 82 84 88 90 89 90 88 90 92 103 105 101 98 96 100 97 93 87 73 72
110 110 110 110 107 95 74 68 59 51 48 47 44 44 49 49 53 56 60 66 71 72 76 77 78 81 81 85 93 94 95 92 91 93 99 104 102 102 99 100 101 97 92 85 71
111 114 114 107 106 95 83 70 60 56 53 51 44 40 42 46 48 56 62 67 72 73 77 77 75 80 82 83 87 95 100 98 95 95 98 102 100 101 102 99 104 101 96 92 86
112 114 116 117 113 103 84 71 65 56 52 50 47 42 37 39 42 49 58 65 71 73 76 78 78 78 79 81 84 90 97 99 98 96 97 101 97 98 106 103 104 105 101 96 91
110 117 119 120 113 102 91 82 71 55 52 49 43 37 34 31 33 42 54 60 66 72 76 74 77 76 78 77 79 84 91 93 93 95 98 99 91 101 107 104 104 108 104 101 95
111 115 119 118 114 107 97 87 76 62 56 51 43 35 32 28 28 34 46 54 62 69 73 74 75 76 78 77 76 76 81 85 91 93 99 96 98 103 107 106 109 108 109 106 102
109 115 118 117 115 111 101 90 78 67 61 58 50 39 32 27 25 28 37 47 58 66 71 75 76 76 76 72 68 66 74 81 87 92 95 96 103 105 107 109 110 110 112 110 106
108 115 114 118 116 110 103 90 84 75 69 62 58 44 33 24 20 23 30 40 49 61 67 72 75 73 73 71 72 72 77 81 86 88 91 96 102 106 106 114 113 112 112 114 109
106 110 114 114 115 112 106 100 90 79 73 69 59 48 38 26 18 17 25 35 42 55 60 63 69 72 72 73 73 73 74 78 83 86 88 96 102 109 108 113 112 115 113 114 113
103 106 109 112 115 115 112 107 95 82 72 69 64 53 42 34 21 13 16 26 35 42 53 61 68 74 76 72 69 69 71 77 80 83 87 95 99 107 106 111 112 115 113 111 111
103 107 103 107 113 113 112 110 99 88 76 66 63 59 48 42 27 12 11 17 27 31 51 59 65 71 71 69 70 69 72 72 74 78 82 89 94 101 109 110 112 115 114 114 110
102 104 104 105 111 111 111 109 105 95 80 70 63 58 51 41 32 16 4 11 20 28 43 53 55 66 71 69 69 68 70 70 74 78 81 86 92 99 107 109 107 112 113 111 110
99 102 101 103 109 110 110 109 104 97 84 75 66 57 53 44 35 19 6 5 17 30 43 49 51 57 62 65 66 69 68 70 72 77 78 85 89 98 103 107 111 115 113 112 112
97 101 101 100 104 110 107 108 105 97 88 75 66 61 52 46 36 26 8 3 15 28 37 41 46 53 59 65 69 68 67 69 68 70 75 80 83 96 100 105 109 110 110 110 109
96 101 100 101 102 108 108 106 105 98 91 83 68 58 52 46 38 27 15 2 10 20 30 37 43 50 56 61 63 62 60 60 59 63 70 74 78 88 95 101 106 108 110 110 106
95 101 99 99 104 107 109 105 104 100 92 87 75 58 50 44 39 31 18 4 6 16 24 32 38 44 47 50 57 58 57 56 59 60 64 67 76 84 90 93 97 102 104 107 106
93 101 98 99 106 106 109 103 100 100 96 90 77 60 48 42 36 31 23 8 3 13 21 29 34 36 41 45 51 53 57 56 56 58 60 64 70 76 84 86 89 91 95 100 105
93 101 101 100 102 107 110 108 103 100 95 89 80 65 47 39 33 29 22 12 2 7 17 24 28 31 34 40 47 50 51 50 53 52 55 58 62 68 74 77 80 84 87 92 97
92 98 101 104 102 107 112 111 107 105 100 89 82 69 49 36 28 25 22 15 3 10 12 16 22 28 36 41 45 48 49 49 46 50 52 52 54 60 63 72 75 79 81 84 88
91 97 100 101 100 109 110 107 105 103 98 91 80 68 49 36 26 21 16 12 6 8 14 17 18 21 23 28 37 43 46 48 48 49 49 48 53 57 60 64 68 73 76 79 81
90 96 100 103 104 107 102 101 98 99 97 88 77 68 47 37 26 19 13 8 6 8 14 18 22 24 26 30 32 39 43 44 46 44 48 47 54 56 56 58 62 66 69 72 74
91 97 100 103 102 111 101 100 96 94 90 83 72 66 46 31 26 17 15 7 6 9 13 18 22 23 25 26 27 27 32 36 37 42 39 45 47 52 52 52 54 58 61 64 67
93 97 99 102 105 107 104 95 96 98 84 75 67 59 44 29 26 17 14 10 8 9 14 17 22 23 25 25 27 30 31 31 30 33 37 41 45 46 47 46 47 49 52 55 59
91 94 97 103 104 108 102 91 85 87 83 71 63 50 41 31 22 20 13 13 11 11 15 19 24 25 28 29 30 32 33 31 32 32 36 38 42 39 42 42 42 45 47 51 55

GFSSW_250_spd_084.txt.gz
Wind_Speed
92 95 100 102 98 95 90 75 71 61 55 43 38 36 39 40 45 50 56 65 68 70 76 83 85 85 85 84 82 79 79 81 84 85 89 96 95 94 98 95 88 83 77 74 70
91 96 102 105 103 97 92 80 72 65 55 46 39 36 37 43 45 50 56 63 67 73 77 80 85 86 86 86 84 81 76 76 87 87 92 99 98 95 101 98 93 86 83 78 73
97 96 102 107 105 100 96 78 70 64 57 42 40 39 38 40 47 49 56 62 66 71 76 75 81 84 86 86 86 81 76 77 85 90 91 99 100 96 96 99 94 89 86 82 73
96 102 104 110 108 104 99 87 66 62 59 45 38 36 39 44 44 48 52 59 64 69 74 75 78 80 83 83 85 84 79 81 83 90 90 97 99 97 92 95 95 93 88 84 81
98 104 108 108 111 106 102 94 77 57 53 45 40 40 37 40 42 44 49 57 62 67 71 76 79 78 79 81 85 86 84 84 84 87 89 95 98 99 93 98 91 92 93 88 84
97 105 110 111 112 107 101 95 84 62 51 40 40 39 39 38 41 42 45 57 62 67 70 74 78 79 81 82 82 87 88 88 87 84 90 92 97 99 95 94 92 90 94 91 90
99 106 109 113 113 107 101 95 88 69 54 45 41 39 35 34 36 39 44 51 57 65 68 73 78 79 80 81 80 83 89 91 88 86 88 92 93 93 96 97 92 90 93 96 94
99 104 109 115 114 110 105 102 88 76 61 50 44 41 39 33 30 32 39 46 52 62 68 72 76 77 77 79 81 83 87 92 91 89 88 91 91 91 97 97 95 92 92 98 98
97 103 109 114 113 110 108 103 98 83 63 55 45 47 44 37 29 25 34 40 47 55 65 72 74 77 77 80 82 79 79 85 91 91 90 88 91 94 92 96 96 96 95 96 100
96 102 108 110 115 114 109 108 102 89 68 57 51 49 46 37 29 20 25 34 40 47 60 71 73 76 77 78 70 67 76 81 88 92 91 91 92 94 93 94 99 98 98 98 98
95 102 106 109 112 112 112 110 106 95 76 57 57 49 47 38 30 21 19 26 33 43 55 67 67 69 72 73 75 74 79 83 88 91 92 95 96 94 93 94 94 97 100 100 100
93 99 104 107 107 106 110 112 104 101 87 67 61 52 50 41 32 23 15 18 26 34 45 55 62 68 71 75 74 74 76 81 86 87 92 96 98 97 93 92 92 94 101 104 102
93 99 101 105 107 107 111 113 109 105 102 80 66 56 52 45 36 27 15 12 17 28 34 48 59 63 68 72 75 73 73 77 79 82 84 91 94 94 94 93 94 94 100 103 100
91 97 99 101 107 105 108 114 111 107 104 92 72 61 55 47 37 28 16 8 13 20 28 44 53 57 63 72 70 72 74 77 77 77 78 84 83 88 90 92 95 94 98 100 102
91 96 99 101 105 103 107 114 110 110 107 97 82 68 56 52 41 31 17 6 10 22 29 42 47 53 62 67 69 73 74 73 72 70 71 73 75 80 84 88 92 95 98 101 101
88 94 98 100 102 105 103 112 111 110 107 103 94 73 60 52 44 33 21 8 9 19 31 39 45 52 59 66 67 71 68 68 69 69 68 69 70 75 79 86 94 98 100 103 105
88 90 95 97 100 105 104 111 114 110 110 108 94 81 68 51 46 34 26 11 3 14 28 33 39 47 56 59 63 65 66 67 65 64 61 63 64 73 76 82 89 95 98 102 104
87 90 93 94 101 104 108 113 117 117 110 103 93 86 71 56 44 38 27 15 3 10 19 27 31 34 42 51 60 64 62 59 57 55 57 61 59 69 70 77 83 90 96 98 105
86 89 92 96 99 104 113 112 117 111 108 106 97 84 75 64 45 37 28 21 5 7 13 21 28 35 41 47 55 58 56 54 54 56 57 56 57 67 66 74 78 84 90 96 104
84 89 91 94 98 105 110 114 114 112 107 105 100 88 74 65 49 37 29 20 9 2 11 17 28 37 42 48 52 54 55 53 54 55 55 55 55 60 63 68 74 78 84 91 99
85 88 91 93 97 103 105 110 115 113 108 101 93 84 74 62 48 34 30 21 11 0 10 17 25 32 35 37 39 43 44 47 51 51 51 52 54 58 62 64 69 73 79 85 93
86 87 89 91 96 102 105 108 113 112 105 95 86 81 70 59 44 33 26 20 12 4 5 13 20 25 30 36 39 43 46 49 50 51 51 52 53 54 59 62 65 70 76 81 86
85 85 89 91 93 100 106 110 111 110 106 94 87 74 63 56 40 29 23 18 14 6 6 12 18 24 28 33 36 40 42 45 46 47 47 47 48 50 56 59 60 67 72 76 79
83 82 87 91 94 100 104 103 104 107 101 94 84 73 62 53 36 25 20 16 11 9 5 10 18 23 30 39 42 44 45 47 48 46 46 44 50 50 53 56 59 64 68 71 75
81 82 87 92 95 100 105 102 104 106 102 92 82 71 61 47 31 23 16 16 10 8 7 9 17 23 23 26 30 36 36 36 37 43 42 47 42 50 53 56 58 61 60 64 69
80 84 89 90 91 98 107 105 98 99 102 96 82 70 58 41 29 24 15 15 12 9 8 10 15 20 26 28 28 29 31 35 40 41 41 46 45 51 52 51 55 54 56 57 62
79 83 88 88 94 101 105 106 98 100 100 93 80 70 52 39 26 22 15 15 13 11 11 11 13 16 22 25 27 30 34 32 35 39 42 40 49 45 49 49 47 48 51 52 56

GFSSW_250_spd_087.txt.gz
Wind_Speed
82 86 91 93 97 95 99 100 93 88 76 72 54 45 39 36 37 44 52 61 63 64 71 79 87 93 93 93 91 88 87 82 83 87 88 93 96 98 95 97 95 92 84 80 74
83 87 92 97 100 100 101 101 95 90 66 66 55 47 35 34 37 42 46 53 59 65 68 76 83 92 94 92 91 89 82 80 85 89 92 97 97 100 98 96 93 92 88 83 78
83 87 91 97 102 102 103 98 90 86 71 59 53 49 36 32 36 38 46 52 56 63 66 73 80 88 91 92 90 87 80 82 86 89 92 100 98 97 98 95 91 89 89 87 83
82 86 91 97 102 106 106 103 96 86 78 58 46 46 38 34 32 37 44 49 55 61 65 70 77 82 87 92 91 86 83 85 88 89 92 97 100 97 95 93 94 89 90 91 87
82 87 92 97 103 109 105 105 103 87 77 61 46 42 36 34 33 32 41 46 52 58 64 69 75 78 80 87 91 87 84 84 88 90 91 94 98 97 94 95 94 91 89 93 90
82 87 91 96 104 108 107 104 106 94 79 63 50 41 36 31 32 30 33 43 49 55 64 70 73 78 78 83 88 89 86 87 88 90 91 92 94 95 94 93 94 93 89 91 94
82 87 90 96 105 110 109 106 104 93 78 63 52 45 38 32 29 28 30 37 47 55 62 69 73 75 77 81 84 87 88 88 87 89 89 90 89 87 96 93 94 94 91 88 94
82 85 88 94 103 109 110 107 105 95 80 64 54 48 45 37 31 28 27 32 40 49 58 65 70 74 79 80 82 84 87 89 88 87 88 87 87 88 96 93 94 95 94 90 94
81 84 87 95 101 107 108 108 105 97 82 66 57 52 45 43 33 30 25 26 33 44 53 61 70 73 77 80 81 81 78 80 87 88 87 86 87 87 92 93 92 95 95 90 90
82 84 87 92 100 105 108 105 104 99 88 72 62 57 48 48 38 31 24 23 29 40 48 59 67 72 74 79 77 74 75 78 85 87 87 87 88 88 90 92 92 93 95 93 92
82 84 87 91 100 106 109 102 98 99 92 77 70 55 49 46 42 31 22 17 23 32 40 53 61 63 71 73 73 75 77 78 84 87 88 88 91 90 88 88 90 89 92 91 91
82 83 86 91 97 104 106 107 99 97 94 87 78 61 55 46 44 37 23 12 16 24 34 43 55 65 71 70 72 75 75 75 80 83 86 90 91 92 88 86 88 88 89 93 93
81 82 86 91 98 103 105 109 103 98 98 94 82 69 58 50 43 36 26 12 12 18 28 40 51 59 65 68 69 71 72 74 77 80 82 87 90 89 89 87 85 84 86 90 92
81 83 85 89 97 102 103 111 105 99 99 96 91 78 63 55 44 41 30 17 8 14 25 36 45 53 58 62 68 69 72 75 77 78 79 83 86 88 90 88 84 84 86 87 93
80 83 85 89 96 102 103 108 106 104 105 99 96 84 72 59 48 41 32 20 8 12 27 34 37 43 51 64 65 68 72 75 75 73 75 76 78 83 87 87 86 86 87 90 92
78 82 83 89 97 100 100 108 110 109 103 104 99 90 78 60 51 41 34 20 9 8 23 31 39 45 54 60 63 68 71 71 71 70 70 71 73 81 86 88 88 91 89 90 93
77 80 81 88 95 99 104 108 110 106 106 105 99 93 81 68 52 41 35 24 12 5 13 23 33 45 51 58 62 66 66 66 69 67 65 67 68 77 80 83 85 88 90 91 91
76 80 82 85 93 96 102 107 110 103 103 108 101 94 82 72 57 44 33 26 14 4 6 18 28 40 47 53 59 61 63 61 58 57 60 63 63 71 74 79 81 84 88 91 93
75 78 80 85 90 94 100 105 105 109 100 104 98 99 88 71 60 45 31 25 14 4 5 12 26 36 44 47 47 53 57 56 56 59 63 63 63 72 72 74 75 77 80 85 90
72 78 80 83 88 92 97 104 107 108 103 102 99 95 88 73 59 45 30 22 14 5 5 11 20 31 36 34 44 49 51 54 55 56 59 60 62 66 68 66 67 69 73 78 84
70 76 77 83 88 90 93 98 108 114 103 103 96 92 84 75 59 44 27 19 13 6 4 12 19 29 33 38 41 44 48 50 52 53 55 57 59 63 64 58 60 64 68 74 78
70 74 74 82 85 87 93 98 104 115 113 98 94 94 87 74 56 41 26 16 11 5 4 11 19 28 34 35 38 41 45 50 52 52 53 55 57 60 59 56 59 61 63 67 72
68 72 73 79 82 84 90 96 105 113 113 99 97 90 89 75 52 38 25 15 9 5 5 8 15 21 26 30 33 36 40 43 45 48 49 50 51 56 58 58 58 58 58 63 68
67 69 72 77 82 83 88 94 101 110 121 98 98 94 84 72 50 35 25 15 9 2 8 9 17 25 33 36 39 44 46 48 48 48 50 50 55 57 56 54 52 54 58 62 67
66 68 72 77 82 84 89 93 101 106 113 104 98 90 82 66 49 33 24 16 8 4 4 10 18 25 31 36 40 41 42 43 43 45 46 49 48 53 51 49 50 55 59 59 61
66 67 72 76 81 84 90 94 97 105 113 108 99 90 79 62 45 33 25 16 10 5 4 8 14 23 27 29 33 35 36 37 39 41 44 48 51 53 46 48 52 56 57 57 60
65 67 71 76 81 85 87 91 99 104 112 108 99 87 75 58 44 34 26 17 11 8 6 8 11 17 25 30 32 33 36 37 38 41 42 42 49 44 47 50 52 54 52 53 54

GFSSW_250_spd_090.txt.gz
Wind_Speed
79 80 82 81 84 86 87 88 93 97 96 96 94 74 58 32 30 35 35 41 49 59 67 76 79 86 94 99 101 101 99 96 95 96 98 99 100 99 97 100 98 95 90 86 83
79 81 84 82 84 87 91 92 90 97 96 95 93 73 54 37 27 30 33 37 46 56 63 72 77 83 89 95 98 99 96 93 96 99 101 102 101 100 98 97 101 99 94 89 86
80 82 85 83 86 87 91 94 94 100 101 92 91 72 53 43 32 27 32 35 43 51 60 69 74 80 85 91 96 97 92 96 100 100 97 101 103 101 99 95 94 97 98 94 90
81 82 83 85 86 88 90 97 93 100 98 90 88 71 52 40 31 27 32 36 41 48 56 65 72 76 80 87 92 95 94 95 98 101 99 99 105 101 98 95 95 96 95 95 93
81 82 83 87 87 88 91 98 96 96 98 89 79 71 51 38 32 28 29 37 44 48 55 63 68 74 77 82 88 92 92 94 98 100 99 99 101 102 98 97 96 95 94 94 94
80 82 82 86 91 89 94 99 101 98 97 89 71 65 50 39 32 27 28 33 44 51 58 62 68 72 77 81 81 88 92 94 96 99 99 97 101 100 99 97 95 94 94 92 93
78 81 82 86 91 89 94 100 102 102 100 89 71 64 51 40 34 31 27 31 39 51 60 65 69 73 76 79 80 84 88 93 95 98 97 97 99 93 97 98 98 95 93 93 92
79 80 82 85 91 90 95 102 102 103 98 91 70 62 56 41 32 31 28 26 33 44 55 67 73 75 77 79 82 84 87 92 94 95 96 98 95 96 96 97 97 97 93 94 93
78 79 80 84 88 89 94 102 105 104 96 92 73 63 55 43 35 31 28 25 27 36 49 62 72 76 78 79 82 83 82 86 92 93 93 94 97 95 94 94 95 96 95 92 95
75 78 79 83 87 88 93 102 105 105 98 89 78 62 51 44 38 33 29 25 25 30 41 55 67 74 77 80 78 75 78 85 92 93 91 92 93 96 93 93 94 94 95 94 93
74 77 78 81 85 87 92 101 106 105 98 92 81 68 56 46 40 34 31 26 23 25 34 49 57 66 73 76 72 73 79 84 90 91 92 94 96 96 93 91 91 92 91 94 92
71 76 77 81 85 87 93 99 104 103 97 88 84 70 61 48 41 35 32 25 20 19 28 42 54 72 74 73 70 75 78 82 87 91 94 94 91 93 91 90 89 89 88 90 94
69 75 77 81 85 86 91 98 102 101 100 90 84 75 64 56 43 37 31 26 19 14 25 41 53 61 67 69 72 75 76 81 82 87 91 93 94 93 89 88 87 86 86 87 92
68 73 76 79 84 85 88 97 102 102 99 88 87 81 68 58 52 41 31 27 19 10 20 37 47 55 64 69 71 70 75 80 81 85 90 93 93 91 89 88 88 87 86 85 89
67 71 73 76 82 83 90 95 98 104 98 91 91 85 70 63 54 44 30 27 21 12 14 30 41 49 60 62 65 69 73 77 81 83 83 87 91 89 88 87 86 85 86 85 88
65 70 72 75 80 81 87 93 96 105 98 92 90 88 77 64 57 45 29 24 19 10 7 20 36 44 54 60 64 70 71 76 80 80 80 82 83 83 85 88 89 89 88 87 87
62 67 70 74 79 80 86 92 94 104 106 91 91 91 80 68 55 45 30 22 18 7 5 15 31 41 51 58 65 70 72 75 76 72 71 73 73 78 83 87 90 90 88 87 85
60 64 67 73 77 80 86 92 94 101 103 93 95 91 80 69 54 44 30 20 17 5 6 16 27 41 51 59 64 67 66 63 59 61 65 65 67 75 80 83 86 87 86 87 88
57 62 65 70 76 79 86 90 95 99 106 94 92 93 80 69 57 42 29 18 16 6 6 14 24 39 48 55 57 57 59 60 61 66 68 68 69 77 78 79 79 81 83 86 88
54 60 63 68 73 77 83 88 94 102 111 100 91 93 81 67 58 43 28 18 14 7 5 14 19 31 43 50 54 54 55 58 62 64 65 67 71 76 76 75 75 76 78 80 85
53 58 62 66 69 75 81 85 92 102 109 100 90 94 83 71 58 42 30 17 12 6 3 14 21 25 31 38 42 46 50 54 60 61 63 65 70 73 73 71 71 72 73 76 79
52 56 59 64 67 73 79 83 92 100 107 105 95 90 82 70 57 43 32 19 11 6 4 12 19 23 25 30 38 46 50 55 59 62 64 66 66 68 71 69 66 66 68 70 73
50 57 59 62 65 71 78 82 89 96 104 108 90 84 80 69 55 44 33 22 11 6 5 13 20 23 31 37 42 47 50 52 54 58 61 63 64 67 68 66 65 63 65 67 69
48 55 57 59 62 69 75 81 88 96 103 106 98 87 79 71 57 45 34 24 12 6 4 12 23 29 34 40 44 46 50 53 56 57 59 61 64 67 65 62 59 60 62 64 66
48 54 57 59 62 68 72 80 87 94 98 104 105 85 81 70 60 50 37 26 15 6 4 9 22 30 35 40 44 46 48 51 53 57 58 62 61 62 60 59 57 59 61 61 62
48 53 55 57 62 66 71 78 84 91 93 104 106 90 87 79 62 52 42 31 18 7 4 8 16 26 33 40 44 46 48 51 53 53 56 58 60 58 54 54 55 56 60 58 61
48 53 55 55 61 63 70 77 84 90 89 94 101 92 85 77 73 55 44 35 23 9 5 6 12 21 30 35 39 42 46 46 49 51 52 53 56 52 51 53 53 54 55 59 63

GFSSW_250_spd_093.txt.gz
Wind_Speed
74 76 79 82 87 84 84 86 82 84 87 92 92 92 93 88 68 39 35 35 41 47 56 64 74 85 94 96 101 106 106 105 104 106 102 97 101 103 104 99 102 100 93 90 88
74 76 80 81 87 87 85 88 86 85 86 94 92 89 90 88 73 44 34 33 35 37 47 60 69 83 89 96 98 103 98 101 104 105 103 105 104 104 103 101 104 101 97 95 91
74 77 80 82 86 87 86 88 89 89 87 90 91 90 86 85 73 47 34 32 31 31 39 52 63 77 85 90 96 97 95 99 106 110 109 106 106 104 105 102 102 103 101 98 95
75 76 80 83 85 88 84 86 91 93 90 93 93 90 87 84 72 49 32 30 31 31 36 46 57 69 80 85 91 93 96 101 104 108 107 104 105 102 101 102 103 101 101 100 96
75 76 80 81 85 89 86 88 88 93 90 93 93 91 84 84 69 48 33 28 31 34 36 44 53 63 74 81 87 90 97 99 102 104 106 108 106 104 104 106 102 99 100 100 98
75 77 79 81 85 88 87 90 89 93 95 94 95 90 81 79 66 51 33 28 29 35 36 44 52 60 67 76 80 91 94 96 98 102 108 108 104 106 105 104 98 100 101 99 100
74 76 79 79 84 89 87 89 88 91 98 96 94 92 82 74 64 53 39 29 28 32 40 46 52 58 66 72 78 87 88 93 95 96 104 107 107 103 104 101 102 99 100 98 97
72 73 79 79 82 88 86 87 90 90 97 98 92 90 85 74 64 54 38 31 28 31 39 48 55 60 66 71 79 84 88 90 91 93 101 107 102 104 104 100 100 100 98 98 97
71 72 77 78 81 87 83 87 90 93 98 98 96 87 88 75 62 54 40 29 28 28 36 45 55 62 68 74 81 85 85 84 89 91 100 104 103 106 104 97 100 99 100 98 96
70 72 76 76 81 85 85 86 89 95 100 101 98 91 91 78 66 53 39 29 25 26 32 43 53 63 71 73 75 78 81 82 86 87 95 100 103 104 103 96 99 98 98 99 97
68 69 74 74 80 82 83 87 88 95 100 103 99 98 89 81 69 52 38 30 24 23 27 37 49 60 67 71 76 80 84 82 87 87 92 98 102 102 100 99 100 98 95 97 98
64 66 71 73 77 80 81 86 89 95 101 104 102 96 92 84 70 49 37 28 22 19 21 30 44 61 70 76 77 78 82 81 84 84 88 96 98 99 99 96 97 96 95 95 97
62 64 68 72 75 76 80 85 89 96 99 105 103 95 89 85 68 50 36 26 21 17 17 28 43 58 69 76 79 79 82 82 80 80 87 94 98 97 95 95 95 95 94 92 93
60 62 65 70 72 74 79 84 87 97 99 100 97 96 89 84 67 51 36 24 19 13 13 23 36 51 66 74 76 77 82 84 82 81 85 90 92 96 98 94 94 95 93 91 91
58 59 62 67 69 73 77 81 88 97 100 98 91 92 95 84 68 52 35 23 18 11 9 17 29 46 61 68 71 75 78 79 77 82 87 89 94 96 95 92 92 93 93 91 90
54 56 59 64 66 71 75 79 88 96 99 97 91 90 92 83 67 51 35 22 18 10 7 15 25 40 53 60 68 74 78 78 81 84 85 87 87 93 89 89 91 89 90 91 91
48 53 56 62 63 68 74 77 86 93 97 95 91 89 90 81 64 49 34 22 17 10 7 14 19 36 50 59 68 74 77 78 82 82 80 82 85 88 85 88 87 89 89 88 89
46 50 54 58 61 67 72 75 84 90 97 92 89 91 89 77 60 48 37 24 18 10 7 11 18 30 45 50 61 69 73 75 78 74 73 75 77 82 86 88 87 88 88 88 88
45 48 51 57 59 65 69 73 82 89 93 96 88 92 88 74 59 50 39 27 19 12 5 10 18 27 36 44 57 67 70 70 71 70 72 73 75 80 80 84 88 88 87 88 87
43 47 49 54 58 62 66 72 79 84 93 98 90 88 86 75 59 50 39 29 20 14 6 9 17 24 35 47 59 64 67 68 68 67 71 71 75 75 78 82 83 84 87 90 88
42 46 47 52 55 59 63 70 75 81 88 95 96 88 85 83 63 50 40 30 22 17 8 7 15 20 32 42 49 55 57 59 60 64 69 72 74 73 77 78 78 81 86 87 86
42 44 45 49 54 59 61 68 73 79 87 98 102 88 86 82 63 50 40 31 22 18 12 4 12 17 24 35 45 53 54 55 59 63 68 71 69 72 74 73 75 79 80 79 79
43 43 44 46 52 57 60 65 71 76 85 96 100 98 85 81 64 50 43 33 23 18 13 7 9 16 20 32 45 50 51 54 59 63 65 68 70 72 73 73 73 74 75 74 73
40 39 42 45 50 54 58 64 68 74 83 91 97 102 91 78 67 55 49 37 25 18 14 8 9 19 25 31 39 45 51 55 58 62 65 68 70 72 72 72 71 71 71 67 68
40 40 41 42 49 53 55 60 65 71 81 90 93 100 91 82 70 59 53 44 30 19 14 10 8 21 32 35 39 44 49 53 57 61 64 67 67 66 67 68 68 70 67 65 68
38 37 39 41 48 49 55 60 65 70 77 86 90 97 99 88 74 66 57 49 36 21 12 9 6 18 28 40 45 46 48 51 54 57 61 64 67 66 66 64 63 63 64 63 66
36 36 38 39 46 48 55 59 62 67 75 82 89 95 99 98 84 75 59 53 38 26 14 8 7 11 20 31 37 40 46 49 51 55 59 63 63 61 62 64 64 64 64 63 63

GFSSW_250_spd_096.txt.gz
Wind_Speed
72 74 78 81 83 85 88 90 87 90 79 82 81 83 83 80 80 78 71 53 38 32 36 41 53 70 77 84 87 96 101 103 100 103 103 107 99 99 105 104 104 102 92 89 92
73 75 78 82 84 86 89 91 91 92 82 84 83 84 83 81 81 81 76 53 38 30 34 42 49 61 72 81 89 96 96 97 102 103 109 110 102 103 104 103 104 100 96 95 95
74 76 79 81 84 86 89 92 93 95 84 88 86 86 86 84 80 77 76 57 38 32 33 39 49 59 69 79 83 89 93 101 105 108 113 112 106 107 103 101 108 104 102 101 99
73 76 78 81 85 86 89 93 95 96 89 89 89 87 90 86 84 82 74 57 38 32 32 38 45 55 65 73 80 83 96 103 109 111 110 108 109 105 104 102 110 105 102 104 101
71 75 79 81 85 85 88 94 96 96 90 90 91 90 92 87 90 82 71 53 36 31 32 37 42 51 61 71 76 80 95 104 109 108 106 109 109 109 106 105 105 101 99 101 104
72 76 78 81 84 84 87 93 96 96 89 89 91 92 93 90 89 81 71 49 33 29 32 35 40 48 54 66 73 83 93 103 108 108 108 109 110 107 109 108 105 98 100 101 102
72 76 79 81 83 82 86 93 96 94 91 92 91 93 93 95 85 85 69 46 33 25 31 34 38 47 51 60 68 78 86 95 100 104 104 107 110 110 108 109 104 96 99 98 101
71 74 78 78 79 80 85 93 96 94 90 94 94 95 98 95 90 83 67 44 31 23 28 35 37 43 53 58 64 74 85 92 97 103 103 106 105 106 109 111 101 99 103 98 100
71 75 77 74 76 78 84 90 93 93 91 94 95 97 98 98 92 78 61 42 29 23 26 33 36 41 52 57 62 69 75 84 94 100 100 101 100 105 106 107 100 98 102 99 98
72 76 76 73 73 77 83 88 91 91 92 96 96 95 101 97 91 73 56 39 28 23 25 31 35 41 49 58 59 63 73 82 88 97 97 102 99 103 107 103 103 101 102 100 98
72 75 73 69 71 76 83 86 87 83 87 95 97 100 99 94 90 67 51 37 26 22 24 29 34 42 47 60 63 68 76 85 90 95 96 101 104 104 103 101 103 103 99 99 99
72 71 70 65 68 75 81 85 85 85 88 97 100 100 98 93 85 67 50 36 25 22 23 26 35 42 48 58 64 67 74 82 88 92 93 98 101 101 99 100 100 102 102 100 101
70 68 60 61 66 75 78 81 81 83 85 97 99 98 95 90 86 70 53 35 24 21 21 25 30 38 48 59 66 66 71 80 86 83 86 95 100 100 95 97 100 100 101 100 95
67 64 55 59 63 71 75 79 76 80 85 95 99 100 94 88 79 71 53 35 22 18 19 21 25 35 46 55 60 63 71 78 81 83 87 93 92 93 91 93 96 96 99 93 92
65 55 54 55 61 67 71 75 75 79 89 94 98 98 94 91 78 66 51 33 23 18 17 19 21 30 45 54 63 69 71 72 78 83 88 91 91 92 91 91 93 93 95 95 93
55 46 47 53 60 64 68 71 73 76 84 92 96 97 93 93 79 62 48 33 23 19 16 14 16 26 40 53 61 69 70 73 80 85 89 82 81 84 83 83 89 91 92 93 92
43 41 45 50 55 61 66 67 70 75 80 89 93 95 92 90 82 66 48 33 23 19 15 9 13 24 36 48 58 67 72 75 82 84 81 79 80 80 83 85 86 87 88 91 91
36 37 43 48 54 59 62 65 67 73 79 86 94 94 94 90 78 64 46 33 23 19 15 8 9 17 28 39 52 62 67 72 74 77 76 76 74 76 76 78 82 84 86 85 83
32 35 40 45 52 56 57 61 64 69 75 83 90 94 92 87 82 63 47 36 25 19 14 9 6 14 21 31 43 52 62 68 73 76 73 72 71 73 71 75 80 83 83 82 85
30 34 38 43 49 53 56 58 62 70 73 80 89 93 90 83 77 64 49 38 27 21 16 12 5 7 15 26 38 49 62 66 69 70 70 69 69 71 72 76 81 81 82 84 84
28 30 37 41 46 51 54 55 59 69 71 79 85 93 88 84 77 63 51 39 29 22 20 15 5 6 14 19 31 46 58 59 64 65 66 69 69 70 71 75 77 78 81 84 86
29 31 35 38 43 47 50 53 58 65 68 74 83 91 90 84 74 61 54 41 33 23 21 16 6 4 14 22 29 44 51 53 57 60 64 66 67 70 72 74 76 78 81 84 83
29 30 33 37 42 45 47 47 57 64 66 73 83 89 88 82 75 60 54 45 37 25 21 19 9 6 14 25 35 41 46 50 54 59 64 62 64 68 70 70 72 76 78 77 79
26 30 32 36 39 42 45 46 55 61 65 72 79 84 86 82 77 68 57 49 39 32 22 19 12 6 15 24 31 38 44 49 52 55 58 61 62 65 67 67 68 70 69 71 76
26 29 32 33 36 39 41 45 53 59 62 70 77 82 86 87 79 73 61 56 48 37 27 18 11 6 14 20 25 34 39 45 49 52 54 58 59 61 62 63 64 65 66 70 72
25 29 32 32 33 37 40 44 51 56 62 68 76 80 87 90 83 78 71 60 52 45 32 21 11 8 11 17 23 30 37 42 46 49 55 59 59 60 62 64 64 65 67 69 71
24 26 30 30 32 36 38 42 49 54 61 67 73 80 86 89 91 84 76 73 59 50 41 27 18 10 10 15 24 29 34 40 45 48 52 56 56 57 62 64 66 67 69 70 71

GFSSW_250_spd_099.txt.gz
Wind_Speed
64 63 63 66 71 75 79 84 88 90 89 90 91 89 82 73 73 74 70 63 61 59 47 38 45 45 53 69 85 98 100 100 102 104 107 118 109 102 102 103 106 109 99 97 96
64 64 66 66 73 76 79 86 91 91 92 91 96 91 85 76 79 78 80 69 60 60 47 36 40 41 46 60 80 87 94 94 100 106 112 118 112 108 103 99 105 97 99 102 101
65 64 67 68 74 77 81 86 91 92 93 93 98 95 89 78 79 85 81 72 68 58 44 34 38 39 48 54 70 77 87 94 97 100 110 117 115 112 105 102 102 97 93 100 101
65 65 67 70 73 78 82 87 92 94 94 95 99 99 88 82 83 82 82 78 71 53 41 31 35 38 48 48 60 66 88 96 99 102 106 116 114 108 102 106 106 103 96 99 101
64 66 64 69 74 79 83 88 91 94 95 96 101 100 91 83 85 85 83 81 66 47 34 28 33 36 43 51 52 72 89 94 102 103 106 111 111 111 106 105 105 97 88 97 101
63 65 66 70 75 79 84 89 91 94 96 98 101 100 90 86 89 88 87 78 62 43 29 28 32 35 42 47 52 71 84 93 96 99 108 110 110 111 108 103 104 99 92 88 100
64 64 66 71 74 79 85 88 92 93 95 98 100 101 88 87 90 91 87 74 56 39 27 28 31 34 40 45 56 69 80 89 93 96 104 106 108 107 108 105 107 104 101 96 96
63 65 66 72 75 78 83 86 90 92 95 98 99 100 92 91 90 91 87 67 51 36 25 25 28 35 42 46 55 67 79 84 89 95 100 100 99 106 111 108 104 105 103 101 98
66 65 67 72 75 78 82 84 88 91 92 96 96 98 91 91 90 88 79 59 44 29 21 23 26 34 41 48 57 67 73 80 89 96 97 97 99 101 105 108 107 108 107 104 100
67 66 68 71 74 77 80 82 85 90 91 92 93 94 87 91 92 86 73 54 39 26 18 21 24 30 38 47 54 62 72 81 87 95 96 98 104 103 101 107 111 104 106 103 101
66 65 69 72 73 77 76 79 83 84 87 86 90 90 86 92 92 82 69 52 38 23 16 18 23 28 36 44 56 63 70 82 88 94 97 103 108 105 107 112 114 98 101 109 106
64 65 67 71 73 73 71 74 78 81 85 83 92 88 87 93 91 82 65 50 36 23 15 14 17 25 33 41 53 61 65 77 85 92 96 103 109 107 108 107 105 104 90 100 104
64 68 68 67 69 66 67 70 74 79 79 80 92 87 87 94 88 78 59 47 34 22 13 12 17 24 32 39 53 61 64 71 82 90 95 103 108 109 107 108 105 100 94 97 101
65 68 64 63 60 60 61 67 71 77 71 79 91 87 88 91 81 73 57 46 33 21 14 14 17 22 27 40 51 60 65 68 76 85 94 100 103 102 102 103 106 100 94 94 100
66 63 58 55 53 54 59 64 69 71 66 77 87 87 87 89 76 70 57 47 33 23 15 12 14 19 27 38 46 56 65 72 75 83 90 96 100 99 103 100 98 99 96 95 93
61 58 53 49 48 50 55 59 64 61 67 77 83 87 87 84 76 69 60 47 32 24 16 10 10 16 25 34 41 55 63 69 74 80 86 91 92 94 96 89 90 93 93 92 89
58 52 46 40 44 46 51 55 57 58 64 73 81 82 87 84 77 68 60 48 33 24 18 10 6 11 21 30 42 55 59 66 70 76 83 88 93 91 87 89 84 83 85 88 83
51 45 36 37 38 43 48 52 51 54 62 69 78 82 90 87 78 69 58 48 35 25 18 10 4 6 16 23 38 48 59 64 65 67 75 81 85 85 82 83 86 85 81 80 83
43 31 32 34 36 40 45 48 50 53 62 67 75 81 88 88 80 69 58 46 33 26 17 12 7 0 10 16 28 46 58 62 66 69 70 75 81 81 80 79 79 74 73 77 81
31 29 30 32 34 40 42 45 47 51 60 63 69 78 84 83 78 71 62 47 35 26 18 12 10 5 8 14 20 33 46 56 61 64 68 71 75 73 71 72 73 73 74 76 81
30 29 27 29 34 36 40 42 46 48 56 61 66 76 82 83 77 72 63 52 38 28 19 14 12 7 8 11 16 22 38 48 57 61 60 62 66 66 66 69 70 70 71 73 76
28 27 27 27 30 31 36 38 43 46 54 57 62 73 79 79 78 74 64 54 44 32 23 18 13 6 9 13 17 25 29 38 49 53 54 58 63 65 64 66 69 70 70 73 78
27 24 22 24 27 29 34 37 40 46 51 56 61 68 78 80 79 76 67 59 51 39 29 22 15 6 4 13 18 24 31 37 43 47 51 57 62 61 61 64 66 67 68 70 74
24 20 21 21 23 28 30 35 38 45 50 54 59 68 74 81 81 77 70 66 56 47 36 26 19 14 8 5 13 21 27 34 39 42 47 54 59 59 57 60 62 64 66 67 71
23 20 19 20 22 24 27 33 36 44 49 53 61 66 72 80 80 78 77 70 65 54 44 31 23 17 17 8 8 15 22 28 34 39 44 49 48 52 56 59 61 65 66 67 68
22 17 18 19 19 21 26 31 36 43 48 52 60 65 69 76 81 82 82 75 70 59 52 38 26 19 14 12 9 12 17 24 30 36 40 42 45 51 54 57 59 62 64 66 67
19 16 15 15 17 20 24 29 33 41 46 51 58 64 65 73 80 85 85 79 77 73 59 49 34 22 14 10 11 14 17 22 28 34 38 41 47 52 54 56 58 60 62 65 66

GFSSW_250_spd_102.txt.gz
Wind_Speed
67 64 67 67 70 70 70 70 73 77 79 82 84 84 86 81 73 60 54 60 65 65 63 59 58 65 66 64 65 72 77 97 97 98 107 124 120 117 114 112 107 104 101 99 93
67 69 68 68 70 70 71 72 74 79 82 84 86 86 89 87 78 56 62 68 71 67 64 61 59 59 58 60 62 66 70 87 94 102 115 123 118 119 118 114 105 101 104 101 94
67 70 69 68 70 72 73 74 75 80 84 87 88 91 90 85 72 62 67 73 76 71 66 61 56 50 49 54 55 55 61 82 95 104 110 119 120 124 121 115 105 97 81 98 96
70 70 70 70 71 72 74 75 77 83 86 88 92 91 91 90 69 67 75 80 74 70 67 58 50 42 42 45 45 52 69 84 92 100 110 116 121 123 121 112 107 105 101 91 98
68 70 72 72 72 74 77 78 78 82 86 90 93 92 93 94 72 73 78 81 74 72 67 56 42 38 37 42 45 58 71 81 92 102 102 112 117 119 119 113 108 99 96 88 77
69 71 72 72 71 74 76 77 79 84 88 91 93 93 97 81 74 78 84 83 78 71 61 51 38 34 35 40 47 58 67 82 93 100 107 112 115 118 118 113 111 108 88 85 89
71 72 74 70 71 75 75 79 80 84 88 91 91 93 97 83 77 83 85 80 78 66 54 45 32 30 34 41 49 58 66 80 89 94 102 108 110 111 114 113 109 108 105 70 78
73 71 71 70 71 73 73 76 83 84 87 89 92 95 98 80 81 84 83 80 76 60 49 39 27 28 34 43 54 62 67 77 88 97 99 104 109 108 112 109 108 108 107 108 65
72 73 73 70 71 71 73 77 84 83 85 88 91 94 94 84 82 84 82 78 70 55 42 32 24 27 34 46 55 62 68 75 87 94 101 108 105 105 104 104 107 110 109 106 102
72 72 70 68 70 70 72 78 82 82 82 85 88 94 89 85 81 85 83 75 64 50 36 24 21 26 33 46 53 54 63 73 86 94 103 102 103 104 106 105 110 108 107 107 105
74 71 68 65 66 68 72 78 80 78 80 82 85 90 85 81 80 87 81 71 57 43 29 18 18 25 34 46 53 55 60 71 82 93 98 102 105 110 105 106 102 99 103 110 110
69 65 63 64 64 65 72 77 74 74 76 78 82 88 83 79 81 84 78 64 51 37 24 14 18 24 31 41 47 53 58 66 81 89 96 102 105 105 101 99 97 96 99 105 110
61 60 61 64 62 65 70 72 68 69 72 73 76 84 78 78 85 81 76 60 46 34 20 11 15 21 30 40 46 52 58 67 75 91 98 105 101 100 97 93 95 101 101 103 109
55 57 62 59 60 66 68 64 62 65 65 69 75 77 76 78 84 76 71 55 42 30 18 11 12 19 29 36 42 51 60 69 81 89 96 101 97 98 98 99 102 103 104 102 103
53 56 55 55 59 65 61 58 58 59 62 61 72 74 75 81 82 76 66 54 41 28 16 10 11 18 27 34 43 51 54 63 74 87 94 95 97 100 103 101 102 101 102 107 104
50 53 52 55 59 59 54 51 54 53 55 57 69 74 81 84 80 72 64 52 40 27 16 11 8 16 24 33 44 49 54 66 72 84 90 94 99 103 101 94 95 101 104 104 101
46 47 52 55 57 51 48 46 47 50 49 55 68 75 81 82 76 71 65 54 40 27 20 13 9 13 22 34 41 52 58 68 73 80 87 95 98 103 103 102 99 98 98 101 99
43 45 49 52 48 48 39 41 44 45 45 52 64 72 81 84 76 68 65 55 42 29 22 14 7 7 18 28 37 47 60 67 71 72 81 91 93 99 102 103 101 98 97 95 90
42 44 47 46 44 36 35 36 40 38 43 50 60 71 78 83 75 72 64 55 44 32 23 12 5 3 11 22 31 41 53 64 69 73 75 82 89 91 96 96 96 98 98 96 93
40 43 43 41 37 31 29 33 34 35 43 48 56 66 74 82 76 71 63 53 43 33 25 15 10 3 10 18 23 34 48 60 64 67 71 80 86 87 90 93 92 93 93 94 92
40 40 38 37 30 23 26 29 29 33 42 45 50 61 71 78 77 70 64 54 46 36 27 22 16 6 9 14 17 23 37 51 56 61 64 71 79 83 86 87 89 87 84 82 83
39 36 34 31 20 17 24 25 26 32 40 44 47 56 66 74 79 74 69 59 51 45 34 26 21 16 6 13 17 19 28 45 53 59 63 67 72 76 80 80 76 79 79 75 72
34 31 30 20 13 16 21 21 24 31 38 43 45 53 63 71 75 74 71 67 58 53 46 33 24 19 15 5 12 21 26 32 44 53 57 59 63 66 68 71 74 73 71 69 73
30 28 23 13 12 16 18 17 22 29 37 43 45 52 59 69 74 76 74 71 67 60 50 42 30 20 14 9 3 11 22 27 34 43 52 55 59 61 61 63 66 68 69 70 70
29 25 17 12 11 13 13 14 20 28 36 44 47 51 57 66 72 74 74 73 72 68 62 49 42 29 18 11 7 1 11 22 29 36 42 51 54 55 57 58 57 59 64 66 68
25 21 16 12 10 10 10 13 19 26 32 40 48 52 55 65 70 75 74 75 73 74 67 61 50 37 24 14 8 4 5 12 21 28 35 39 45 48 51 52 54 56 58 61 64
22 20 16 13 9 7 8 12 18 24 31 36 45 51 54 61 64 70 75 76 78 78 74 69 63 51 35 20 10 5 3 10 16 23 29 36 39 44 47 50 52 55 56 57 60

GFSSW_250_spd_105.txt.gz
Wind_Speed
68 67 71 70 75 73 73 73 74 77 79 81 82 84 84 83 83 74 65 43 41 47 54 55 55 56 63 64 69 71 70 72 67 65 80 91 104 113 115 116 110 101 99 101 96
71 75 72 69 75 76 75 74 77 80 80 81 85 85 86 87 85 74 65 46 52 56 58 60 57 57 63 67 69 69 64 67 72 72 85 97 107 113 120 121 115 106 102 103 102
77 72 80 75 76 79 78 76 79 82 82 83 85 85 88 90 91 75 56 53 58 62 63 63 56 63 67 67 68 65 56 67 77 79 86 96 105 116 123 123 114 106 98 98 95
80 78 81 80 78 80 81 78 79 83 84 84 86 88 91 94 88 75 59 55 65 69 67 67 63 63 60 63 60 52 53 63 71 78 87 91 104 116 122 122 114 109 102 95 97
79 80 78 80 79 82 82 81 81 83 83 85 87 89 93 97 85 77 62 62 72 76 72 67 66 60 56 54 48 44 52 58 69 79 85 92 109 113 119 120 117 111 94 101 94
82 82 81 79 79 80 83 81 80 82 84 85 86 90 94 96 88 78 67 70 76 77 70 66 63 57 53 46 39 42 44 56 70 75 91 95 103 110 114 119 118 112 99 88 95
85 83 81 81 80 82 82 80 80 84 82 83 85 91 94 98 88 79 68 76 79 75 71 65 61 52 47 37 34 38 47 56 69 77 82 90 107 102 112 119 118 113 105 88 78
87 84 83 82 81 79 81 80 80 80 80 82 85 92 96 94 86 73 71 79 77 73 69 59 55 46 37 32 33 42 49 56 73 78 86 91 97 101 108 116 115 112 109 100 83
87 85 82 80 80 75 80 77 78 77 78 82 86 93 94 92 81 70 76 79 77 72 65 55 48 39 30 29 35 43 48 59 71 77 85 90 102 99 107 111 115 111 112 105 94
90 85 81 77 78 75 74 74 73 74 76 81 87 89 93 88 80 71 78 75 74 70 60 49 40 33 26 29 35 43 52 63 70 78 86 99 106 107 100 109 114 113 111 108 104
88 86 78 77 72 71 69 69 68 73 72 80 86 86 87 82 76 74 76 75 74 63 52 40 32 27 24 28 35 45 52 61 71 76 85 91 99 102 90 107 110 111 113 110 108
84 83 73 76 68 66 63 63 66 67 71 81 80 80 84 79 74 76 75 75 67 55 45 31 25 21 22 26 35 44 53 61 65 70 82 84 97 103 103 106 111 112 111 110 111
76 74 76 69 64 58 56 59 62 65 71 75 74 76 78 74 74 76 76 72 62 49 37 24 18 16 19 28 36 46 53 58 62 66 77 83 92 95 101 102 100 112 109 108 108
62 60 64 58 54 51 51 56 57 64 71 69 65 72 76 71 73 79 74 69 56 44 31 17 13 12 21 29 36 47 54 57 64 67 74 83 92 96 99 103 108 102 106 108 108
49 51 48 49 46 45 50 52 55 62 65 59 61 67 71 71 72 80 72 64 50 39 26 13 11 12 20 30 38 47 52 56 61 65 72 81 90 96 102 100 96 104 103 105 106
42 42 41 41 41 43 46 48 53 57 54 53 56 64 68 72 76 76 71 62 48 35 22 12 7 12 20 27 38 45 52 57 61 68 71 78 88 99 102 100 97 95 98 98 101
35 38 37 36 37 39 41 46 50 50 44 47 53 60 67 74 76 70 68 59 46 31 20 14 8 9 20 29 37 45 51 60 64 70 74 80 91 95 95 94 98 97 96 97 100
31 34 32 34 34 34 39 43 43 38 40 42 50 57 67 74 73 70 66 58 47 30 21 15 10 7 19 28 35 43 50 58 59 64 75 78 86 92 93 96 99 102 97 89 91
32 31 31 30 32 32 35 37 33 30 33 38 45 55 65 71 75 66 66 58 47 34 23 16 8 4 15 23 32 38 47 53 60 65 69 79 86 91 89 92 98 98 94 91 89
30 28 28 28 28 28 30 28 22 27 29 34 41 52 61 70 74 62 62 54 45 35 26 19 12 3 10 19 26 33 43 54 60 63 69 77 85 89 88 89 91 95 96 90 92
29 29 26 26 24 25 23 16 20 21 25 34 38 48 58 67 74 64 60 52 44 37 28 22 15 10 0 13 17 26 41 51 60 64 70 75 82 89 90 91 90 92 94 96 97
31 27 24 21 21 18 14 12 16 16 23 32 36 46 54 63 71 67 58 58 49 43 36 26 19 14 7 7 16 23 34 45 54 60 66 73 79 86 93 91 89 90 90 91 92
29 26 20 18 16 12 10 11 11 14 22 31 34 41 50 58 67 73 60 62 62 53 46 35 26 18 11 6 11 21 26 37 46 55 60 65 74 78 85 90 91 93 94 93 92
27 24 19 19 12 12 8 8 7 13 20 29 35 39 46 55 62 69 72 69 67 64 59 50 37 25 16 8 7 18 29 35 43 52 56 61 67 74 80 85 90 92 91 91 93
27 21 19 15 15 11 5 5 5 12 19 27 35 41 45 53 60 68 73 72 72 72 70 63 47 36 25 14 7 8 17 27 34 52 57 62 66 69 75 79 80 80 87 89 90
25 21 18 18 16 9 5 1 4 12 19 24 33 40 46 53 58 65 71 73 75 77 76 72 63 49 33 22 10 4 9 18 30 41 52 57 59 61 64 68 70 69 68 71 74
25 22 20 22 16 10 7 2 3 10 17 24 30 36 42 54 57 61 68 74 77 80 79 79 71 60 47 33 17 7 2 11 20 30 40 49 53 55 58 59 60 63 63 65 67

GFSSW_250_spd_108.txt.gz
Wind_Speed
68 68 65 63 67 69 74 78 75 77 77 78 82 84 89 88 89 92 92 82 68 53 40 40 44 50 58 63 67 74 77 80 79 76 64 69 69 76 85 99 99 103 100 98 93
72 73 72 68 71 75 76 80 79 77 80 80 83 87 91 89 92 94 94 81 68 54 42 46 49 54 57 63 67 68 73 82 87 80 78 75 73 82 85 97 99 102 103 104 102
81 79 77 75 77 76 79 75 81 82 81 81 85 90 92 93 95 96 94 84 72 52 47 51 57 57 62 61 64 64 60 77 88 86 83 76 77 83 86 94 99 103 105 107 104
84 81 82 77 82 79 77 80 79 80 81 84 86 90 94 95 96 97 96 83 70 55 52 59 61 61 62 58 66 64 65 65 77 85 88 80 82 85 90 93 99 106 109 105 102
92 87 89 81 82 80 81 81 80 80 83 85 87 92 95 96 97 96 94 79 65 56 59 63 64 64 64 59 62 66 65 64 72 75 78 82 89 89 91 96 104 106 108 88 98
95 93 92 86 82 82 82 82 79 80 83 84 88 92 95 93 95 96 88 69 59 62 66 64 67 66 64 60 59 61 61 63 64 64 70 80 90 91 95 99 107 110 110 94 96
102 99 94 88 79 84 85 83 77 79 82 83 89 91 91 91 95 95 84 64 61 68 66 71 70 66 62 59 56 55 53 54 56 57 65 79 86 98 101 107 111 113 113 101 93
102 101 94 87 82 87 84 82 81 79 79 87 87 89 89 91 95 94 78 64 68 70 71 69 66 64 58 53 50 46 44 46 49 54 61 71 88 89 92 102 108 113 109 106 92
96 99 92 89 86 86 82 79 80 79 78 85 86 87 87 91 95 89 73 63 72 72 71 69 63 58 51 47 41 36 36 40 43 52 60 75 95 98 100 107 106 113 107 104 97
94 95 90 87 84 84 84 79 77 74 79 85 84 84 85 90 94 83 68 68 77 73 69 64 57 49 43 39 31 29 34 36 44 54 63 79 91 97 92 103 108 111 106 110 97
83 86 89 88 86 84 84 78 78 73 76 79 81 79 82 89 90 78 67 76 75 73 67 59 50 41 36 30 24 26 29 33 46 57 69 83 90 96 92 102 105 107 107 106 103
74 78 74 77 76 77 74 74 69 70 70 79 74 74 81 89 85 75 70 79 73 71 61 52 44 34 29 23 22 26 29 37 48 60 73 82 86 91 84 92 101 107 105 102 103
77 69 63 63 64 61 62 60 64 61 68 68 65 72 80 85 78 67 76 75 71 64 52 45 36 28 24 20 19 25 32 39 52 63 78 87 89 93 80 79 99 103 103 102 105
69 61 55 53 54 48 54 55 53 57 55 55 62 69 75 77 75 70 75 72 69 55 45 38 29 23 20 16 18 25 32 38 48 61 77 87 91 83 83 90 87 105 101 102 106
63 55 47 44 40 36 39 40 43 45 45 51 58 62 69 72 71 70 73 70 62 49 40 32 25 18 15 13 18 25 32 38 46 56 67 73 90 89 86 82 79 99 100 100 105
57 49 42 38 31 31 30 31 33 36 40 49 50 57 65 68 70 70 73 68 60 48 36 25 19 13 10 12 18 26 36 41 46 53 60 76 89 95 94 78 71 92 98 101 100
50 43 35 31 25 25 24 24 27 30 38 39 44 51 61 67 65 71 71 68 58 46 34 20 11 8 9 12 17 26 34 43 47 53 54 69 85 93 93 74 79 75 72 98 98
43 37 32 27 27 22 18 18 23 29 29 32 39 47 59 65 66 70 70 68 56 42 29 20 12 5 5 12 18 26 37 42 49 52 59 63 79 91 92 87 85 75 83 88 98
41 38 33 32 24 17 14 16 21 23 22 27 35 43 57 65 69 68 66 62 52 41 28 18 13 5 4 11 19 27 35 41 47 49 58 59 67 81 89 95 84 78 72 81 92
47 39 38 28 22 14 13 16 18 13 17 24 32 41 54 64 70 65 61 52 45 36 26 21 14 8 0 12 19 26 34 39 45 50 56 61 71 81 85 90 93 89 86 79 85
46 43 34 26 19 14 13 13 7 10 14 22 30 38 49 60 68 68 59 52 45 36 26 19 15 10 5 7 20 27 31 37 43 50 54 58 66 75 86 86 90 88 89 92 94
48 41 32 25 18 15 10 5 3 6 11 22 29 34 44 55 64 67 62 60 53 45 34 24 19 13 7 7 11 24 32 37 42 47 51 59 69 73 77 88 91 94 88 74 81
47 38 32 24 19 14 9 7 2 4 10 20 26 31 40 53 62 69 65 58 63 60 45 33 23 16 11 5 13 20 29 36 40 46 53 57 62 65 69 77 86 92 88 91 91
47 37 29 23 20 15 14 7 4 2 10 19 24 29 35 48 58 66 69 65 63 69 65 50 35 22 13 7 6 16 22 31 38 45 53 60 63 72 72 76 79 83 90 92 91
44 36 29 24 21 19 15 9 6 2 11 18 26 28 35 42 56 62 69 70 69 71 70 68 50 33 21 11 3 8 20 28 39 49 51 56 65 73 76 77 80 82 84 87 92
41 35 28 23 23 21 15 11 6 4 12 19 25 30 33 39 49 60 66 67 72 73 72 72 69 53 37 21 10 2 9 20 34 43 50 56 61 68 71 74 76 81 82 83 88
38 32 28 27 27 22 17 12 7 5 11 17 22 29 32 40 47 56 61 67 69 72 74 74 74 69 58 40 24 10 1 8 21 34 43 52 60 66 71 75 78 76 80 81 83

GFSSW_250_spd_111.txt.gz
Wind_Speed
85 82 82 78 71 65 65 68 66 67 69 72 74 78 77 79 81 84 87 90 90 86 83 77 57 50 44 47 54 66 66 69 74 82 79 91 92 92 85 74 70 80 77 81 85
95 94 88 84 81 73 67 75 70 74 75 73 76 79 80 81 83 86 89 90 91 87 82 73 68 48 44 53 56 64 65 75 75 77 81 88 89 91 84 76 69 72 78 77 86
102 97 90 86 81 77 77 81 77 75 73 76 78 77 82 84 87 88 89 92 90 90 77 66 59 48 50 55 66 68 72 73 77 78 86 86 89 92 88 80 75 72 80 76 89
105 101 98 93 87 82 83 79 79 77 77 77 81 80 83 85 88 88 92 93 93 89 78 69 52 51 53 62 68 65 72 76 77 77 81 85 89 91 91 86 83 76 80 81 87
107 103 99 97 91 90 87 84 82 79 82 82 82 84 84 88 90 91 95 95 92 89 77 65 56 57 57 63 65 65 68 72 78 78 79 85 89 91 88 92 88 76 82 83 84
87 106 101 99 97 93 89 84 83 81 83 81 86 85 86 87 90 92 96 94 94 84 76 69 62 61 62 62 63 67 66 69 71 71 76 80 84 86 89 91 91 82 85 89 96
79 86 95 102 100 96 91 86 82 83 83 85 88 85 88 88 89 95 97 95 90 81 74 69 68 67 64 62 62 65 66 65 70 69 70 72 79 76 87 89 87 81 90 96 104
74 79 83 88 95 93 91 84 83 85 86 85 86 86 88 89 92 97 96 96 88 80 74 72 70 69 66 65 65 64 63 63 62 64 66 65 69 77 81 89 89 85 94 102 108
71 75 76 80 86 92 88 82 82 85 85 86 87 87 88 92 96 98 95 92 82 77 75 73 71 69 68 64 59 54 55 54 50 56 57 56 65 71 77 87 87 94 98 108 112
66 64 71 80 77 78 81 80 81 82 80 79 79 84 89 90 97 96 93 86 83 75 74 71 70 67 61 56 51 47 43 43 41 43 48 56 64 73 80 89 92 100 101 110 117
59 60 69 72 75 71 68 64 78 73 72 77 77 83 88 94 96 93 90 83 75 75 70 68 65 58 51 47 42 37 34 33 35 39 48 60 66 73 78 89 95 97 99 109 117
54 63 67 62 65 61 57 60 68 66 72 71 70 77 78 87 91 91 83 81 71 72 69 61 53 48 44 37 31 27 26 28 37 43 53 59 65 71 76 87 92 96 97 108 117
55 55 59 61 54 50 45 47 50 58 59 59 59 65 75 82 85 83 82 68 69 69 61 50 45 40 35 28 23 20 22 29 36 44 55 61 65 72 77 92 100 99 98 105 117
51 52 57 51 49 41 39 38 40 42 40 45 51 57 63 73 80 80 68 69 65 61 51 44 40 34 27 22 18 16 21 28 33 44 53 63 68 72 81 89 92 88 92 105 110
52 54 49 47 40 34 28 27 33 28 34 37 42 49 59 71 75 67 65 67 60 57 47 41 35 29 21 15 14 13 20 28 39 48 61 64 70 78 80 86 85 85 90 98 106
48 45 47 42 34 27 23 25 18 24 25 31 37 47 58 67 61 57 68 64 59 55 48 38 28 23 17 11 9 11 19 28 39 48 59 69 69 77 81 84 83 76 89 95 101
46 48 46 38 28 24 24 16 18 19 21 27 36 43 53 58 51 60 70 64 61 55 45 32 24 16 9 6 7 10 16 27 35 47 56 68 76 78 81 79 76 76 65 86 100
48 46 43 36 32 28 20 17 19 15 19 25 30 39 49 52 51 62 65 63 61 48 38 28 19 12 4 4 6 10 15 24 34 42 48 65 78 76 76 74 78 75 77 80 97
51 47 41 37 37 28 22 20 13 13 16 20 26 35 48 51 49 59 63 61 56 45 33 23 15 8 3 6 11 11 17 20 27 34 46 63 72 76 69 72 68 79 85 79 91
52 49 46 43 36 28 24 18 13 11 10 16 24 34 45 54 52 57 60 55 47 39 30 21 13 6 3 5 11 14 18 24 29 38 44 58 69 73 82 81 72 62 76 71 86
54 52 49 42 37 30 24 16 11 6 5 14 23 32 43 54 54 57 57 55 50 44 33 21 14 7 4 4 12 14 20 27 34 44 44 50 66 75 78 74 82 71 66 62 76
57 55 49 44 38 31 23 16 11 3 3 13 22 30 39 51 59 57 57 58 53 41 35 26 20 13 9 6 8 14 19 26 33 40 48 63 71 75 75 68 65 63 66 60 70
59 58 52 44 39 31 23 17 11 5 6 14 22 29 36 47 56 62 59 59 59 57 44 35 27 18 12 9 8 14 19 26 33 38 48 51 62 71 76 77 77 73 71 76 58
63 58 50 44 37 30 24 18 12 9 10 18 23 27 35 46 55 64 63 62 64 70 62 50 38 28 21 15 9 9 19 26 33 35 39 47 60 70 76 75 76 78 79 78 81
62 56 50 45 37 30 24 19 14 13 14 18 24 27 33 42 54 60 66 72 67 71 73 67 54 41 29 21 13 8 15 24 28 33 38 45 53 62 69 78 77 80 79 81 77
58 53 48 40 35 31 25 20 15 15 15 18 22 26 29 36 50 62 64 69 70 74 74 70 69 58 44 32 20 11 6 20 22 28 34 40 45 56 62 65 79 81 83 80 88
54 50 44 39 36 29 25 21 17 14 16 18 22 27 29 35 43 54 59 65 67 70 73 74 74 68 63 51 37 21 10 2 8 19 28 35 41 45 53 60 66 75 78 84 84

GFSSW_250_spd_114.txt.gz
Wind_Speed
112 111 106 103 98 95 91 87 80 78 76 73 64 69 70 70 74 78 75 77 77 77 79 78 79 76 69 63 45 50 39 41 64 81 83 92 93 97 97 84 68 55 57 61 62
100 107 112 108 103 101 96 91 85 82 80 74 72 73 73 74 76 82 81 81 84 82 83 84 84 79 72 64 55 48 43 50 65 74 81 95 99 98 93 86 66 53 59 55 59
82 92 97 110 108 104 102 94 89 84 84 80 79 75 77 77 80 83 85 86 86 87 89 87 87 81 72 65 59 49 50 59 62 72 76 86 95 96 88 79 71 53 58 60 60
74 74 82 89 97 109 104 101 94 91 86 86 82 78 80 81 80 84 89 91 90 91 91 89 88 82 73 70 67 54 59 64 62 74 70 82 94 88 83 77 72 67 66 64 65
72 64 65 81 84 92 102 102 98 92 89 87 84 78 82 85 85 89 92 91 93 95 90 89 88 76 66 69 65 61 62 66 64 72 76 83 84 81 75 79 72 67 63 57 65
66 57 60 64 80 85 93 105 102 94 85 85 83 82 84 85 89 93 92 94 96 94 92 87 81 67 69 64 63 63 62 64 63 72 75 80 83 75 77 77 71 63 66 59 62
66 57 53 60 64 75 80 85 93 96 92 84 82 81 85 84 91 93 95 96 98 95 92 82 73 72 70 61 60 65 64 63 66 70 71 75 79 74 87 85 73 63 72 66 68
65 57 49 51 58 67 69 78 83 88 93 84 79 80 83 87 92 94 96 98 97 93 84 77 71 75 65 56 61 63 63 65 69 69 72 69 78 81 83 82 79 76 73 72 80
63 57 47 46 53 57 62 71 72 79 83 84 80 79 85 88 90 94 97 98 93 87 79 73 77 72 63 63 63 62 66 68 68 65 66 68 79 79 81 86 86 84 78 80 87
58 54 47 46 49 49 57 59 59 62 73 78 79 78 82 84 90 94 96 93 86 75 70 76 73 68 66 64 63 63 60 60 59 59 61 64 73 75 76 80 83 83 81 87 90
50 48 48 47 43 47 56 56 56 57 58 65 77 78 82 85 90 96 92 86 70 71 77 71 70 69 67 64 62 57 55 53 50 51 53 59 65 68 72 78 81 85 81 91 86
44 43 45 44 40 45 47 52 55 54 53 60 64 67 70 76 82 83 77 69 73 75 71 67 67 65 61 56 51 49 46 42 41 46 50 53 55 59 66 70 75 78 85 96 110
41 38 42 40 37 40 45 48 46 44 41 45 52 57 64 70 73 69 67 69 73 72 65 63 61 55 49 44 40 36 34 35 37 38 40 43 48 56 60 65 72 83 94 97 121
35 39 43 37 35 39 37 35 34 37 37 42 45 50 55 62 64 62 62 69 73 65 60 52 46 42 38 32 28 27 25 28 30 33 35 42 50 55 61 68 74 88 102 109 130
36 43 40 36 34 36 28 27 25 26 28 30 35 43 51 56 56 53 61 67 65 57 50 40 34 32 28 21 21 18 21 25 28 31 35 42 46 53 63 67 69 88 101 108 132
41 41 38 34 37 36 31 26 20 16 18 26 32 41 47 50 48 52 57 61 52 46 37 32 29 25 21 16 15 17 18 21 26 30 34 37 41 47 56 63 67 88 100 106 132
45 41 38 42 42 39 33 26 21 18 19 25 31 39 44 46 45 46 52 52 47 39 35 29 26 22 16 12 10 11 13 15 22 28 36 40 44 47 53 57 66 84 97 104 134
46 44 48 48 47 39 34 28 22 18 16 21 29 38 42 41 41 45 50 49 43 41 33 27 22 16 10 9 9 9 10 13 21 28 35 41 45 49 51 60 65 85 92 108 130
50 53 57 51 46 42 37 29 21 12 12 19 28 34 37 35 43 43 49 48 47 38 30 23 18 10 4 4 8 11 11 12 17 24 33 39 44 49 54 55 57 74 91 120 135
57 60 58 51 48 44 38 28 18 10 10 17 26 33 32 33 46 45 49 47 44 35 26 18 13 9 2 4 9 12 15 15 15 23 30 42 46 47 47 49 57 69 85 110 133
60 62 60 57 51 43 36 27 17 9 9 16 24 29 31 38 47 46 46 45 39 31 25 18 16 12 6 9 11 17 17 17 16 24 25 43 51 50 48 51 55 59 79 92 126
65 65 64 59 51 43 35 25 16 8 6 11 21 29 33 45 52 51 45 40 37 33 28 21 16 13 12 10 13 17 20 21 22 25 30 44 52 54 54 53 57 58 67 85 108
68 68 64 57 50 42 34 24 17 8 1 11 20 30 40 47 55 55 54 49 46 45 38 30 22 18 16 15 13 21 18 23 25 27 33 43 50 53 58 60 66 65 67 80 103
71 67 61 54 48 41 32 25 18 10 9 16 22 29 39 48 55 57 57 58 59 58 51 41 33 26 21 19 17 18 20 18 20 28 32 42 48 62 62 63 70 65 68 76 102
71 65 60 54 46 40 31 26 20 16 15 19 21 26 35 46 53 60 64 61 66 71 65 60 48 39 30 23 21 16 18 16 21 24 29 40 48 53 66 64 64 69 72 70 84
68 65 59 51 44 37 32 27 22 17 18 20 21 25 33 41 50 58 62 64 68 69 70 70 67 60 45 35 27 19 15 11 12 15 15 22 36 46 53 56 63 64 65 69 75
65 64 55 47 42 36 32 27 23 20 22 22 23 25 32 39 45 52 58 62 65 68 70 70 74 70 66 57 40 26 20 10 5 12 14 21 30 32 45 54 64 62 66 72 73

GFSSW_250_spd_117.txt.gz
Wind_Speed
87 89 98 109 116 110 107 103 103 103 99 90 89 86 85 83 78 78 74 75 75 76 77 77 76 78 76 72 70 70 57 42 52 53 47 57 60 57 58 63 84 89 83 81 61
86 86 76 83 100 105 114 115 110 111 106 96 96 92 88 85 78 81 81 80 78 78 82 84 85 81 81 77 75 73 59 48 55 51 50 58 62 79 73 72 85 90 91 87 53
80 87 84 62 71 84 94 101 109 115 110 103 98 94 92 87 83 82 84 82 82 82 85 89 89 86 85 81 81 71 61 63 56 53 57 60 66 83 92 70 88 95 93 84 44
73 86 83 81 70 65 79 86 88 103 110 107 101 95 94 86 85 88 87 86 88 87 89 93 94 92 89 86 82 67 65 63 56 60 61 67 79 90 95 89 97 94 92 72 47
64 69 71 72 61 56 63 73 82 86 96 103 101 98 95 88 87 87 91 90 91 91 93 96 96 93 93 88 81 69 67 58 62 63 65 76 76 89 92 89 97 94 89 68 68
62 62 64 64 56 51 57 64 72 77 86 93 97 96 93 90 85 87 92 93 95 95 96 99 97 95 91 83 80 78 64 65 67 66 73 80 75 89 88 93 91 91 91 79 62
63 60 62 61 51 50 46 57 60 71 76 81 82 90 94 91 86 90 90 92 94 98 100 100 96 91 82 80 72 66 72 70 65 67 71 80 69 83 84 86 85 82 70 61 61
64 61 58 60 54 46 46 53 55 60 70 69 73 78 82 83 84 87 89 89 97 99 100 98 92 86 79 73 65 77 73 65 64 68 66 80 61 81 81 80 79 78 66 57 53
59 60 55 55 49 44 42 45 52 52 61 65 67 72 78 85 86 90 90 92 98 100 99 90 84 80 77 71 74 69 64 64 58 69 62 74 66 80 76 79 79 76 68 58 56
46 53 50 50 45 41 41 40 45 50 53 56 58 62 67 69 76 80 87 94 94 93 87 84 77 75 75 76 66 62 63 61 60 65 64 67 69 76 74 75 78 75 72 63 54
40 45 44 41 38 34 31 30 35 39 41 45 47 49 60 66 71 80 85 85 82 79 79 74 71 71 71 65 62 61 61 59 59 63 65 67 71 72 70 72 76 76 70 66 64
34 37 37 39 33 29 27 26 26 28 35 33 40 47 54 61 67 71 70 69 67 65 61 63 67 63 60 61 59 57 58 59 60 61 62 60 65 66 68 74 77 78 75 72 71
29 30 32 34 30 26 26 25 24 27 29 31 43 48 55 61 62 57 57 54 51 53 57 62 55 57 58 59 59 58 60 61 60 58 55 54 55 56 61 70 77 80 77 78 79
26 26 33 36 34 31 28 26 29 28 32 33 38 46 52 54 51 50 44 44 48 53 54 52 53 55 55 55 53 55 56 52 49 48 46 47 47 50 56 64 71 75 82 85 88
21 28 31 38 37 32 30 26 31 28 24 30 36 42 46 44 38 37 40 41 48 50 51 50 48 46 47 46 46 45 41 41 38 37 38 35 40 46 53 59 65 69 76 86 93
23 35 43 44 40 38 37 39 30 26 24 28 34 35 35 28 31 39 40 45 50 51 46 41 34 37 38 39 35 31 30 28 29 29 30 32 32 39 46 51 56 66 80 92 98
33 48 52 48 41 43 42 35 30 28 23 24 26 26 20 30 36 37 43 48 51 40 32 28 29 31 33 28 24 21 21 20 21 22 24 27 31 32 38 49 60 71 86 97 98
50 58 54 54 55 52 44 38 32 22 18 19 18 15 26 38 38 40 42 41 32 29 25 24 24 24 20 18 15 14 14 12 12 14 16 22 26 33 45 56 64 81 94 93 98
60 61 58 63 58 51 45 36 27 20 13 16 11 21 33 29 33 37 35 30 27 23 20 17 14 15 11 11 9 8 10 11 13 20 25 31 36 39 47 63 77 90 95 98 108
65 66 68 63 58 51 42 33 25 15 10 10 17 26 23 28 29 33 33 30 26 21 15 9 6 6 3 4 6 12 12 12 13 14 24 33 39 45 57 71 80 92 101 110 108
67 72 67 61 55 48 39 30 21 12 4 9 21 22 27 33 30 35 34 31 25 21 16 10 4 4 4 4 9 14 18 19 16 16 22 34 41 48 56 69 78 95 105 120 114
73 68 66 60 54 45 37 27 19 10 5 15 19 29 39 38 36 35 36 32 30 22 17 12 9 7 12 12 14 19 23 21 19 18 24 33 41 48 58 69 87 104 117 123 123
73 70 64 59 51 42 35 29 25 12 10 17 27 37 44 45 45 42 43 41 36 30 25 19 16 12 14 14 16 22 25 21 17 18 22 28 37 49 57 66 89 109 125 119 111
71 68 63 57 49 42 36 32 22 16 16 24 32 39 46 53 53 53 57 45 43 44 38 31 23 18 13 16 17 26 25 21 17 18 21 26 34 42 49 63 88 110 127 129 125
71 67 60 55 48 42 37 30 21 20 20 27 32 40 48 57 59 58 59 65 56 57 52 40 31 24 20 16 22 33 28 21 18 13 13 18 24 29 42 52 73 99 120 134 133
70 63 57 51 47 42 36 28 23 22 23 26 32 39 47 55 58 63 65 62 66 67 57 51 47 37 30 25 24 29 28 24 20 12 11 10 21 26 29 39 60 82 105 123 133
67 61 55 51 47 42 35 28 24 24 25 25 30 37 44 49 56 61 63 68 68 70 69 67 56 57 47 35 28 27 29 24 20 15 14 10 17 21 24 29 34 59 84 96 113